GFSSW_700_spd_000.txt.gz
Wind_Speed
12 12 12 12 12 11 10 11 12 12 11 12 12 13 18 22 26 27 28 30 27 27 24 20 17 13 9 8 6 5 3 4 3 2 6 7 10 8 9 10 12 14 10 18 21
14 13 12 12 13 12 12 11 10 11 12 12 12 11 12 17 23 25 25 25 26 24 25 22 19 14 11 7 7 6 3 4 2 0 7 6 10 7 8 10 13 15 10 17 19
14 14 13 13 13 13 13 12 12 11 11 12 12 11 10 13 14 18 22 21 23 23 23 22 20 17 14 10 9 7 6 0 3 1 8 7 9 8 8 8 9 9 12 17 19
14 14 14 13 13 13 13 14 13 11 10 11 12 11 10 10 4 10 15 19 24 25 25 26 25 22 17 15 12 10 9 8 5 6 8 12 10 10 9 6 8 8 8 12 17
15 15 15 15 14 14 14 14 14 14 12 11 12 12 11 10 6 16 13 17 23 26 27 28 27 23 20 15 14 15 9 10 8 8 9 12 12 9 11 8 6 8 9 11 13
18 17 17 16 16 16 16 15 15 14 14 13 12 13 13 12 8 12 15 17 21 26 27 31 30 24 17 18 16 10 10 10 8 9 12 13 13 10 13 10 9 8 9 12 13
19 19 20 20 20 19 19 17 16 15 13 14 13 14 13 6 10 11 15 18 19 23 28 30 31 27 24 17 17 15 10 10 9 14 12 12 13 15 13 14 13 10 10 12 13
20 20 21 21 23 22 23 21 18 17 15 14 15 17 15 15 12 14 14 17 18 21 28 32 33 29 20 17 13 15 13 13 9 15 13 16 9 13 16 15 16 15 12 12 12
19 20 22 23 23 22 23 22 21 19 17 16 17 19 18 7 3 6 11 16 17 21 27 31 33 30 22 22 20 19 18 15 11 16 14 18 7 11 13 16 20 18 16 14 15
19 18 19 22 22 24 23 22 22 21 21 19 19 18 13 10 11 10 10 16 18 19 24 28 34 26 25 30 30 24 21 15 17 20 17 17 13 9 7 18 19 23 20 20 17
19 20 19 20 20 21 23 22 22 24 22 20 17 21 22 25 23 17 14 16 20 18 21 26 33 37 32 31 28 21 19 16 20 14 19 17 16 16 15 13 19 23 28 26 23
20 18 19 21 20 20 20 20 23 24 27 23 22 24 20 23 27 25 23 18 23 24 22 24 37 32 30 29 29 24 23 22 19 16 17 15 18 17 18 17 17 21 27 30 27
22 19 19 20 21 21 19 19 20 21 24 22 18 17 15 15 10 14 30 25 24 27 29 31 29 29 29 31 31 31 27 24 23 16 16 15 18 17 19 18 20 18 21 27 30
25 21 19 20 21 20 18 17 17 16 14 14 12 13 14 11 11 10 22 27 25 30 29 28 31 31 30 32 32 33 29 24 23 20 21 19 19 18 17 20 22 22 22 24 31
27 25 20 20 20 20 18 17 13 10 6 7 12 15 11 10 10 11 16 27 27 23 32 33 34 32 34 36 33 36 27 27 25 23 25 18 18 21 14 18 22 20 23 24 24
28 27 21 22 21 20 17 15 12 6 10 8 14 15 9 6 6 11 16 26 23 24 28 31 26 31 31 32 32 29 26 23 25 25 28 34 23 24 20 21 17 19 23 24 26
29 27 25 21 21 19 17 15 8 17 6 12 14 17 13 10 8 10 18 29 28 30 32 27 33 27 28 31 32 31 27 20 20 20 16 29 31 28 18 20 17 16 20 19 24
28 26 25 22 23 21 21 19 20 9 24 10 12 16 17 14 11 13 16 26 31 27 26 30 31 38 25 41 39 40 39 31 23 15 17 31 25 33 26 26 23 21 16 18 16
28 27 25 23 23 24 25 31 21 23 18 21 19 18 19 18 14 14 21 24 29 33 32 30 37 27 38 29 41 40 45 41 36 29 25 29 25 30 26 24 19 16 14 14 14
30 29 27 24 25 26 32 45 26 22 16 20 23 17 18 22 19 19 21 20 26 30 29 25 22 33 25 30 35 44 41 40 43 26 23 28 25 20 20 21 19 19 17 12 16
28 26 26 21 24 32 37 37 31 31 23 23 25 27 20 22 19 18 15 19 20 24 27 29 21 20 31 42 42 38 42 43 41 42 19 18 30 27 24 22 17 16 17 12 16
24 21 19 19 24 24 33 28 33 27 30 32 28 29 29 23 21 21 19 14 17 22 28 28 25 27 25 38 37 40 42 40 38 38 41 42 34 24 23 22 23 25 20 18 18
26 25 23 23 23 25 25 25 27 27 29 28 37 31 26 26 28 28 25 20 14 16 21 28 32 23 25 27 29 43 48 43 43 38 42 30 32 27 15 16 12 16 16 19 23
20 14 13 14 18 20 21 24 24 21 27 30 29 28 30 32 28 16 21 21 17 19 18 20 28 34 27 33 36 34 43 49 49 48 43 50 34 33 28 25 23 22 26 17 21
16 16 22 12 12 16 16 17 15 18 22 22 32 28 29 31 29 29 23 19 15 18 18 15 23 24 29 28 26 34 39 40 50 53 50 42 47 43 37 33 27 25 23 25 23
17 14 20 30 28 27 22 18 15 16 18 18 22 26 31 31 30 26 28 26 24 22 22 18 17 18 26 30 33 34 37 39 39 41 52 52 49 40 44 37 36 31 30 32 30
20 22 21 20 24 23 18 18 14 11 16 19 16 14 12 19 23 23 22 21 19 24 22 22 22 16 23 20 25 35 39 38 44 39 37 42 48 51 41 33 35 35 28 29 26

GFSSW_700_spd_006.txt.gz
Wind_Speed
16 17 17 16 16 15 13 13 13 14 14 13 12 13 16 16 16 19 26 30 35 29 26 21 18 13 11 9 10 12 18 12 9 7 10 9 8 9 13 13 12 9 8 19 21
16 16 16 16 16 15 14 13 12 12 13 13 12 11 14 15 15 15 15 25 28 31 30 24 20 15 15 11 10 8 8 3 4 2 11 11 8 9 10 16 13 8 21 23 18
18 17 16 16 17 16 15 15 13 13 12 13 12 10 11 12 8 10 11 19 23 27 33 28 21 16 17 11 11 10 4 12 12 9 8 9 11 7 14 12 14 24 23 20 23
17 18 18 18 17 17 17 17 16 14 12 12 13 13 11 9 3 11 9 11 19 24 29 32 22 20 19 15 12 15 11 8 3 5 6 9 12 9 8 13 16 17 18 20 25
16 17 18 20 20 19 17 17 18 16 15 14 14 14 14 14 10 18 16 10 16 23 28 31 25 22 22 16 14 15 19 10 6 3 7 9 12 13 8 15 15 19 20 19 24
16 17 18 19 21 21 21 19 18 18 18 16 17 16 17 15 7 15 16 10 14 20 24 29 26 23 20 19 20 15 13 13 9 9 9 14 13 12 12 13 16 20 20 18 22
18 17 17 18 19 21 22 22 21 20 20 20 19 20 21 9 7 13 10 8 11 16 22 26 25 21 22 21 19 19 19 13 15 11 11 15 15 11 17 16 18 18 21 20 21
20 20 20 20 18 18 20 21 21 21 22 22 22 24 27 12 13 18 15 13 14 14 18 18 22 24 22 20 21 22 20 21 19 16 14 18 20 13 19 16 19 18 20 21 20
19 19 20 22 21 19 18 19 19 20 21 22 23 26 26 17 18 15 19 16 15 17 18 18 18 24 23 22 25 24 26 24 20 15 17 17 9 14 16 16 20 21 20 22 21
19 19 20 21 20 20 19 18 18 20 21 22 25 24 14 14 10 12 11 17 15 16 17 21 22 26 30 29 28 27 25 25 23 22 22 19 12 22 22 20 20 21 22 23 23
24 21 21 22 22 22 18 17 17 17 23 21 7 15 3 4 13 14 12 15 16 19 23 24 28 35 34 33 26 24 23 24 19 14 22 24 23 21 32 24 22 23 23 24 24
27 24 22 23 24 22 21 18 19 20 32 26 22 32 25 13 14 20 15 19 22 25 23 23 36 31 30 32 31 29 30 30 20 19 23 23 19 14 32 26 25 23 23 26 25
27 26 24 22 24 23 21 21 20 22 30 30 23 26 26 30 28 25 21 22 23 26 27 31 28 28 32 34 35 32 32 29 24 20 25 21 22 24 29 24 22 22 24 24 28
29 29 25 21 23 20 18 18 14 17 19 34 19 22 26 29 36 31 30 29 26 28 28 31 28 29 36 39 37 38 30 30 27 19 22 22 19 26 27 29 26 25 25 26 27
33 31 27 27 22 21 25 19 11 7 7 4 16 10 17 34 10 28 35 34 36 32 27 33 32 33 37 43 39 39 30 31 30 29 27 26 25 21 31 35 32 27 28 27 28
30 32 30 30 24 20 20 17 9 6 12 11 17 15 21 29 21 12 29 30 29 32 31 30 28 34 36 31 38 34 32 30 31 33 27 28 25 36 30 33 27 31 27 28 29
27 27 29 27 21 25 18 17 9 19 8 17 21 16 25 26 31 21 24 31 35 38 37 34 33 32 32 36 33 39 36 29 24 24 18 33 36 24 29 34 24 33 29 33 31
30 30 27 26 22 20 17 19 23 16 31 9 17 22 26 27 30 31 27 31 34 32 30 34 33 34 33 40 37 40 43 32 21 18 22 38 34 33 29 22 26 29 27 38 29
31 29 25 25 25 24 26 32 26 32 17 18 24 22 30 30 31 31 37 32 35 39 37 31 35 24 37 33 37 41 47 44 40 35 29 34 30 34 30 31 32 17 30 26 35
35 33 20 20 18 25 32 53 28 28 22 22 27 28 35 35 36 37 37 34 32 35 36 35 29 28 29 35 39 45 41 41 47 25 25 30 37 24 31 27 33 28 30 24 19
33 30 17 8 17 25 42 43 38 36 31 32 32 32 37 36 39 41 41 35 33 33 33 34 36 29 31 41 43 37 42 44 40 43 17 17 28 32 31 30 34 25 24 28 22
29 20 1 11 22 26 37 37 36 38 34 35 35 37 37 35 40 38 42 41 34 29 36 36 32 38 37 35 35 43 46 46 38 32 41 40 31 32 23 22 23 23 27 25 31
27 27 18 23 31 31 32 36 35 37 38 40 37 37 38 41 40 39 39 40 38 37 38 34 41 31 37 36 36 45 45 39 43 44 35 28 32 46 29 24 21 19 25 26 11
21 13 12 17 26 29 32 37 37 33 36 35 39 40 39 42 44 41 35 32 32 32 33 34 35 47 31 37 33 39 46 42 44 39 42 44 35 44 31 17 21 23 27 24 18
16 14 13 19 22 17 23 20 28 27 29 24 27 30 24 35 40 42 38 34 32 37 32 31 29 35 44 39 34 35 40 43 42 48 40 42 49 35 45 37 31 32 22 23 24
22 16 16 19 24 29 25 25 24 24 25 25 24 26 23 20 17 29 26 42 40 39 30 39 33 28 35 36 37 35 37 40 41 45 47 46 43 46 41 40 33 29 25 32 34
20 20 23 24 15 19 26 24 24 19 30 20 23 22 25 22 29 26 25 29 31 38 40 35 39 33 35 35 33 37 39 33 36 35 40 40 45 39 39 37 36 28 27 33 32

GFSSW_700_spd_009.txt.gz
Wind_Speed
19 19 18 18 18 18 17 17 16 15 16 15 15 16 17 15 16 19 21 23 33 30 26 22 17 14 11 6 16 20 23 4 10 8 13 10 17 17 8 6 13 7 5 7 20
20 20 19 18 18 17 17 16 16 15 15 16 15 15 16 16 15 13 12 22 27 32 30 25 20 16 15 6 5 17 19 12 1 5 7 15 13 13 18 14 11 11 14 15 19
19 21 21 21 19 18 17 17 16 16 15 16 16 15 16 16 13 8 5 15 21 27 33 30 25 16 13 9 12 14 8 3 5 5 12 16 13 12 15 14 10 9 10 16 14
17 18 20 21 21 19 19 18 17 17 16 16 17 17 17 16 8 7 3 9 17 23 34 35 30 24 17 19 12 16 21 10 1 14 15 15 11 18 9 18 16 10 10 9 12
16 17 17 18 20 21 21 20 19 19 18 19 18 19 20 20 7 17 13 6 13 22 29 36 33 27 19 16 15 17 18 11 11 14 13 17 9 13 13 18 14 11 12 14 11
17 18 18 18 18 19 21 22 22 21 21 21 21 21 22 18 11 12 12 6 12 20 25 31 36 28 19 18 20 15 18 22 9 21 12 14 17 16 17 18 15 11 13 21 15
20 19 19 19 19 19 19 20 21 23 24 24 24 26 29 1 9 14 9 3 11 16 23 26 31 23 19 20 20 21 24 19 21 11 13 16 27 15 21 18 17 13 13 25 28
21 21 22 22 21 19 18 20 19 21 23 26 27 29 26 7 15 22 12 6 10 10 18 23 27 25 23 21 21 23 21 25 16 18 17 19 24 22 20 21 20 18 14 18 26
21 20 21 22 22 22 20 20 18 20 21 23 27 30 20 14 21 14 18 16 11 12 11 17 16 26 26 23 23 24 27 23 19 19 15 19 19 28 21 20 22 19 16 16 21
25 23 22 22 22 21 21 21 21 22 21 21 26 24 15 7 9 15 16 14 20 12 19 21 21 25 25 28 29 24 24 26 26 19 25 24 22 22 25 20 23 23 20 17 22
30 27 25 25 24 23 18 21 23 22 27 24 20 21 15 1 7 7 12 18 21 18 22 22 26 37 33 32 28 25 27 30 23 25 24 25 27 30 31 27 27 26 25 23 20
35 33 27 23 25 24 22 21 22 27 34 28 24 31 16 16 19 18 14 19 20 24 24 23 36 33 27 28 31 31 33 34 31 23 27 26 32 28 38 24 36 35 29 25 23
36 37 32 25 26 23 22 22 21 25 36 34 26 27 19 27 24 22 29 24 25 27 29 33 19 30 30 28 33 36 37 35 28 18 23 29 34 33 36 24 33 35 31 28 26
29 33 35 29 26 24 24 25 18 19 22 38 28 26 30 35 38 33 31 27 29 29 29 31 28 28 28 35 35 40 36 32 31 30 22 27 13 38 24 31 34 33 38 32 28
28 27 27 35 24 23 25 21 14 14 6 8 8 10 14 41 19 38 39 33 34 31 30 39 31 29 36 35 36 42 33 34 33 32 22 25 19 17 33 37 29 35 43 33 31
30 26 25 26 26 27 24 21 17 7 10 7 16 16 16 24 33 10 24 41 36 34 32 35 29 32 34 30 34 33 36 37 38 37 21 30 31 24 33 40 28 30 42 38 32
31 28 25 21 16 24 18 18 12 13 5 11 17 19 18 21 24 24 28 42 48 40 45 40 39 35 32 32 32 35 37 28 20 18 9 30 33 26 30 36 32 39 39 36 32
37 35 26 22 17 21 20 20 20 12 27 9 5 15 25 24 28 32 30 44 47 41 26 36 34 39 33 42 39 39 42 31 13 13 12 28 29 36 37 32 24 37 34 37 29
43 38 32 21 16 22 26 32 17 22 9 13 28 23 26 25 29 29 38 37 42 47 41 32 36 25 37 34 38 40 49 44 32 28 19 29 31 39 36 33 32 39 39 46 41
47 42 29 20 14 21 32 50 31 26 18 16 21 11 14 15 26 37 38 44 36 39 38 38 27 33 27 33 37 44 38 38 45 17 18 27 33 37 24 36 36 39 47 39 25
39 40 24 11 11 30 45 37 39 35 29 30 27 38 38 40 35 32 44 45 42 39 39 41 41 37 28 40 42 42 44 44 31 42 13 9 32 36 31 29 34 42 37 31 29
33 31 6 19 22 30 37 36 29 31 32 39 34 36 40 40 43 43 42 28 33 43 43 44 41 40 49 37 37 38 40 43 34 26 31 31 36 32 33 32 35 39 39 27 32
29 30 10 24 26 27 27 34 33 33 33 32 38 36 38 44 47 45 44 42 32 23 46 43 48 32 36 42 43 44 45 43 47 33 37 15 37 48 41 31 14 15 19 21 30
20 18 11 12 10 22 28 34 31 30 28 26 27 30 32 35 37 49 46 41 39 31 27 23 42 55 33 37 38 35 47 44 43 44 42 52 40 31 39 26 18 25 33 31 28
18 18 12 19 18 16 16 22 22 27 29 23 30 26 25 29 30 29 28 36 41 37 31 25 37 52 43 46 31 47 30 48 50 48 41 40 45 49 40 25 24 25 21 24 24
19 18 20 25 23 23 15 18 18 23 23 26 21 22 18 28 21 30 25 18 26 35 23 26 27 41 37 37 43 44 37 37 49 49 49 47 47 28 32 37 34 25 29 28 24
18 17 20 23 23 20 13 22 15 23 24 14 15 22 22 20 27 35 26 31 33 29 23 25 16 22 31 32 27 31 55 42 31 47 48 47 46 41 43 37 24 24 32 37 35

GFSSW_700_spd_012.txt.gz
Wind_Speed
23 23 22 21 20 19 19 19 18 18 17 16 15 16 15 14 14 18 16 16 27 31 29 24 19 12 12 8 5 4 6 2 10 9 16 21 12 14 5 4 8 8 4 15 23
21 23 24 23 22 21 20 19 19 18 17 17 17 17 16 14 12 12 13 17 27 34 32 27 21 17 16 11 11 11 10 1 4 1 15 16 10 4 9 9 2 9 4 16 20
18 19 20 22 23 23 22 21 20 19 19 19 18 19 18 16 15 9 11 14 18 32 35 31 25 19 21 13 16 14 13 8 11 7 11 18 10 4 9 10 2 1 3 14 17
18 18 18 19 20 22 24 23 22 21 21 20 19 20 19 17 9 5 5 8 16 23 34 35 32 27 25 20 14 17 18 15 3 6 13 22 12 11 6 6 4 2 5 4 12
20 19 18 18 18 19 20 23 24 24 23 23 22 22 21 18 2 10 7 5 13 22 29 37 35 31 28 22 16 19 13 15 21 9 18 23 15 7 11 11 11 7 7 3 11
20 21 21 20 19 18 18 19 20 23 26 27 26 26 26 12 10 11 10 12 15 23 27 34 38 33 29 26 23 15 14 17 14 20 19 28 16 16 17 14 13 8 4 7 12
22 22 22 22 21 20 20 20 19 19 22 26 29 30 28 5 10 12 13 13 17 19 26 32 33 31 32 29 26 21 22 20 15 14 18 28 24 22 15 19 16 10 4 7 12
25 23 23 24 23 22 21 21 21 22 21 21 25 31 18 7 20 24 11 12 15 18 17 24 28 29 29 30 28 21 19 22 17 9 29 35 29 22 18 21 21 16 7 8 13
28 26 24 25 26 24 22 24 23 23 24 23 24 25 19 17 19 16 14 11 14 17 16 20 23 29 28 27 29 24 24 17 17 11 19 35 25 22 24 26 21 17 10 10 14
29 29 28 28 28 27 23 25 26 26 26 25 26 22 17 13 11 11 16 14 14 18 19 19 19 32 33 27 30 28 23 21 20 14 7 33 24 30 30 29 24 20 20 12 16
31 30 28 28 30 30 25 25 27 28 32 28 25 22 12 11 13 12 18 18 17 16 26 24 26 35 36 34 32 29 25 24 25 20 19 29 30 30 31 32 28 24 25 22 9
33 32 30 28 28 28 29 28 30 33 37 28 26 29 19 20 22 18 13 26 29 30 25 25 38 33 28 30 31 32 30 31 29 21 22 30 30 30 34 34 33 25 28 23 16
32 33 29 25 26 28 28 26 28 31 37 36 26 32 25 30 27 25 28 22 26 31 31 34 18 33 30 29 27 32 36 38 32 20 22 26 32 38 37 38 34 30 27 24 23
29 31 31 23 20 25 24 24 24 26 25 37 18 20 24 34 38 26 32 32 27 28 28 30 29 18 33 36 29 35 44 39 34 29 26 14 10 30 38 41 40 32 32 32 28
32 30 27 29 16 22 22 21 21 19 6 11 4 10 10 33 26 35 33 36 35 31 29 29 29 33 33 34 36 43 34 37 36 34 33 34 19 31 31 47 47 41 38 29 28
37 35 32 26 25 19 20 22 18 9 9 6 9 12 16 18 38 16 40 39 37 31 33 34 26 21 32 28 27 32 30 31 33 36 21 34 31 33 30 33 41 41 38 27 26
41 38 35 29 21 25 16 18 12 12 7 7 9 14 19 14 35 19 41 47 43 38 41 34 37 33 28 30 30 32 33 21 14 16 11 32 31 32 29 30 38 37 39 39 29
43 41 32 27 26 24 19 19 19 7 25 17 17 11 19 18 18 36 28 51 47 37 19 37 28 42 36 43 36 37 40 28 10 5 8 33 16 32 32 31 31 31 33 37 31
44 38 30 26 25 26 23 31 16 22 10 19 29 15 16 20 16 27 40 43 44 53 37 18 35 38 36 39 37 41 40 34 40 33 13 20 25 37 33 29 35 36 36 39 39
44 40 20 20 24 24 28 40 25 23 17 12 11 3 4 7 9 7 21 25 43 36 46 46 23 22 28 36 39 39 34 31 29 14 18 15 19 36 35 38 30 40 39 38 42
35 35 7 19 29 26 37 38 40 30 27 16 16 22 24 28 22 26 15 19 12 33 36 43 44 41 27 38 39 44 46 37 37 32 11 5 33 44 38 38 29 26 34 41 42
27 26 7 21 24 18 25 34 28 27 32 33 28 27 27 33 36 32 25 24 8 15 18 45 40 43 44 40 34 35 46 44 32 25 36 42 48 19 26 31 35 33 30 43 46
28 22 4 7 8 20 20 14 14 20 23 24 21 21 24 24 20 15 17 20 26 29 11 9 41 36 38 45 48 45 36 53 53 40 42 20 24 39 42 34 26 17 18 37 46
25 21 19 8 3 8 14 19 21 17 19 22 24 25 27 27 24 20 26 18 17 17 23 26 34 32 34 46 42 34 49 38 51 44 38 56 35 34 34 36 37 37 26 21 38
20 19 17 21 17 22 22 11 13 9 7 13 20 20 19 24 29 33 34 34 31 29 19 19 24 29 39 37 47 46 40 48 45 54 51 51 40 43 38 37 17 12 25 24 27
19 17 19 20 20 18 15 12 13 8 12 10 10 20 22 19 16 25 29 32 30 20 14 14 16 16 27 30 46 51 45 47 44 40 56 49 46 39 39 40 42 30 25 32 34
15 14 18 24 21 22 13 8 14 14 1 7 11 15 12 21 23 23 24 29 33 28 13 16 12 23 12 19 36 41 61 49 45 46 42 49 50 38 36 32 31 33 28 28 27

GFSSW_700_spd_015.txt.gz
Wind_Speed
19 21 23 24 24 23 22 20 20 20 19 17 16 15 13 12 12 13 13 13 21 26 27 23 19 15 12 7 6 7 11 1 1 3 7 13 13 12 5 4 8 11 7 14 25
19 19 20 20 21 23 23 22 20 20 21 20 18 17 15 13 12 11 10 16 25 31 32 28 23 20 17 9 10 16 11 5 7 2 8 9 11 6 7 4 6 8 5 18 21
19 19 19 19 19 20 21 23 23 22 22 22 21 19 17 15 12 10 9 14 22 28 34 28 25 24 20 15 15 15 12 4 2 10 9 11 16 11 6 8 6 1 2 14 19
21 21 20 20 19 19 19 21 22 23 24 24 23 22 19 16 6 1 4 10 18 26 34 36 31 28 25 19 15 19 10 7 2 8 16 13 15 16 6 5 4 3 5 10 14
22 22 22 22 21 20 19 19 20 21 23 25 25 26 23 19 3 13 12 8 13 26 32 39 35 29 28 22 21 23 14 15 11 9 22 24 20 16 7 7 4 3 3 4 10
24 24 23 23 22 22 22 21 20 21 21 23 25 27 27 16 12 17 12 14 10 20 28 33 34 31 28 28 26 24 18 17 18 16 21 24 24 20 15 13 11 2 3 5 10
24 24 25 25 24 22 22 23 23 21 22 23 24 25 24 6 11 13 16 16 19 18 27 32 30 32 33 31 29 27 27 24 19 10 18 15 32 29 20 15 15 7 6 7 12
26 25 26 26 26 25 23 24 25 24 23 22 23 25 18 9 18 22 18 17 18 23 26 28 28 34 35 34 29 29 28 26 15 13 12 30 35 27 26 19 16 14 11 8 13
27 28 28 27 28 27 26 27 27 26 25 24 25 24 20 14 18 21 22 17 16 21 25 25 27 33 36 33 31 32 29 25 21 11 15 30 35 33 30 22 16 17 16 8 11
26 25 27 29 29 28 29 28 29 28 28 27 27 23 17 14 15 19 18 21 22 24 23 25 26 33 38 38 33 30 29 28 25 5 7 25 34 37 39 25 18 17 19 10 11
26 25 24 25 27 28 29 30 30 32 33 27 28 26 10 13 18 18 21 26 24 30 31 28 29 41 41 38 37 33 23 29 29 17 9 9 31 33 37 27 21 22 25 18 4
27 26 24 25 24 24 28 29 32 32 37 29 28 30 21 20 21 18 24 33 34 36 35 30 42 37 32 34 33 35 32 33 31 28 18 14 16 29 42 31 19 17 24 23 14
33 31 26 23 23 22 22 25 28 29 36 39 31 30 26 35 33 26 28 35 36 35 38 41 24 35 34 35 32 36 37 37 33 25 17 18 23 21 40 34 29 28 23 23 18
38 36 32 24 23 22 20 21 21 23 23 34 23 17 21 29 42 32 34 33 37 37 34 32 35 21 37 37 36 36 40 36 35 27 20 11 5 25 37 42 39 32 28 30 27
41 40 38 34 28 23 19 20 17 15 7 7 11 15 11 18 25 33 40 36 37 35 38 27 35 35 29 45 39 41 37 35 33 26 27 32 13 17 32 43 43 34 32 29 29
40 39 39 36 29 30 18 16 14 8 10 4 8 9 11 10 20 14 44 41 37 29 28 32 19 26 34 26 37 38 29 26 31 28 19 39 23 33 31 40 38 35 36 31 27
39 36 33 34 32 31 18 14 10 12 6 8 10 13 14 13 21 23 40 51 44 39 39 33 36 23 20 32 26 30 30 11 8 10 12 31 28 35 29 28 33 33 28 32 33
42 37 29 38 30 25 18 18 17 7 22 11 13 6 8 15 19 25 33 53 47 40 24 33 20 41 34 34 34 41 37 14 8 5 10 25 19 31 34 28 26 34 30 26 35
42 35 27 32 26 22 21 29 14 21 13 17 22 17 14 13 13 26 23 46 48 48 32 24 31 30 38 40 37 32 41 41 29 22 7 11 27 43 40 27 25 36 35 33 35
39 30 18 19 20 19 27 36 25 16 16 10 9 7 10 14 7 7 22 13 35 37 49 33 16 25 26 33 40 41 37 23 26 11 13 9 24 22 29 38 34 33 28 37 35
32 27 14 16 18 17 21 30 30 17 14 15 14 12 12 14 8 8 9 5 13 27 35 49 40 36 25 36 43 49 49 36 35 31 9 9 20 36 35 29 31 36 29 23 29
28 21 16 14 12 10 9 16 17 25 30 20 21 24 20 20 16 7 10 8 15 10 14 26 22 41 42 29 30 41 52 45 27 27 36 28 26 9 21 47 42 35 31 30 33
24 18 17 16 9 10 9 9 6 9 22 14 10 15 16 12 9 8 12 18 16 12 3 10 11 17 21 37 38 33 42 51 54 42 42 19 20 31 37 29 18 33 33 24 23
23 19 19 10 7 21 21 13 16 12 11 11 8 11 16 14 12 10 12 13 12 11 6 13 14 15 14 20 21 32 39 46 55 41 42 49 37 32 32 25 29 31 28 24 18
19 20 15 16 15 15 16 15 14 9 6 6 7 7 9 10 15 14 16 26 31 26 22 19 19 20 25 27 33 34 28 50 54 54 41 45 45 43 49 47 36 25 25 30 26
18 20 17 17 17 17 13 8 9 10 7 3 8 7 5 9 11 15 15 17 22 24 18 18 15 19 27 24 25 35 44 45 53 57 55 47 45 35 43 41 40 40 38 24 28
15 15 16 19 20 19 14 13 13 12 12 6 8 9 8 11 13 18 19 18 15 14 12 19 21 19 13 15 23 32 57 46 45 48 44 54 47 41 47 44 32 29 35 34 27

GFSSW_700_spd_018.txt.gz
Wind_Speed
18 18 17 17 17 18 20 21 21 20 18 16 16 15 13 11 12 12 9 10 20 26 28 25 21 17 13 8 6 4 6 5 1 4 1 5 3 5 7 5 9 13 6 11 20
20 20 20 19 18 17 17 17 19 20 20 18 17 17 16 14 13 12 11 17 24 29 32 29 24 20 16 11 11 9 9 0 8 8 9 7 5 1 7 8 9 9 8 17 19
21 21 20 20 20 19 18 17 17 17 18 19 19 18 18 16 13 14 13 15 20 22 28 26 25 23 20 15 15 15 12 7 4 6 13 7 10 6 2 9 10 6 5 9 16
20 21 22 22 21 20 20 18 18 17 17 17 19 20 19 17 8 6 5 9 15 22 27 32 33 30 26 20 18 18 12 8 3 9 9 12 16 13 4 6 8 5 4 4 11
22 22 22 22 22 22 21 20 20 19 18 17 17 20 20 19 5 14 12 12 15 22 29 35 36 31 28 23 20 21 11 11 8 10 10 14 17 23 10 8 8 7 3 6 9
24 24 24 25 24 23 22 22 22 21 20 19 18 19 19 14 12 22 16 17 13 21 28 34 36 31 27 27 25 22 19 17 16 12 16 19 19 21 18 13 10 3 5 4 11
26 26 26 25 26 26 24 23 23 22 21 21 21 21 18 2 12 20 18 16 15 12 22 28 32 32 30 27 29 24 24 22 21 16 20 10 23 22 23 21 15 11 6 5 11
28 28 28 27 27 26 26 26 24 23 22 23 23 23 21 13 15 22 20 21 22 19 16 17 22 29 32 32 28 21 25 27 24 22 18 16 28 16 25 20 19 16 12 8 9
26 26 27 28 29 29 29 26 25 24 24 23 24 24 22 14 17 22 24 19 19 20 23 25 26 31 34 33 29 30 25 27 27 21 19 20 28 24 22 27 23 20 19 10 11
27 26 25 27 27 28 28 27 27 26 26 25 24 22 16 18 12 25 26 26 25 22 28 33 32 36 40 40 36 29 31 33 28 18 20 20 23 28 24 26 25 22 24 15 7
32 32 29 29 29 29 25 26 26 27 29 25 23 20 18 12 12 17 30 32 32 29 38 39 39 49 47 44 41 34 27 30 30 20 17 8 17 27 21 26 29 29 28 22 4
37 35 32 32 30 32 29 25 25 27 30 25 25 25 21 22 22 25 24 39 42 42 38 35 50 42 38 37 38 38 35 32 28 26 21 20 17 16 25 26 30 33 28 26 14
39 40 37 33 32 31 29 27 25 27 32 33 28 29 27 31 30 28 30 39 44 44 46 46 23 39 35 35 38 39 39 40 30 9 16 18 21 23 25 23 33 37 32 26 24
41 41 40 35 32 28 27 26 23 22 23 24 22 19 25 28 38 35 33 36 43 45 43 40 38 13 40 39 38 41 42 35 29 24 16 18 8 17 12 18 25 31 36 28 31
39 40 38 38 34 30 23 22 18 14 7 6 10 12 10 13 21 38 38 38 46 44 43 37 38 37 33 46 39 41 37 35 31 26 20 25 15 23 19 18 26 27 34 27 27
35 35 40 36 30 29 19 16 11 7 10 6 9 9 13 13 17 16 50 39 39 39 37 40 24 27 42 33 40 38 13 21 28 22 13 36 21 25 33 24 18 24 31 25 23
36 35 38 37 33 24 17 13 10 11 4 6 10 11 12 13 18 20 39 53 44 36 40 34 39 24 24 42 27 35 33 6 5 8 10 24 24 38 20 33 25 19 25 25 26
38 34 34 35 32 22 13 18 16 5 16 8 10 10 9 14 19 20 14 56 46 42 28 34 19 40 23 33 41 34 36 15 8 5 8 17 21 24 33 33 23 22 26 26 28
34 29 29 27 28 20 15 25 8 8 14 16 19 14 10 13 14 25 17 45 44 41 25 28 32 13 37 30 29 32 41 42 12 5 4 12 34 38 32 33 34 31 25 21 24
32 26 22 18 21 19 18 28 19 10 11 7 7 8 7 12 10 16 17 21 36 39 37 24 13 33 24 38 34 33 34 25 30 7 6 6 16 18 28 40 39 32 31 26 24
27 23 21 19 21 13 15 16 24 19 16 5 6 6 5 5 8 10 9 12 25 31 34 36 20 9 31 37 43 45 39 24 23 23 6 1 14 21 28 26 27 41 32 26 22
25 21 16 18 13 5 6 16 21 26 21 13 12 12 12 15 8 5 7 4 7 14 14 23 22 31 25 25 29 38 49 46 23 22 29 20 20 5 9 29 39 25 32 36 33
23 17 17 16 11 12 10 13 16 10 13 12 9 10 7 6 5 8 13 11 11 8 3 7 9 5 16 36 29 30 46 46 48 38 38 16 19 41 16 9 10 33 32 32 35
23 17 18 7 14 14 15 11 10 15 10 4 6 9 8 8 5 5 10 6 9 5 5 2 5 4 6 11 16 34 37 34 48 41 42 51 44 29 21 28 30 24 20 29 39
21 19 20 16 11 13 12 12 9 8 8 8 6 9 5 8 8 12 18 19 17 15 14 8 6 10 10 17 20 22 27 36 36 47 42 42 54 49 46 40 34 28 21 16 25
20 20 21 19 17 17 13 9 10 12 12 8 5 1 5 4 7 9 10 14 17 16 15 16 10 13 22 16 22 30 33 31 32 33 35 54 47 40 43 43 44 41 40 37 31
17 17 18 22 20 19 15 12 15 12 9 9 7 5 5 6 10 11 14 15 16 15 14 12 6 11 14 17 19 27 33 37 40 39 37 42 40 43 44 42 33 36 34 31 26

GFSSW_700_spd_021.txt.gz
Wind_Speed
15 15 15 15 15 15 14 13 14 16 17 16 15 16 15 14 14 12 7 11 20 25 24 24 21 17 13 10 7 6 5 1 2 6 5 3 1 7 3 5 11 17 10 14 20
17 16 16 16 16 16 15 13 12 12 15 17 17 16 15 15 15 13 12 18 22 24 29 27 24 20 18 14 11 9 6 4 9 9 13 4 6 1 5 6 11 9 8 17 18
18 18 18 17 16 16 16 15 13 12 12 14 16 17 17 15 15 14 14 17 17 19 25 27 25 24 21 17 15 11 10 8 2 5 11 9 5 6 1 7 7 7 1 11 18
21 20 20 19 19 18 17 16 16 14 13 12 13 14 17 16 8 9 10 13 18 22 25 32 31 29 25 21 17 15 12 9 6 3 6 8 5 9 5 5 6 4 4 7 13
24 24 24 23 22 20 19 18 17 16 14 13 14 14 15 16 10 11 14 12 15 21 27 30 33 32 28 24 21 17 14 12 9 6 4 10 11 9 8 9 5 7 5 7 15
24 25 25 26 25 24 22 21 19 16 15 14 15 16 15 12 14 21 22 17 13 17 24 29 30 31 28 27 25 20 17 15 14 10 8 10 16 14 9 16 11 5 5 11 12
23 24 25 26 26 25 25 24 20 19 18 17 16 17 15 1 11 21 20 15 16 11 21 24 27 31 30 29 27 22 23 21 19 15 14 14 19 13 12 18 15 11 7 11 15
25 24 25 27 27 27 26 25 24 21 21 21 19 19 17 13 14 20 22 21 20 16 13 16 25 27 30 27 23 23 26 23 24 20 17 17 19 8 8 16 21 16 12 9 13
30 29 29 29 30 29 27 25 23 23 23 23 22 21 20 16 19 21 22 22 24 22 17 20 27 33 33 31 24 24 17 24 23 21 17 17 19 15 18 16 21 19 17 13 13
32 31 32 33 32 32 30 28 25 23 24 24 24 20 19 16 12 26 28 26 27 27 28 29 31 34 36 30 30 21 23 21 21 13 13 18 23 19 22 16 19 24 21 18 14
37 35 32 35 35 35 30 29 27 26 23 25 21 11 14 13 14 19 33 32 30 33 38 37 38 49 42 41 32 19 25 17 20 23 22 21 15 15 14 15 14 24 26 21 12
41 39 36 36 35 37 33 29 28 27 27 24 24 27 26 19 19 21 33 41 41 43 38 38 51 39 39 40 39 37 32 23 24 23 20 18 23 15 13 16 17 22 26 23 17
42 42 40 35 34 33 29 27 26 27 31 29 27 31 30 33 28 27 30 42 44 45 45 44 25 40 42 40 38 39 38 30 22 13 20 24 25 30 25 17 18 19 22 24 23
42 41 41 35 30 28 26 24 22 22 21 21 23 20 28 42 44 34 35 41 47 51 44 36 35 13 44 40 39 36 38 28 27 18 23 14 21 22 22 26 25 23 24 24 29
41 42 41 37 31 26 23 18 14 10 7 5 10 12 18 29 28 45 40 42 42 41 49 41 38 40 29 45 37 32 25 33 24 22 19 24 19 26 22 25 22 18 17 21 27
40 40 40 37 31 23 18 12 9 6 10 7 9 12 15 18 22 22 53 43 41 35 36 35 31 31 42 24 37 25 14 19 18 18 21 32 23 32 28 34 28 19 23 22 22
40 37 35 35 28 19 14 12 9 10 3 5 10 13 15 17 22 21 45 54 39 34 34 35 30 28 30 30 27 31 22 12 13 15 17 23 24 40 20 31 31 28 20 24 22
37 36 32 27 23 15 12 16 14 3 11 10 10 14 11 16 20 22 28 44 39 30 28 33 29 38 31 33 31 37 35 17 14 13 14 20 21 26 34 38 18 28 22 24 25
32 27 25 20 19 14 11 17 4 5 11 14 13 10 10 14 12 21 25 38 38 31 22 32 30 15 39 34 32 29 41 39 13 6 6 23 29 30 23 27 29 36 28 23 23
30 24 21 20 17 13 9 15 8 7 6 4 5 4 4 11 12 16 19 24 36 37 36 20 12 29 23 33 28 28 33 22 25 14 12 12 15 25 27 40 36 34 32 25 21
30 25 18 18 18 12 5 11 18 17 13 5 6 9 4 1 5 10 11 12 31 32 38 31 21 12 28 34 35 32 35 26 23 16 8 8 15 17 25 26 29 37 39 33 25
29 22 18 18 12 11 9 11 14 18 18 15 11 10 9 9 2 3 8 9 16 19 26 31 23 23 24 23 35 37 33 36 23 14 27 15 14 4 10 21 27 24 26 37 34
28 19 21 14 13 14 10 8 8 10 11 7 11 8 5 6 3 6 5 7 6 7 14 23 21 20 18 18 28 35 38 34 33 22 25 18 7 21 4 12 15 25 31 25 29
26 21 21 14 17 13 14 11 10 11 7 9 8 9 11 9 9 4 3 3 6 6 8 15 13 26 23 25 23 24 25 36 38 37 34 39 28 17 18 27 21 13 10 26 26
24 20 20 20 17 14 14 12 11 13 7 7 3 6 10 7 13 16 18 10 6 4 5 4 3 11 15 19 19 20 27 25 29 39 38 38 41 35 38 31 21 16 23 20 21
22 21 20 20 20 15 16 12 10 14 15 12 7 7 5 4 3 8 11 13 13 11 8 9 4 8 10 15 13 17 28 32 29 32 28 36 38 27 22 26 30 35 39 36 22
23 20 20 20 19 14 19 17 13 13 7 12 14 17 2 5 7 8 11 11 11 12 10 10 5 4 8 9 14 22 37 26 29 27 30 39 33 36 38 36 33 22 23 24 25

GFSSW_700_spd_024.txt.gz
Wind_Speed
15 14 14 14 13 12 12 12 12 12 14 17 18 17 16 17 16 14 6 10 19 22 23 23 22 18 14 12 8 5 3 5 5 5 3 1 3 3 3 7 11 15 14 17 24
18 17 16 16 15 14 12 12 12 13 12 13 16 17 17 17 18 14 9 17 22 21 25 26 24 20 17 15 12 8 6 6 8 6 5 0 4 2 5 8 13 13 13 17 21
19 19 18 18 18 17 15 13 12 13 14 12 12 15 17 18 18 16 16 17 17 18 21 23 25 23 21 18 16 11 9 8 4 3 4 3 5 2 5 8 9 9 9 16 20
21 21 21 21 20 19 18 18 16 14 13 14 13 13 14 16 9 14 16 17 19 19 23 28 31 29 23 22 18 14 12 10 7 2 0 4 2 5 2 4 9 5 6 11 17
21 21 22 22 22 21 20 20 19 17 16 14 14 14 14 16 14 15 13 15 19 23 25 29 32 29 25 22 18 20 12 12 11 7 6 5 4 4 8 7 7 5 7 11 17
23 23 23 23 22 22 21 21 19 20 19 17 15 15 15 13 14 25 21 17 12 17 21 26 29 27 20 19 22 14 18 14 11 9 9 6 6 7 9 12 10 5 6 10 16
25 26 26 26 25 24 23 21 20 21 22 21 19 18 16 6 12 21 22 18 14 11 16 20 23 30 20 20 24 23 18 15 15 12 10 7 10 12 11 15 12 10 5 11 18
27 27 28 28 28 27 26 24 22 21 21 22 22 22 20 15 19 20 24 23 20 18 14 18 24 27 20 17 18 22 21 22 18 18 15 11 8 9 9 14 18 14 11 8 18
31 30 31 31 31 29 28 27 25 23 21 22 23 23 23 19 22 21 23 24 23 23 20 23 25 25 25 21 19 21 23 26 20 16 14 16 11 5 11 11 15 20 17 12 11
32 31 31 34 34 32 30 28 27 26 23 22 23 21 23 15 19 26 26 30 30 30 25 28 28 26 31 31 35 28 27 23 24 22 20 18 17 12 13 15 16 18 20 18 14
37 35 33 34 33 32 30 29 27 28 26 22 21 15 23 19 23 24 32 32 33 35 34 29 30 42 37 34 30 25 27 27 23 21 16 19 17 11 14 16 18 18 20 21 16
40 38 34 34 32 32 29 26 26 28 31 24 23 26 28 22 22 27 34 40 40 42 32 28 42 31 29 29 30 31 26 30 23 18 18 21 19 16 15 17 19 19 11 18 21
42 40 36 33 31 28 27 26 22 26 31 30 29 31 28 35 29 32 36 38 40 38 41 37 18 30 29 31 32 34 34 29 22 18 20 20 24 20 20 17 16 20 20 13 20
44 44 40 34 33 27 24 22 19 19 17 19 28 25 31 37 40 34 34 40 32 39 36 36 30 24 33 34 33 35 32 28 27 25 24 19 23 24 25 22 22 20 20 19 23
45 46 41 37 31 27 23 16 11 7 7 5 14 16 23 39 21 42 34 39 35 32 39 36 35 32 36 35 32 32 24 27 29 28 26 30 24 27 20 22 25 25 23 22 23
44 45 43 38 29 22 18 12 8 5 10 6 8 10 12 30 19 18 40 37 33 31 33 35 21 33 28 26 27 23 21 22 23 27 28 36 34 33 31 28 24 24 22 17 20
39 40 39 35 27 16 13 9 8 13 1 4 5 6 12 15 27 23 38 46 39 39 45 34 38 25 26 27 25 29 24 15 15 23 22 31 35 37 19 30 26 26 23 22 17
38 38 33 29 22 15 13 7 18 2 6 10 7 12 12 17 20 27 26 45 46 36 27 38 31 42 34 37 29 36 35 21 16 14 19 27 34 39 36 29 16 30 24 23 20
37 32 30 24 22 15 12 13 17 7 11 16 16 9 15 11 12 22 28 36 49 42 32 34 38 33 28 35 36 36 46 39 8 10 12 28 31 26 15 31 33 31 20 24 21
37 32 25 23 19 12 6 11 7 11 16 9 9 4 5 7 9 13 22 22 38 44 30 26 31 25 35 31 32 29 34 35 31 17 18 16 26 21 25 31 25 29 28 24 26
33 23 25 21 16 8 6 10 13 12 15 8 8 9 8 7 6 10 13 10 25 37 34 23 23 33 28 42 39 39 32 40 31 29 13 12 16 22 25 22 27 27 26 28 24
29 16 22 17 10 10 9 12 14 10 12 12 15 12 10 9 6 7 8 5 17 15 28 33 22 18 37 35 34 39 35 42 29 32 35 21 9 7 8 17 22 22 24 26 25
28 23 20 14 9 13 13 11 13 13 14 9 7 12 13 9 5 4 4 2 9 9 22 25 28 26 20 31 29 42 41 38 37 26 31 22 7 6 7 13 15 19 19 24 30
27 13 14 11 14 14 14 12 12 12 11 13 11 11 13 17 13 4 2 3 4 3 17 30 23 38 30 30 31 40 41 38 41 39 30 28 23 11 9 7 10 9 12 13 19
24 13 19 15 11 13 12 11 13 13 12 10 13 10 7 7 16 14 9 4 3 3 1 13 25 20 25 15 15 30 41 42 43 41 38 30 28 26 14 13 11 10 10 16 18
20 21 20 18 14 14 10 9 11 13 15 11 12 16 13 8 7 10 5 6 5 4 1 3 14 13 23 15 11 16 21 28 38 41 38 36 31 20 21 25 28 22 18 20 23
22 18 18 19 13 13 10 13 16 15 8 9 16 17 15 11 10 11 13 14 14 11 7 4 9 11 23 19 16 23 30 28 28 30 30 35 29 26 26 24 24 25 25 26 32

GFSSW_700_spd_027.txt.gz
Wind_Speed
16 17 16 16 16 15 14 14 14 14 13 16 17 19 19 18 18 18 10 10 16 20 24 25 22 18 13 13 14 12 12 6 5 11 11 8 6 7 6 11 11 7 9 17 24
17 18 18 18 18 17 15 15 15 15 15 14 14 15 19 20 19 17 9 17 18 21 25 28 26 22 19 16 16 16 10 12 8 8 7 5 7 6 9 10 12 13 15 16 24
18 18 18 19 19 18 19 17 16 16 15 15 14 14 16 18 20 16 18 18 15 18 21 23 22 22 21 15 19 14 15 4 8 8 6 9 7 9 8 8 12 16 13 15 21
18 19 19 19 19 19 19 19 18 17 17 16 15 16 15 16 6 22 15 19 17 17 22 25 26 27 23 22 18 18 12 5 8 5 6 4 9 8 4 9 12 13 7 13 18
21 21 21 22 20 19 18 18 18 19 19 18 16 18 19 19 18 18 11 18 22 22 24 28 31 29 28 22 17 21 12 12 8 8 6 3 6 6 8 8 12 13 9 17 21
23 24 24 24 23 22 21 19 19 19 20 20 19 20 21 21 16 24 23 16 18 22 23 28 30 29 24 21 24 17 20 14 12 11 9 7 8 10 10 11 15 5 10 17 24
26 27 26 26 26 25 23 22 20 19 19 19 20 24 24 14 19 22 23 20 16 15 24 26 25 29 24 23 21 23 14 20 20 16 12 11 11 13 14 17 17 8 9 18 22
27 27 29 29 28 27 26 25 24 21 20 20 20 23 27 19 21 20 22 25 21 18 21 21 26 25 29 17 21 25 24 25 22 19 17 14 15 17 17 18 20 19 14 16 21
30 30 30 30 30 30 29 27 26 25 22 21 21 21 26 25 25 22 22 26 24 21 21 21 25 26 29 26 25 26 28 28 23 24 21 20 14 17 18 17 17 19 20 19 22
34 34 33 33 32 30 30 30 28 27 25 23 23 19 23 14 23 29 27 26 26 24 22 25 28 30 32 37 37 30 32 28 28 24 23 21 21 11 19 17 17 20 21 22 22
36 36 36 35 33 32 29 28 27 30 26 21 18 19 18 18 25 24 31 30 30 29 30 31 33 45 39 39 33 29 27 30 25 28 24 24 23 22 15 18 18 20 23 23 23
36 37 37 38 37 33 29 27 25 28 36 30 26 30 27 23 21 26 32 34 37 41 32 28 44 33 31 33 35 34 33 31 29 21 20 23 26 23 19 19 20 22 23 24 23
37 38 37 40 39 33 34 27 24 26 35 36 30 33 29 32 29 26 36 38 39 41 42 40 21 31 31 33 36 38 37 32 30 26 25 24 26 26 23 20 21 22 22 23 26
36 37 38 36 40 31 21 30 25 21 18 25 27 30 36 33 39 30 35 39 34 44 41 36 31 23 35 35 35 37 35 32 25 28 30 29 25 30 25 24 24 23 26 25 26
35 35 38 37 36 31 27 21 18 11 7 5 13 18 21 41 14 41 37 42 34 35 41 45 36 32 35 37 33 34 26 32 31 30 28 29 33 29 33 33 29 25 25 26 25
35 37 37 37 29 25 23 16 6 7 11 8 7 9 16 32 25 16 40 42 37 31 33 36 28 32 30 30 28 27 24 25 28 32 30 37 33 33 30 28 30 27 27 25 24
37 36 36 34 29 23 16 11 11 16 3 5 3 4 15 19 31 28 41 46 51 46 44 37 41 30 29 29 31 28 29 21 21 24 17 38 39 38 31 28 28 28 29 28 24
35 36 37 35 28 20 12 9 18 16 10 14 16 16 15 20 25 33 36 43 49 44 35 39 36 45 33 39 36 36 38 27 21 18 19 34 40 43 34 20 30 27 28 28 25
33 30 16 28 26 17 10 15 20 17 17 22 22 18 18 21 20 35 39 43 45 48 47 40 44 29 42 35 38 34 46 39 29 30 20 32 36 31 30 33 28 29 30 29 27
34 20 11 29 23 11 11 17 16 15 16 17 18 15 18 6 20 23 40 34 39 47 42 37 30 38 29 34 37 34 37 36 33 20 19 19 20 32 27 25 38 34 27 34 28
29 14 21 24 13 13 14 14 17 18 15 16 22 24 19 21 16 20 24 14 21 30 46 45 31 23 38 49 44 46 36 41 33 31 13 11 17 21 28 22 29 34 36 30 28
23 13 21 19 12 13 13 15 16 16 15 17 20 21 21 18 21 14 15 5 14 27 30 48 30 35 46 39 36 38 42 40 33 33 32 19 2 5 16 19 21 26 26 32 29
20 14 15 16 15 14 15 14 12 9 14 9 13 18 16 15 12 11 7 8 8 6 13 31 35 29 30 36 39 45 42 37 40 29 31 22 11 7 8 8 20 22 22 25 28
18 12 16 8 15 14 15 12 14 11 11 12 12 13 19 18 16 17 15 5 6 6 19 25 31 38 27 41 40 42 43 42 37 39 29 32 23 10 8 13 16 18 18 22 24
10 11 15 11 15 15 12 15 14 11 10 10 14 15 12 11 17 9 10 10 3 8 5 13 24 33 35 22 30 39 44 43 44 38 38 23 26 16 13 13 16 16 15 14 13
15 14 13 15 13 13 14 12 15 15 13 13 12 15 14 14 15 21 12 9 5 4 2 11 19 26 31 33 16 20 37 44 43 39 36 31 21 25 14 15 13 12 12 12 12
20 14 14 15 14 14 14 14 17 18 8 9 14 16 13 16 12 17 19 16 15 11 6 4 13 21 26 31 19 23 29 33 37 40 34 36 31 18 16 15 16 15 14 13 13

GFSSW_700_spd_030.txt.gz
Wind_Speed
15 16 17 17 17 17 18 18 18 18 17 17 15 14 18 19 20 20 14 12 16 17 24 25 23 19 14 16 9 6 24 24 9 14 6 10 14 6 13 19 9 7 6 19 26
15 15 16 16 17 17 18 18 18 19 18 16 17 16 16 18 20 17 7 17 19 18 25 28 25 21 18 18 17 15 15 7 6 2 6 7 8 12 15 15 11 5 14 23 25
17 17 17 16 16 17 16 18 18 19 19 19 17 18 18 16 18 14 20 19 17 15 20 24 23 21 21 19 16 16 12 11 5 2 3 5 11 15 13 15 17 11 14 20 22
19 20 20 20 19 18 17 17 18 19 19 19 20 19 19 19 5 15 13 19 18 15 21 24 23 25 25 23 17 17 15 11 11 5 4 8 9 10 10 17 16 11 12 14 18
23 23 23 23 21 21 19 19 19 18 18 19 20 22 21 22 18 20 9 17 22 20 23 27 28 28 29 22 19 19 21 15 9 8 5 4 10 9 19 19 15 15 16 23 14
26 27 27 27 26 25 22 21 20 20 19 20 19 23 25 25 15 25 22 16 20 21 21 27 29 27 25 24 22 19 18 22 15 15 10 5 8 4 22 17 16 20 17 27 22
27 28 29 29 30 29 28 25 23 22 21 21 21 23 27 18 17 14 23 18 18 20 23 23 24 27 27 25 23 21 24 19 19 14 13 12 12 9 20 18 19 21 20 27 27
29 30 30 30 30 29 30 29 26 25 24 23 23 24 30 21 25 22 22 19 21 18 22 19 24 24 26 23 23 27 23 26 20 20 17 13 15 17 13 26 23 23 23 25 28
30 32 32 33 32 32 31 30 28 28 26 25 26 26 27 24 27 22 24 19 22 21 20 20 23 27 26 30 29 27 31 28 24 21 19 20 17 19 23 23 26 24 24 25 27
32 34 37 37 38 39 35 32 30 28 28 27 29 25 21 18 17 26 26 22 24 22 22 25 27 30 32 36 40 30 29 27 27 25 24 25 19 19 23 28 29 27 25 26 27
31 33 35 35 37 42 41 35 29 31 28 27 18 27 9 8 17 20 30 26 27 27 31 30 33 44 42 37 34 28 28 29 27 25 32 28 26 19 26 33 29 28 25 27 27
31 30 31 33 35 35 39 38 36 32 44 35 36 38 32 19 18 22 27 34 36 39 32 30 47 36 32 34 33 35 31 32 28 27 25 30 29 23 20 14 27 28 27 26 26
31 31 30 33 34 34 31 35 39 36 42 51 38 40 31 34 34 26 32 37 40 40 40 44 28 32 33 35 36 39 37 32 30 26 23 27 30 27 22 24 19 28 15 27 27
31 31 32 30 33 31 27 34 32 33 27 36 24 21 35 37 44 32 33 38 36 44 42 39 36 29 36 37 36 39 37 32 30 30 31 28 22 27 26 29 24 27 27 29 30
34 32 30 30 28 26 31 31 23 18 8 8 11 7 8 44 20 42 35 39 43 36 44 49 35 38 34 40 34 36 30 33 31 32 29 30 32 26 32 32 29 27 27 21 26
35 33 29 26 25 25 28 21 10 7 11 8 3 12 8 29 30 5 42 40 39 35 36 42 35 34 33 28 32 28 27 29 31 32 26 36 33 35 34 37 32 30 27 29 28
36 36 29 24 26 28 25 14 10 13 13 22 26 21 14 16 33 28 38 46 52 49 46 39 44 37 34 30 31 31 32 23 19 23 16 36 36 30 29 41 31 35 30 30 30
35 34 30 27 22 26 16 13 14 16 25 24 26 28 20 15 18 36 34 47 49 45 33 41 42 47 36 44 36 39 40 27 22 17 19 37 40 43 38 25 27 40 36 32 31
39 27 6 13 24 15 11 15 7 21 23 29 30 19 21 18 14 21 41 44 47 50 52 40 43 38 43 36 40 38 46 39 30 28 23 32 40 32 35 35 30 26 31 32 32
41 19 2 16 23 11 14 22 17 16 24 23 23 23 29 31 28 24 21 38 39 43 44 43 29 38 40 34 38 41 38 35 36 20 19 26 34 39 35 41 37 28 28 31 35
36 13 12 28 12 13 18 20 22 19 20 18 21 24 26 29 24 27 12 18 8 33 40 46 41 32 39 51 44 42 39 40 33 31 14 13 21 26 39 40 39 39 35 31 35
34 13 17 19 14 14 16 19 19 22 16 19 17 16 19 21 25 25 18 11 11 13 21 51 45 42 38 41 42 42 46 40 30 32 32 26 5 0 20 34 32 30 38 30 35
33 11 8 20 14 18 18 21 17 21 13 15 18 18 20 20 18 15 24 13 19 13 10 18 42 39 38 37 45 49 42 41 37 32 32 20 11 7 17 21 24 26 33 37 29
28 13 14 6 11 16 18 17 17 15 17 11 17 18 18 16 15 15 27 18 19 19 16 18 26 40 27 35 38 44 43 42 39 38 29 32 10 12 10 9 16 19 26 26 36
29 11 15 16 16 16 14 17 21 19 16 17 17 16 17 21 18 19 26 29 12 14 5 9 17 27 45 34 30 39 42 43 48 38 38 29 27 18 15 18 17 19 22 24 29
34 21 19 18 13 13 14 17 17 19 18 20 18 17 19 18 15 18 19 20 20 14 16 3 11 18 25 34 26 24 42 42 42 41 34 32 25 19 20 21 18 20 20 23 21
35 19 17 19 13 15 14 18 19 18 16 15 23 22 21 20 18 19 20 23 24 22 17 9 8 9 24 23 26 26 25 40 41 40 35 35 26 26 23 25 24 17 13 10 14

GFSSW_700_spd_033.txt.gz
Wind_Speed
14 15 15 16 17 18 18 19 20 21 19 19 18 17 16 14 19 21 14 10 16 17 21 23 24 19 16 13 4 1 8 8 8 8 2 13 14 8 2 5 5 3 1 21 33
16 16 16 16 17 17 17 18 19 20 20 19 19 18 18 16 16 13 8 18 19 19 20 25 26 22 19 13 19 12 9 7 10 1 9 12 3 14 20 12 7 7 11 26 32
19 19 19 19 19 18 18 19 19 18 19 21 20 21 20 19 17 11 18 18 19 16 16 22 24 24 22 16 12 17 12 8 13 9 12 1 11 22 16 13 4 8 15 21 31
21 21 22 22 22 22 21 20 21 20 19 20 21 21 22 21 12 4 13 18 17 15 19 24 28 24 23 21 12 18 19 13 11 3 7 11 5 8 18 8 3 3 8 16 24
24 25 25 25 25 25 24 23 23 23 21 20 21 22 22 24 11 20 10 14 20 20 20 25 31 27 26 20 15 21 24 17 5 3 7 16 3 2 20 13 9 9 14 18 21
24 25 25 26 26 27 26 25 25 25 24 23 21 24 24 25 15 22 17 17 14 18 19 25 30 29 22 21 22 17 25 23 18 15 8 12 6 19 20 12 3 10 16 19 20
25 27 27 27 27 27 27 27 26 26 27 26 25 26 29 16 20 19 22 20 20 16 21 19 24 26 20 22 20 23 24 24 27 18 4 20 19 29 27 16 6 11 14 19 18
26 27 27 29 29 29 29 29 27 27 28 28 29 29 32 19 21 26 23 15 20 19 20 20 21 26 24 22 22 27 25 28 30 20 18 22 23 35 24 19 13 9 13 15 16
26 27 28 29 30 32 35 32 31 26 25 28 30 32 30 27 23 20 24 22 15 21 19 22 27 26 22 28 28 30 32 28 25 23 22 18 14 34 31 21 13 12 18 22 19
27 26 27 27 29 32 32 33 30 28 23 23 31 29 23 17 14 17 23 25 21 23 20 28 27 27 30 34 37 31 26 26 29 25 25 23 24 33 29 33 11 23 23 27 30
32 30 29 29 31 31 32 34 36 35 36 29 28 32 27 15 18 17 26 29 24 24 32 34 34 44 43 39 33 26 29 28 25 26 22 27 27 36 45 40 26 14 31 32 20
35 31 29 29 31 29 31 30 32 37 53 42 32 34 33 21 29 24 17 34 37 40 32 29 45 41 36 35 34 34 35 38 27 28 30 34 27 44 41 36 32 21 41 36 20
34 32 30 31 30 28 27 29 29 30 46 29 19 13 20 36 37 32 27 30 42 43 43 45 40 36 36 36 37 38 39 39 31 29 28 31 36 31 34 32 21 20 37 34 21
33 33 34 33 29 27 27 26 26 23 26 25 25 24 24 24 48 33 37 33 42 46 45 45 39 24 39 41 39 42 38 37 34 31 26 30 20 32 40 30 28 21 41 22 29
34 36 34 34 30 26 26 25 22 11 5 14 13 10 18 12 21 36 38 39 46 42 43 51 41 41 38 45 39 39 34 35 37 36 32 35 19 40 37 41 36 29 27 25 33
35 36 35 26 23 25 25 19 15 5 5 12 29 32 23 8 20 16 28 40 39 43 39 46 36 34 46 32 36 33 32 32 34 36 24 37 28 22 43 40 38 38 33 40 39
34 36 33 25 19 21 19 21 8 4 14 19 40 38 31 32 17 15 27 41 43 46 50 39 50 41 28 42 31 37 33 20 16 21 14 28 28 24 26 31 32 40 40 37 34
36 36 24 14 22 24 15 15 11 10 21 31 34 38 29 33 21 20 15 36 42 44 30 38 34 53 42 40 40 43 45 15 9 10 13 31 26 35 34 25 32 33 36 34 41
35 28 15 21 28 22 11 13 17 13 20 24 31 24 29 31 31 39 22 15 35 48 46 37 46 24 48 38 41 43 48 39 20 20 11 26 38 34 37 40 34 32 27 38 38
37 21 10 22 26 12 11 18 18 17 19 18 23 23 27 24 27 31 24 9 8 17 43 47 27 43 36 41 39 44 37 35 34 10 10 19 36 45 37 40 38 34 34 39 39
34 18 9 23 12 12 18 17 21 22 18 18 24 20 23 17 23 23 16 26 15 6 9 26 50 46 36 52 55 43 38 45 33 29 6 5 22 42 41 35 34 38 36 45 45
35 14 5 17 13 15 12 19 20 20 18 20 13 15 18 20 18 20 24 26 28 26 20 11 19 42 50 37 49 38 46 45 33 31 33 26 25 20 18 45 36 41 35 28 45
36 13 10 23 7 14 15 17 17 23 16 22 20 14 20 20 24 15 26 27 33 27 24 16 7 23 39 40 34 56 46 48 39 32 34 15 15 19 19 27 35 40 38 34 25
36 29 32 2 7 9 13 19 21 22 17 14 16 17 22 21 17 24 25 22 38 25 20 19 15 22 17 36 33 48 46 44 37 39 39 32 26 7 8 25 35 34 32 37 34
33 27 26 25 11 6 10 19 18 21 20 15 20 16 16 20 22 13 20 27 39 23 21 24 13 15 31 28 25 28 51 44 48 37 40 36 23 15 9 23 29 28 28 30 40
34 32 30 19 12 9 10 14 17 20 18 20 18 22 12 21 13 24 18 23 26 25 23 24 13 15 19 31 30 30 49 46 43 43 35 35 33 26 18 20 23 24 29 31 32
33 30 29 26 15 13 11 18 22 18 15 17 20 21 22 20 18 20 22 20 23 26 31 22 24 22 5 17 13 10 27 49 45 40 41 35 35 26 27 26 23 28 29 29 31

GFSSW_700_spd_036.txt.gz
Wind_Speed
14 15 15 16 16 16 17 18 18 19 18 17 17 16 15 14 13 14 10 9 16 19 19 22 23 20 17 11 8 6 8 11 2 10 7 7 5 15 11 6 11 11 11 19 31
16 17 17 18 18 18 18 18 19 19 19 18 18 17 16 15 15 8 10 20 21 21 19 20 24 23 21 16 13 11 4 13 10 9 5 17 1 19 9 8 8 4 11 27 32
17 18 18 19 19 20 21 20 20 20 20 19 19 18 17 16 15 12 14 20 22 20 18 18 21 25 23 18 20 15 12 5 5 9 4 9 4 9 11 4 3 3 13 29 31
16 17 17 18 18 19 20 21 22 23 22 20 21 20 19 17 9 3 7 15 18 18 21 21 26 30 27 24 14 20 12 12 11 3 8 5 8 5 9 6 2 3 4 16 28
16 17 18 18 19 19 19 19 21 23 25 23 22 23 22 19 8 12 12 9 17 18 19 21 28 31 31 24 20 20 15 10 2 8 7 14 10 10 10 7 3 3 9 14 23
21 21 20 21 21 21 22 21 21 22 24 24 24 25 26 18 12 13 15 16 13 14 19 22 26 29 29 26 27 19 17 17 15 17 14 10 23 16 13 9 2 5 11 16 19
22 22 22 23 22 23 25 26 25 24 24 24 25 26 28 11 18 18 14 17 18 15 17 16 18 30 26 25 23 21 21 20 22 26 19 11 17 23 15 15 6 11 13 16 17
23 25 23 21 23 23 24 25 27 27 24 24 25 26 28 20 20 21 19 19 20 22 16 16 16 27 32 28 28 23 24 30 23 16 20 8 18 21 20 21 12 11 14 18 20
25 26 24 24 24 25 22 24 28 29 25 22 23 24 24 24 20 21 23 20 19 23 20 24 24 29 31 28 27 30 29 25 26 26 29 26 24 27 23 22 12 12 10 15 18
28 27 26 24 26 26 25 25 27 30 24 27 21 21 13 12 15 19 24 20 25 22 25 30 34 36 40 37 37 27 25 27 28 29 30 33 28 36 31 29 18 12 9 10 17
30 28 26 27 29 29 26 27 30 31 28 26 21 16 15 13 24 21 24 24 27 22 36 35 41 47 50 46 39 29 23 23 28 26 23 24 31 32 35 34 29 19 13 11 7
33 31 27 27 29 28 28 30 28 32 34 14 14 19 2 19 26 26 28 33 34 37 31 33 48 45 44 41 35 32 27 28 28 26 22 20 27 34 40 40 36 28 10 10 16
33 31 28 26 28 26 26 24 24 22 23 10 14 14 20 13 19 22 27 38 41 39 40 44 33 43 43 42 35 37 36 31 33 27 23 21 18 39 42 42 38 24 9 15 23
30 29 29 27 28 26 21 20 21 19 12 4 12 12 20 21 4 22 24 32 42 48 42 44 45 23 44 42 37 39 43 38 35 30 28 13 14 39 38 50 48 38 27 21 26
31 31 28 30 26 22 19 18 16 15 4 15 8 15 14 18 23 9 16 31 44 38 42 56 42 38 44 49 39 44 39 39 37 33 30 35 14 29 45 49 49 44 35 24 21
32 31 27 23 19 18 16 15 10 2 4 11 15 31 26 27 24 27 17 19 34 43 43 49 33 38 41 34 42 33 30 33 32 34 21 45 19 16 53 55 45 32 39 32 27
30 30 25 14 13 13 12 13 3 4 10 14 28 40 30 32 32 28 27 14 11 34 46 45 46 33 30 43 34 37 31 23 13 15 11 40 20 29 19 46 44 30 42 38 34
28 29 21 9 16 11 6 7 7 11 15 19 29 29 25 33 32 31 26 27 11 22 20 39 39 47 35 37 43 41 39 18 13 6 14 35 16 19 31 25 44 50 32 39 36
27 26 14 15 17 11 11 6 6 18 18 23 27 23 27 25 25 33 31 19 24 16 9 19 45 15 51 38 35 42 51 38 18 18 13 23 21 29 35 23 23 30 51 42 40
29 23 13 13 10 12 12 9 12 15 19 19 20 17 23 17 21 22 20 14 20 12 17 13 11 49 25 43 40 47 33 41 39 7 5 10 28 30 43 44 34 29 30 39 45
29 22 14 16 14 7 6 3 9 14 16 17 18 15 12 18 14 14 14 29 21 23 17 14 8 32 34 40 54 39 46 40 35 28 7 3 23 29 42 43 41 37 33 31 49
29 22 19 23 16 13 11 11 12 17 16 19 17 9 12 13 14 12 15 23 33 36 27 12 12 15 37 42 35 45 33 41 26 21 31 17 25 15 11 23 28 38 44 34 40
33 23 22 20 3 13 16 14 11 17 18 12 10 8 16 18 13 15 17 16 13 27 20 17 5 8 28 30 30 25 48 40 47 32 36 21 27 26 28 22 27 37 44 38 38
33 28 29 9 16 15 16 14 10 9 16 16 16 12 15 20 18 13 15 15 19 17 28 15 15 17 12 16 22 26 33 45 43 36 34 44 43 40 22 29 23 31 43 45 42
30 27 25 27 16 10 11 11 12 15 13 11 16 14 16 20 20 15 13 15 21 19 20 13 11 8 22 28 23 20 21 40 41 43 39 39 41 46 24 22 16 26 39 44 44
28 28 27 22 19 14 10 10 12 15 17 17 16 17 17 20 20 23 17 19 16 22 18 18 11 21 16 16 20 14 24 19 43 45 40 37 35 29 22 17 18 22 29 35 35
27 27 27 28 23 16 12 14 19 20 15 12 17 17 18 19 19 21 19 19 18 18 13 16 19 18 6 10 14 6 6 17 37 40 44 34 31 25 21 18 21 25 27 28 30

GFSSW_700_spd_039.txt.gz
Wind_Speed
15 16 16 16 17 17 18 18 18 17 16 15 15 14 11 10 11 8 4 10 17 18 20 20 22 22 20 14 10 11 7 7 2 3 3 5 9 11 7 4 12 14 15 17 24
16 16 17 17 18 18 19 20 20 20 18 17 17 15 13 12 10 7 12 19 23 21 20 19 22 25 23 17 13 13 7 11 6 10 11 10 7 8 9 9 10 14 14 23 24
15 16 16 16 16 16 17 18 20 21 20 19 18 18 16 13 11 9 12 16 22 20 19 19 20 24 24 21 19 14 8 15 14 10 11 12 7 8 7 8 3 2 11 20 25
16 17 18 18 19 19 19 18 19 20 21 21 21 19 17 14 6 6 6 11 17 18 22 24 25 29 27 25 21 18 18 17 9 5 3 4 4 6 10 4 3 3 5 16 26
17 18 18 19 19 20 21 22 22 22 22 21 21 23 19 14 7 17 13 9 12 17 19 23 26 29 30 26 21 20 21 16 12 7 9 11 11 7 11 5 7 3 9 18 22
19 20 20 19 18 20 20 21 21 21 22 22 20 22 22 12 12 13 13 14 12 13 18 21 22 24 26 28 25 15 18 16 11 9 5 8 11 15 9 15 13 6 11 15 20
21 22 23 22 22 21 21 21 21 22 24 23 20 20 20 11 15 14 12 16 16 12 14 16 16 25 29 31 26 25 19 20 17 8 12 8 13 19 18 13 12 9 13 16 22
20 22 23 22 22 22 22 20 21 22 25 23 22 17 15 16 14 16 17 19 21 19 16 12 19 22 27 25 31 30 27 25 22 14 17 18 17 17 19 18 14 12 16 19 20
23 24 25 24 24 24 23 22 21 23 23 25 19 12 10 15 21 23 24 21 25 25 21 22 25 26 30 25 29 32 26 27 25 19 14 21 12 15 18 17 15 12 18 19 20
27 25 26 27 25 24 22 21 20 20 20 21 14 10 4 12 17 20 24 25 26 29 29 31 34 35 35 38 37 29 34 30 31 21 16 24 22 19 22 20 20 16 18 20 21
28 27 25 26 27 24 27 25 20 15 16 17 15 13 20 16 15 12 15 28 31 32 35 37 41 50 47 47 42 24 30 36 33 23 17 21 25 32 24 31 27 24 18 18 18
30 28 25 25 25 25 28 26 24 19 9 11 12 11 12 14 8 20 16 28 31 38 32 36 50 45 41 42 44 41 28 30 36 28 20 21 24 27 33 33 34 29 20 20 20
29 28 26 24 22 24 25 22 21 21 18 10 10 11 13 14 10 19 16 23 30 35 40 42 40 43 45 42 46 46 41 34 37 29 26 16 14 32 37 37 41 37 23 15 17
29 29 27 24 22 22 22 20 20 17 12 4 8 11 17 13 2 10 10 15 24 31 38 41 42 13 45 47 46 48 45 37 35 29 18 17 9 23 38 43 42 39 33 28 17
29 27 25 23 20 20 18 18 16 13 3 11 6 11 19 20 15 9 11 17 20 33 19 48 37 45 29 51 46 50 43 36 34 33 28 30 10 24 32 40 42 43 37 37 23
28 25 21 21 20 18 17 15 12 4 4 4 10 19 23 23 20 17 19 20 22 28 45 37 37 26 53 29 43 48 25 34 34 33 21 39 19 18 37 44 40 35 33 39 28
26 22 20 18 17 18 15 11 5 4 6 8 16 25 28 31 34 29 28 29 17 19 28 36 46 35 29 40 29 42 29 10 12 12 16 36 23 32 27 34 39 40 36 38 35
24 22 19 16 17 13 10 6 4 4 12 19 23 27 27 32 30 33 35 25 18 18 18 12 29 49 39 37 42 40 39 14 9 7 15 35 15 18 40 29 26 32 42 42 41
20 23 19 11 15 12 6 1 2 8 11 19 22 19 19 23 21 26 23 4 8 10 3 8 21 15 49 38 36 45 52 41 15 9 6 25 20 30 27 23 34 24 30 50 46
21 23 15 11 16 11 9 9 11 9 11 12 15 14 20 14 15 16 13 9 14 15 5 4 18 24 29 46 39 40 33 43 33 9 10 6 20 21 34 35 26 28 31 38 47
22 24 10 15 18 18 14 11 9 11 12 12 14 15 11 12 11 16 6 12 9 23 19 14 8 26 28 29 59 44 40 45 33 21 11 1 26 37 32 30 38 30 24 19 24
23 22 17 20 10 11 13 13 12 11 15 14 12 10 7 9 13 12 11 15 20 15 18 22 9 18 27 39 37 50 39 31 33 24 32 15 28 16 25 38 35 38 32 27 26
26 19 21 14 12 12 17 15 13 13 8 5 4 8 12 11 9 9 19 16 17 12 11 15 6 9 24 26 23 26 46 40 40 27 33 24 28 31 26 28 32 33 34 32 36
28 22 23 8 21 16 15 15 17 15 10 8 6 8 10 13 15 12 16 14 16 11 15 12 16 19 14 13 5 19 31 47 35 35 29 43 47 41 22 16 19 20 25 33 37
26 25 23 22 17 16 13 13 13 15 14 11 9 12 13 18 18 20 17 11 15 14 16 12 20 17 20 30 19 18 25 29 35 37 37 34 42 42 32 27 22 29 36 36 49
24 24 27 21 17 15 12 8 14 16 18 18 20 14 14 22 21 23 21 19 21 17 15 10 12 12 18 29 17 14 11 23 25 33 31 36 46 39 31 29 33 37 24 31 46
26 25 25 23 21 21 21 19 17 17 20 16 20 17 15 15 20 25 23 25 21 18 17 11 4 11 6 15 13 9 5 13 20 27 36 37 39 35 27 26 28 23 24 33 40

GFSSW_700_spd_042.txt.gz
Wind_Speed
15 16 16 17 17 18 18 17 17 16 16 15 15 13 11 10 9 5 2 12 17 18 18 19 22 23 20 15 10 12 5 4 1 5 3 8 3 7 6 1 7 9 10 15 19
14 15 16 16 16 17 18 18 17 16 16 17 15 14 13 11 9 7 13 12 21 19 18 17 21 25 24 17 14 10 7 6 1 6 6 9 3 6 3 2 7 11 10 18 20
16 17 18 17 18 18 18 19 19 18 18 17 17 15 13 11 9 8 10 13 17 17 19 17 19 22 24 18 16 9 2 10 13 15 12 18 10 7 4 5 4 2 6 15 20
17 18 19 20 19 19 18 18 19 18 18 18 17 16 13 10 7 8 4 8 14 18 22 24 24 25 23 23 18 14 12 15 15 9 9 5 6 6 5 5 8 9 8 10 18
18 20 21 20 19 19 19 19 18 18 18 17 17 16 13 11 13 14 12 9 11 18 20 23 22 23 25 25 21 18 18 16 14 11 7 6 4 3 9 12 4 7 10 13 16
20 20 21 21 20 20 19 20 18 18 18 18 15 14 13 12 14 16 12 12 10 15 19 19 19 18 19 27 26 19 20 18 17 11 8 7 6 7 10 7 10 6 9 13 15
21 22 22 20 20 21 22 21 18 18 20 21 18 15 13 14 15 17 14 16 15 14 16 15 17 18 22 23 24 23 16 25 20 15 9 7 9 9 11 5 9 9 12 16 18
25 26 27 24 22 23 23 23 20 19 22 22 19 14 11 8 16 20 19 17 19 19 21 20 22 22 21 23 23 27 27 21 25 17 9 10 12 9 9 11 10 9 14 19 22
25 25 27 27 25 23 23 22 23 19 20 17 13 10 6 6 15 20 24 21 22 22 23 24 26 28 24 21 22 21 20 27 25 20 11 12 11 11 11 11 15 14 16 19 22
26 26 27 27 26 23 22 21 23 18 16 15 8 7 7 9 10 18 25 25 26 25 27 30 30 34 32 32 25 21 30 26 29 23 17 14 16 7 9 12 15 16 15 17 23
29 28 27 27 27 24 21 21 21 13 19 14 11 9 8 10 8 13 18 22 26 34 34 32 36 44 39 35 37 20 22 32 29 28 22 19 19 23 20 16 21 21 17 17 19
32 29 27 27 26 25 23 19 17 13 11 14 14 11 8 7 4 8 15 15 26 29 31 34 44 38 37 35 35 36 20 29 30 26 25 19 22 22 25 24 24 19 21 19 20
31 28 26 26 24 22 21 20 14 13 12 11 15 18 10 3 4 5 11 15 20 26 30 34 25 42 38 39 39 40 39 30 29 17 25 23 25 24 26 26 29 31 27 24 22
31 29 25 24 21 19 18 17 14 12 8 7 9 13 12 1 6 10 5 11 14 20 27 26 36 17 24 44 41 42 43 37 28 17 10 23 12 31 30 27 29 33 33 31 25
30 29 26 22 19 17 15 15 12 9 3 5 8 13 16 10 9 10 11 9 12 15 20 23 22 33 25 23 40 42 37 39 38 32 26 18 10 28 32 33 31 30 30 35 31
28 28 24 21 19 17 16 14 10 1 4 5 7 11 16 16 16 18 17 16 14 15 21 27 30 27 21 37 28 33 11 21 34 30 23 33 25 27 37 38 33 30 30 34 37
27 24 21 19 17 16 18 12 5 6 4 5 9 16 18 21 22 22 24 22 17 14 16 22 30 37 29 15 32 25 29 6 10 12 15 31 27 29 37 38 30 27 27 28 33
24 20 19 18 13 16 15 10 8 6 7 11 14 17 15 18 20 22 20 18 17 16 15 14 13 31 34 41 25 39 37 15 8 5 15 27 16 21 42 33 33 23 27 30 31
20 17 18 17 12 15 15 5 5 7 7 11 16 12 9 21 17 13 11 5 9 10 5 9 13 23 28 43 35 31 46 40 18 10 9 28 21 25 27 32 38 28 24 26 30
17 15 18 14 12 16 16 12 12 13 13 13 11 8 12 15 10 10 6 4 7 10 16 10 18 28 27 33 47 41 31 35 31 9 5 6 28 24 42 30 33 43 33 23 20
19 19 13 13 16 18 20 16 16 17 17 13 12 14 14 10 9 10 6 9 9 12 18 25 21 28 24 32 45 46 40 34 40 26 9 1 7 31 33 36 35 35 41 33 25
20 17 11 17 11 7 10 14 15 14 14 15 15 13 11 9 9 10 11 12 13 17 19 21 15 19 34 33 31 42 39 41 29 30 34 4 24 7 29 24 21 40 33 30 18
20 15 18 15 7 17 12 15 18 16 14 10 9 10 9 12 8 8 9 15 18 18 13 15 12 11 14 37 34 23 47 34 44 30 40 24 8 29 21 22 27 31 40 33 24
24 18 20 10 20 15 18 13 10 12 12 14 13 12 12 14 13 10 14 14 21 21 19 18 21 27 17 13 8 24 26 45 41 30 30 42 33 38 18 15 21 28 30 33 33
25 23 21 19 15 13 12 11 11 16 19 20 17 16 18 21 21 23 22 21 21 19 21 17 27 29 33 36 30 23 21 32 42 42 29 24 35 34 39 32 26 21 25 33 30
23 22 22 16 13 11 12 17 14 13 20 25 27 24 21 29 21 24 20 22 24 20 25 24 24 20 32 29 33 24 12 17 28 44 34 24 34 32 31 30 27 27 26 31 34
26 26 24 18 16 13 17 19 19 17 20 12 20 17 17 18 18 22 23 27 28 24 25 27 23 11 15 14 17 17 19 12 20 32 38 44 37 32 28 25 28 26 25 29 36

GFSSW_700_spd_045.txt.gz
Wind_Speed
15 15 16 16 15 14 13 13 13 13 13 11 10 11 8 8 7 4 9 12 15 16 16 17 20 20 18 14 12 9 4 2 1 2 2 7 6 9 8 4 5 5 6 17 25
16 17 18 18 17 16 15 13 13 13 14 13 12 10 10 8 8 8 10 11 14 17 15 15 17 21 20 17 14 9 9 3 3 7 6 12 9 7 5 1 7 11 12 23 19
17 17 18 19 19 17 16 16 14 13 12 14 12 10 9 9 9 10 11 15 11 16 18 16 16 17 19 17 15 9 8 6 6 15 17 13 10 9 2 1 4 4 5 16 17
20 20 20 19 19 18 18 17 16 14 13 13 13 10 9 9 7 11 9 10 12 15 20 21 21 21 22 23 18 11 5 16 17 18 16 6 7 4 4 2 6 7 6 9 17
21 22 21 20 19 19 18 18 17 15 14 14 14 12 9 10 15 12 13 9 8 15 19 19 19 19 20 21 20 16 12 18 15 12 11 9 7 7 9 8 2 3 7 11 19
21 22 22 21 19 19 19 18 17 15 16 16 15 12 10 10 15 18 17 15 12 14 19 19 17 15 16 21 23 16 19 16 16 12 9 6 3 9 10 11 9 4 4 13 18
21 22 22 21 21 21 19 18 17 16 16 16 14 12 11 10 16 19 18 17 17 16 20 21 19 18 19 13 21 24 16 25 22 16 10 7 8 7 9 10 7 9 6 16 21
23 23 24 23 22 22 19 17 17 20 16 14 14 12 10 6 13 19 18 18 19 19 21 21 22 20 19 17 16 23 23 16 25 20 13 10 7 4 7 9 4 5 10 18 23
24 24 25 24 23 22 20 16 18 20 17 12 11 8 5 5 8 15 19 19 21 20 25 26 26 27 23 18 15 17 13 23 22 23 16 14 8 9 7 9 9 6 9 17 23
26 26 27 26 24 23 20 17 18 22 15 9 7 7 5 6 6 10 17 21 22 22 27 30 31 31 30 26 18 17 22 20 25 24 23 18 16 10 10 7 7 7 9 17 23
26 26 28 27 25 23 20 19 18 19 15 12 10 9 6 6 6 6 10 16 21 25 30 33 35 42 34 32 23 18 15 18 20 25 27 22 17 16 13 9 8 9 12 13 20
28 27 27 26 25 22 19 16 16 16 17 14 12 11 8 5 4 7 7 11 17 26 27 30 39 32 32 32 29 29 16 15 20 16 16 18 24 22 22 18 13 12 14 14 21
28 27 25 25 23 20 18 15 13 13 11 12 15 14 10 8 7 4 5 9 12 19 29 31 19 36 33 30 31 31 29 19 15 12 20 15 23 26 29 26 24 20 20 19 17
28 25 24 23 20 18 15 11 10 11 7 9 10 10 6 6 9 6 5 8 10 12 18 24 34 25 10 36 30 28 31 31 21 11 14 20 22 27 33 32 28 22 22 23 23
27 25 23 20 16 16 14 11 11 7 3 6 9 13 10 6 6 8 7 5 7 12 17 14 20 30 31 18 21 27 22 28 30 25 18 17 15 33 27 35 35 28 24 23 26
25 25 23 15 14 15 12 11 9 2 6 6 8 8 9 8 10 12 11 10 8 11 15 20 21 19 18 26 23 6 16 12 15 24 27 36 23 28 34 39 37 32 25 22 24
25 25 20 14 12 13 11 9 5 6 5 6 9 9 10 9 9 10 10 8 4 5 10 14 22 23 22 16 16 23 14 9 10 11 18 31 30 37 26 40 41 35 28 23 25
23 19 15 12 15 15 9 7 7 7 9 10 9 11 10 7 8 11 12 7 5 2 6 7 11 17 21 27 21 23 28 14 13 10 15 26 21 33 40 18 36 37 26 26 28
17 16 14 14 14 10 10 5 6 9 11 13 13 12 8 7 9 10 10 7 1 2 1 2 10 16 15 29 26 27 34 33 20 9 14 25 32 28 27 30 41 29 36 29 27
18 16 15 12 8 11 13 11 11 12 14 15 11 8 5 9 10 8 5 6 3 2 3 5 12 12 23 20 30 36 26 27 28 18 19 9 27 24 37 28 32 42 38 30 27
18 15 10 10 12 13 13 15 16 17 17 13 12 12 14 12 12 8 6 8 9 5 6 8 8 10 18 14 17 29 28 29 30 35 11 16 13 19 31 38 46 31 39 38 30
18 11 12 13 8 5 8 10 12 13 16 16 16 16 17 14 12 9 11 9 7 9 11 12 11 16 23 29 28 18 27 41 32 32 40 29 24 7 16 17 30 45 34 35 37
21 12 15 8 8 12 9 10 12 15 15 13 13 12 11 14 9 12 12 13 10 11 7 9 7 8 18 18 27 33 31 37 41 40 38 25 26 24 12 20 25 28 33 39 33
22 17 17 9 14 14 13 8 4 9 15 16 17 16 15 18 17 11 14 10 10 10 15 14 18 13 20 22 10 17 18 26 31 45 39 39 34 36 25 20 23 23 30 33 37
20 18 17 10 11 9 9 9 9 9 10 14 20 23 26 16 21 23 23 17 18 16 15 16 21 14 20 28 34 36 36 30 25 34 38 39 33 36 39 24 17 21 29 31 32
20 18 16 10 11 7 12 15 13 16 15 17 16 18 23 23 25 19 21 16 20 12 18 22 18 16 26 31 32 38 43 38 31 38 33 23 23 29 29 29 36 33 29 26 26
24 22 17 14 12 14 17 17 16 14 15 17 16 19 16 18 21 20 21 22 22 20 21 26 27 18 31 23 24 33 46 36 26 26 37 42 27 22 25 24 25 25 24 25 27

GFSSW_700_spd_048.txt.gz
Wind_Speed
13 13 13 13 13 12 11 11 12 12 10 10 10 8 9 8 7 8 10 11 15 16 15 16 18 19 18 14 11 8 4 2 1 3 3 9 7 7 12 2 6 8 7 9 23
15 15 15 15 14 12 12 11 11 12 12 10 9 9 8 10 9 10 11 11 10 15 16 14 15 18 18 15 12 9 7 4 3 2 3 10 8 10 7 2 2 8 9 17 29
16 16 16 16 15 13 12 12 11 11 11 11 10 8 9 10 11 13 13 13 10 13 16 16 14 13 16 15 14 9 6 6 4 7 8 13 12 9 8 6 2 4 9 18 24
19 18 16 16 16 14 13 12 11 11 10 10 10 9 8 10 9 15 14 14 14 14 19 18 20 18 17 17 16 10 9 7 7 9 12 13 10 7 8 4 5 6 7 11 17
19 19 18 17 15 15 14 13 12 11 11 10 10 10 8 11 18 12 14 11 13 16 17 18 18 18 17 17 14 17 7 10 14 13 8 5 2 5 6 8 6 6 7 16 19
19 19 19 17 16 15 14 13 12 11 11 11 10 10 7 12 15 19 17 15 11 15 18 20 18 16 14 12 17 9 16 14 17 10 9 5 6 6 9 10 8 5 6 12 18
19 19 20 19 17 15 15 13 12 12 14 11 10 10 8 11 12 20 22 19 16 17 20 21 20 19 11 10 15 16 8 15 20 15 11 7 9 9 12 12 10 9 5 14 21
20 21 20 19 18 16 15 14 12 11 13 13 10 9 10 6 7 15 19 19 20 22 24 25 20 19 13 14 9 17 16 16 17 18 13 9 9 11 10 11 7 8 9 17 24
21 22 21 21 20 17 15 14 12 11 13 13 10 7 8 6 4 8 15 17 20 22 27 27 24 17 18 12 13 16 18 21 15 18 15 15 9 10 8 12 10 6 10 16 24
22 22 23 21 19 17 15 14 13 11 11 8 8 6 7 6 5 7 10 16 19 19 24 26 24 19 19 21 22 20 23 18 22 17 21 17 13 9 8 10 10 9 10 15 23
23 22 24 22 20 17 14 13 13 13 12 9 10 12 14 10 6 4 7 12 19 21 23 24 26 30 22 23 20 13 17 22 16 15 19 22 19 14 12 11 11 11 12 14 19
25 23 24 24 21 18 14 13 13 13 14 14 13 12 12 11 6 6 7 7 15 19 20 19 30 24 20 20 22 21 15 16 16 14 17 23 24 19 19 16 13 9 10 15 20
25 23 23 21 20 16 14 12 11 11 9 14 14 15 13 11 11 9 9 11 12 18 24 24 13 25 23 21 23 23 24 19 14 10 16 18 24 25 23 21 21 18 13 12 17
24 22 23 20 18 14 11 9 9 8 4 8 8 11 10 11 11 13 11 11 10 15 17 24 23 11 26 23 22 23 21 20 21 17 19 25 23 30 28 24 26 22 18 14 17
24 22 20 18 17 12 9 7 6 3 5 5 6 11 7 5 9 10 11 9 9 10 15 15 20 28 24 16 26 23 17 20 20 23 22 20 23 30 30 30 28 26 23 18 18
23 20 18 16 12 10 9 7 4 3 4 3 4 3 1 4 10 12 10 11 11 13 14 17 14 16 26 26 16 12 21 18 16 21 26 35 28 31 34 31 29 27 27 23 20
18 15 12 8 8 9 9 5 3 9 5 3 3 2 3 4 6 8 6 5 9 11 16 14 20 16 14 18 25 23 15 15 15 18 21 31 34 36 26 31 28 28 28 27 22
18 14 11 7 7 10 8 1 8 3 4 5 2 3 5 4 6 4 4 6 10 12 10 15 16 17 20 23 21 30 32 20 20 14 22 31 32 42 40 21 25 28 25 26 26
18 15 12 9 11 9 2 7 6 6 6 5 7 9 10 7 6 4 5 8 7 9 9 12 16 14 18 26 22 26 36 37 30 22 19 28 32 29 31 37 34 23 28 25 26
16 11 8 7 5 4 5 9 6 8 7 7 9 8 9 8 6 5 7 7 7 10 12 7 10 11 12 24 30 29 28 28 36 23 23 22 27 30 32 33 33 37 29 28 28
15 9 6 7 7 3 7 8 10 8 9 8 9 13 11 12 11 11 7 7 8 7 8 6 7 9 10 18 21 26 33 25 27 35 18 19 25 23 27 28 35 33 34 32 26
11 2 11 8 2 2 4 11 13 6 7 9 10 13 15 14 14 14 14 11 9 8 4 7 7 13 16 18 19 15 17 30 36 32 39 36 16 26 12 19 29 33 27 33 31
12 6 8 2 2 3 5 4 7 5 6 6 8 9 11 13 12 13 14 12 11 9 6 7 7 9 12 16 19 20 29 24 26 34 35 28 34 18 12 8 18 24 32 28 30
14 5 11 4 6 5 3 4 4 6 5 6 11 13 14 16 16 11 13 12 12 13 17 9 14 16 18 15 6 10 16 20 26 34 36 41 31 26 31 17 12 16 23 29 31
16 10 8 4 8 9 9 8 7 5 3 7 6 10 14 16 18 22 19 14 15 16 16 13 16 16 22 21 21 23 25 26 27 28 34 33 36 34 30 29 18 12 12 22 30
16 9 6 7 8 8 5 6 7 10 12 9 10 12 14 20 17 12 20 21 20 18 21 21 22 15 23 22 24 30 32 36 36 36 36 34 39 27 30 28 33 27 22 20 19
18 15 11 12 14 10 8 9 11 12 11 12 13 14 16 17 19 23 25 26 23 18 22 24 20 18 25 23 26 33 33 38 43 41 40 41 39 22 30 30 27 29 27 27 27

GFSSW_700_spd_051.txt.gz
Wind_Speed
10 10 10 9 10 10 10 10 11 10 11 9 9 9 9 10 10 10 11 9 10 15 15 14 17 18 17 13 13 7 7 7 7 1 6 11 6 14 16 10 3 6 2 9 16
11 11 11 10 8 9 9 10 10 11 9 10 8 9 9 10 12 13 11 10 9 13 15 14 14 18 18 16 11 7 9 9 3 2 6 11 8 19 12 7 7 12 11 12 23
13 13 13 12 9 8 9 9 9 10 9 7 8 7 9 10 11 19 14 12 10 11 14 15 15 17 18 14 16 12 12 7 7 4 5 12 12 12 14 13 10 11 7 17 27
14 14 14 14 12 11 10 10 10 10 9 8 6 8 8 9 3 11 16 14 13 13 18 20 18 19 17 18 16 15 12 11 6 3 8 14 16 11 10 18 12 8 11 14 27
16 16 15 15 14 12 12 11 10 9 9 9 8 7 7 9 20 10 12 14 16 17 17 21 21 19 17 16 15 19 12 11 10 8 7 5 2 7 10 7 8 7 11 16 27
17 17 16 15 15 14 12 11 11 9 8 9 8 5 6 6 12 18 13 13 14 18 19 21 19 18 13 16 20 11 18 12 10 15 9 9 11 6 9 11 9 6 8 16 27
19 19 18 16 16 15 13 11 10 10 8 7 6 6 5 15 13 15 18 17 13 17 19 21 15 19 14 13 18 20 12 18 16 14 11 14 9 18 20 18 16 7 9 22 26
19 19 19 19 17 16 15 13 11 9 8 7 6 6 8 7 8 11 18 22 18 18 19 18 19 17 17 12 10 20 18 18 20 21 17 17 15 18 18 20 19 17 14 26 27
21 20 19 19 18 17 16 14 11 9 9 6 5 2 9 7 5 7 13 17 20 21 24 18 20 18 19 16 14 19 21 23 18 23 17 21 17 21 20 20 20 20 21 26 28
24 22 21 19 19 18 16 13 10 9 8 5 5 1 9 6 6 6 9 13 16 19 21 20 18 19 22 23 23 21 23 21 21 18 22 21 14 17 19 18 19 20 22 26 29
23 21 21 19 18 16 14 11 7 10 7 10 7 10 15 13 7 5 6 12 13 17 20 21 23 29 24 24 22 14 20 23 20 21 20 24 20 29 21 18 19 21 22 23 29
23 20 20 19 17 15 13 7 7 11 10 13 14 13 16 12 4 3 6 9 15 21 21 19 31 25 22 20 22 21 17 18 22 19 17 24 23 17 20 20 21 21 22 24 27
21 18 19 19 16 13 12 11 7 6 6 13 10 8 7 9 9 6 7 11 13 20 24 29 14 26 25 24 22 24 23 20 19 17 22 13 26 25 23 22 21 20 20 23 26
20 18 19 17 14 9 7 8 6 4 4 11 7 8 5 8 10 12 14 10 14 19 22 27 26 17 27 27 24 24 22 21 20 18 21 25 23 33 27 24 25 23 23 23 23
19 17 16 13 10 4 8 5 2 1 6 6 7 16 5 8 6 7 15 12 12 14 18 25 23 28 24 29 25 25 18 21 22 25 23 25 31 26 33 32 30 26 25 25 22
16 14 12 9 7 5 3 1 1 5 5 3 4 3 5 5 6 5 6 15 12 13 14 22 11 22 30 23 23 23 21 20 20 24 24 34 28 31 34 33 31 29 28 27 27
15 11 9 5 7 3 0 2 6 11 3 3 4 4 6 7 5 4 6 9 12 12 18 19 25 18 19 23 29 21 23 22 18 20 20 34 37 34 29 29 36 34 33 30 29
16 11 8 6 5 3 1 1 11 6 2 3 4 4 6 8 9 7 6 11 13 14 17 19 21 26 23 27 26 34 31 23 21 15 23 35 39 44 33 21 28 40 31 35 32
15 10 5 5 6 5 3 10 9 2 4 5 9 10 14 10 8 7 11 13 9 9 16 15 22 9 13 19 24 24 38 37 35 31 30 32 37 35 33 39 25 20 25 35 34
12 6 6 3 1 3 3 11 5 4 6 7 10 8 10 10 9 8 9 7 12 11 9 9 14 19 15 17 22 24 23 28 38 25 26 25 32 36 38 34 39 31 22 28 35
10 4 8 6 2 1 6 1 4 6 6 5 9 12 12 13 11 16 11 7 11 11 8 13 16 22 17 20 24 23 33 30 27 36 21 19 25 25 28 32 33 38 36 29 28
5 3 13 2 2 3 3 4 10 6 6 7 8 10 12 15 16 16 18 15 11 11 9 13 15 25 25 17 19 31 22 31 34 30 32 39 29 22 20 24 26 32 32 36 32
4 1 7 4 4 3 5 3 3 3 5 6 7 9 10 12 13 15 19 16 10 11 8 12 13 20 24 25 25 26 27 27 24 37 37 26 36 26 16 20 15 23 31 32 35
9 1 9 2 3 2 3 3 1 6 3 4 8 9 11 14 16 13 13 15 13 12 18 14 15 19 24 0 8 11 30 30 27 30 34 38 28 37 18 12 8 14 22 30 28
9 4 2 0 5 6 5 4 5 5 3 4 2 4 8 12 13 16 18 17 13 15 18 18 21 21 25 23 16 16 16 21 26 28 33 36 34 34 21 14 19 10 15 21 28
12 8 8 4 5 6 3 4 4 5 4 2 5 9 12 14 14 19 18 20 20 16 19 20 25 21 26 23 21 25 25 25 25 28 32 34 37 32 28 19 23 17 14 13 21
20 15 11 8 7 5 3 6 7 8 7 5 8 8 6 8 11 15 19 21 21 21 19 24 24 23 30 25 25 30 30 29 30 32 32 38 40 34 33 29 26 21 26 24 20

GFSSW_700_spd_054.txt.gz
Wind_Speed
10 11 11 11 11 11 10 11 10 9 9 9 10 9 9 10 11 11 11 7 6 12 13 14 17 17 13 10 13 10 15 11 15 8 7 13 14 15 19 23 12 8 6 12 17
12 12 12 12 12 12 11 10 11 10 9 8 9 9 10 10 12 13 11 9 8 10 14 13 14 16 17 15 14 15 10 11 7 3 7 13 11 21 16 14 8 9 17 13 22
13 13 12 12 12 13 13 12 11 10 9 9 8 9 10 9 10 18 11 12 9 10 13 11 10 16 17 17 17 15 16 11 13 10 4 11 8 18 15 13 15 16 13 17 26
17 16 15 15 13 13 13 13 12 10 10 9 9 8 9 8 1 6 16 14 13 13 16 20 17 18 18 20 15 18 18 15 12 4 8 8 16 17 24 19 23 14 8 19 29
19 19 18 17 16 14 14 13 12 11 9 8 9 9 7 8 13 9 4 15 15 15 16 18 21 18 18 16 16 19 17 14 10 11 5 9 9 15 7 11 21 11 12 23 30
20 20 19 18 17 16 15 14 12 11 10 8 7 7 7 6 22 14 14 11 15 17 17 19 19 16 14 16 16 15 17 18 12 11 8 6 5 4 7 19 16 12 16 22 32
20 21 20 19 19 18 16 15 12 11 10 8 6 6 6 11 14 15 13 14 13 16 19 18 16 16 16 14 18 17 20 15 19 12 14 10 14 15 13 25 13 14 18 25 34
23 22 21 19 18 19 17 14 12 10 8 9 6 5 5 9 11 11 15 17 14 15 16 10 16 15 18 14 15 14 21 22 18 18 20 14 17 10 20 15 16 17 25 27 27
25 24 22 20 18 17 17 15 12 9 8 8 6 2 2 5 7 8 10 13 17 16 15 15 18 17 16 19 18 19 22 23 18 25 19 19 20 15 18 34 16 19 26 29 30
25 23 21 20 19 17 14 12 11 8 8 6 6 5 7 5 5 4 4 11 15 15 16 19 18 20 21 21 25 18 20 21 22 19 25 21 21 16 9 18 21 21 27 30 30
28 24 21 18 17 16 13 8 4 10 11 9 0 4 7 8 9 4 4 11 13 17 17 20 22 25 23 22 22 20 20 22 20 17 24 23 28 18 25 31 29 25 29 31 29
21 18 17 16 15 13 11 6 10 14 13 12 16 13 15 8 6 4 9 10 15 18 17 18 29 22 19 20 21 23 21 20 18 20 24 21 26 21 16 32 33 27 30 32 32
17 15 14 13 11 11 8 6 5 7 10 11 12 8 9 8 8 9 8 11 14 17 21 26 14 22 23 22 23 23 23 19 19 17 18 20 20 18 17 37 32 28 28 31 34
17 15 14 12 7 3 3 6 1 3 4 12 13 10 14 7 11 16 10 13 17 19 20 26 23 21 21 27 24 25 20 22 21 20 21 23 24 27 25 29 40 22 27 29 34
16 14 12 7 3 5 15 8 3 3 5 13 11 13 9 12 6 9 13 15 15 16 17 24 26 27 26 23 26 26 20 19 21 23 24 23 26 28 31 31 21 22 32 30 35
17 13 10 5 2 4 2 2 3 3 6 7 5 2 7 8 8 7 3 12 8 15 18 22 18 24 28 25 22 23 21 22 21 24 23 31 30 28 28 30 33 30 28 32 34
18 14 8 2 9 6 5 1 5 12 5 6 6 3 6 8 7 4 6 8 10 12 15 16 23 19 19 26 26 23 24 20 18 18 19 30 31 32 24 29 32 32 27 41 39
17 12 7 4 3 5 3 2 11 7 2 5 4 2 7 10 7 7 5 9 12 16 15 16 20 26 21 24 23 27 26 25 18 14 20 31 33 36 34 22 28 31 22 42 43
13 8 8 6 2 4 1 9 4 7 7 3 2 5 10 12 9 6 9 13 9 12 14 14 20 5 31 24 25 25 34 30 33 29 27 29 31 32 28 30 19 32 34 29 41
9 5 5 8 2 3 2 9 7 5 5 3 6 8 9 9 9 8 10 5 11 8 6 10 18 14 13 13 19 25 22 23 33 22 23 25 30 27 29 29 32 28 28 26 39
13 10 10 12 3 1 3 3 1 7 8 3 6 9 10 11 14 8 12 3 6 9 10 15 15 22 9 18 23 23 27 21 20 24 19 16 26 24 22 34 36 33 34 22 22
14 5 17 3 1 2 4 6 6 5 7 6 5 5 8 12 14 14 12 11 8 7 10 7 14 21 25 15 17 22 26 26 28 24 25 25 33 26 12 20 30 29 24 27 22
10 4 14 4 2 3 6 5 6 3 4 4 4 6 7 8 10 12 14 12 12 8 8 9 13 16 22 22 25 22 24 30 28 32 38 23 25 38 23 9 15 21 25 18 25
16 3 7 10 6 3 2 4 5 9 3 3 6 7 7 9 10 9 9 7 12 9 16 13 13 17 21 17 12 13 23 26 24 30 26 39 34 26 20 11 4 6 8 14 22
11 4 0 3 6 7 6 5 4 4 6 6 1 7 7 7 8 11 11 13 17 11 16 14 21 22 26 25 19 19 20 21 35 34 35 28 36 36 15 12 8 6 3 9 11
9 6 7 7 9 5 4 6 7 8 5 1 7 10 9 10 11 16 17 15 17 15 14 16 23 23 28 26 25 27 25 24 21 27 37 34 37 36 18 20 32 13 9 3 9
18 11 10 8 7 4 3 5 7 8 1 4 8 11 7 7 9 14 17 18 18 18 17 16 19 19 30 25 26 34 28 26 27 26 22 28 38 32 26 18 24 34 23 12 5

GFSSW_700_spd_057.txt.gz
Wind_Speed
14 14 14 14 14 14 14 13 11 11 10 10 10 9 10 10 12 11 10 7 4 10 13 14 16 18 17 12 6 1 10 12 14 17 12 5 12 15 18 17 13 8 6 7 30
16 16 15 15 15 15 15 14 13 11 11 10 10 10 10 11 12 11 11 9 8 10 12 12 14 17 18 10 9 14 17 8 4 18 8 12 13 15 21 21 15 13 11 16 30
16 17 17 17 16 16 15 14 14 13 11 12 11 10 11 11 12 9 11 13 10 10 14 15 14 17 18 12 12 12 22 4 9 18 5 10 16 16 20 16 9 10 14 17 30
17 17 17 17 17 17 16 15 13 13 12 12 11 10 11 11 9 6 13 15 13 13 17 17 18 13 11 13 12 20 17 18 20 10 6 2 23 17 16 15 18 14 8 15 30
20 19 18 17 17 17 17 15 14 13 13 11 10 11 10 10 15 6 3 12 14 15 15 16 20 16 14 13 12 20 16 13 14 12 16 8 6 11 17 14 21 15 13 21 32
22 22 20 19 18 17 16 16 14 13 12 11 10 9 10 12 15 12 10 8 14 16 15 18 17 15 10 14 17 15 18 16 13 11 7 4 2 9 10 21 22 14 12 25 34
23 23 22 22 20 18 16 15 14 12 11 11 10 8 9 12 10 14 11 11 12 16 17 16 18 17 14 15 11 20 23 20 16 18 22 7 6 4 9 20 19 16 17 29 33
25 24 23 21 21 19 15 14 13 11 10 10 10 9 10 8 10 8 11 12 14 15 19 18 18 14 15 14 15 18 17 20 18 15 15 14 6 10 15 24 17 20 21 28 34
26 26 24 21 20 17 16 12 10 10 9 10 11 9 5 4 8 8 7 10 14 14 19 21 12 13 15 20 19 19 21 19 22 16 24 18 12 16 14 23 8 16 22 30 36
24 23 23 21 20 18 14 10 8 7 9 9 9 6 8 2 6 4 3 13 14 18 24 17 13 22 21 19 25 20 21 18 22 16 30 22 19 18 14 12 19 16 18 21 34
21 19 18 16 15 13 10 6 6 7 11 10 7 8 4 11 8 5 3 14 15 15 17 17 22 28 26 24 23 24 26 24 21 13 26 31 26 23 17 10 14 24 31 25 33
20 18 16 12 10 9 6 8 11 14 14 20 14 11 13 11 5 6 7 11 14 18 17 15 28 23 18 17 20 17 22 23 20 15 21 31 27 20 22 15 17 39 37 16 31
19 18 15 11 7 7 6 7 5 9 15 13 15 15 11 10 10 11 7 11 10 15 18 21 14 12 22 21 23 27 24 23 23 19 20 25 24 32 23 15 20 23 37 24 28
19 17 15 9 2 8 7 2 4 4 7 3 16 11 16 12 13 10 12 15 16 19 16 22 20 22 21 23 22 26 20 22 24 24 17 15 9 35 32 23 26 27 34 34 29
20 18 13 7 6 8 11 11 5 4 3 14 17 7 8 7 6 12 19 16 17 17 15 21 21 23 25 27 18 26 20 21 22 23 26 29 15 16 35 27 35 36 37 37 37
18 16 10 4 6 8 5 6 6 1 6 8 10 7 12 16 7 4 4 7 15 18 20 19 21 21 22 23 23 16 23 22 22 21 18 31 17 14 26 24 32 32 11 37 34
16 12 7 1 3 3 7 12 1 5 14 10 9 6 6 9 9 4 5 6 9 6 14 10 18 22 20 21 27 20 19 14 7 12 9 19 21 22 9 18 25 27 25 33 34
12 9 3 3 3 6 9 6 4 8 17 8 12 7 7 10 6 5 2 4 7 9 15 15 16 14 17 17 16 22 25 15 8 6 9 25 13 23 24 27 24 29 23 28 40
7 5 12 4 7 6 10 2 11 9 12 10 3 4 4 6 5 5 5 9 8 10 13 6 15 16 7 28 22 24 20 28 23 31 14 22 25 26 25 24 24 30 32 26 37
11 14 19 16 5 8 6 4 10 12 4 6 7 6 8 13 4 4 3 5 5 3 4 3 11 10 4 13 20 25 20 8 27 6 6 12 26 17 15 19 28 37 38 32 31
12 9 11 15 14 12 6 6 6 11 11 5 3 4 5 11 10 8 7 5 3 6 10 11 9 24 11 2 12 15 22 11 12 10 4 6 17 28 20 24 30 32 37 36 38
13 10 14 12 9 7 4 7 6 7 6 6 7 4 2 6 6 7 9 9 11 8 2 3 4 17 25 21 11 14 19 15 11 10 16 16 23 26 26 22 20 35 33 28 32
13 9 13 7 8 9 6 11 12 6 6 6 4 5 6 6 8 4 3 7 7 5 3 8 3 9 16 25 17 10 14 26 20 24 29 14 21 13 8 5 27 20 12 32 36
10 5 8 4 7 4 6 5 6 4 7 7 5 2 2 1 1 6 10 8 13 2 6 9 14 9 15 16 18 20 16 12 15 18 22 22 23 31 23 12 6 18 28 17 27
8 6 3 3 12 10 5 0 8 5 11 8 2 8 7 7 10 3 7 9 9 9 8 8 15 20 23 23 20 23 23 22 21 19 22 27 25 11 12 15 19 12 3 13 20
10 8 14 11 10 5 2 6 8 7 0 4 4 5 5 6 8 13 13 10 11 13 9 13 16 16 26 23 25 26 25 25 26 26 27 23 32 30 23 22 23 23 13 4 9
16 15 15 11 7 4 8 6 8 10 2 4 10 9 7 9 14 18 18 17 15 12 14 15 18 14 24 16 18 23 27 25 25 25 27 30 29 26 26 24 21 26 27 15 7

GFSSW_700_spd_060.txt.gz
Wind_Speed
14 14 14 14 15 16 15 14 13 12 11 10 10 11 11 11 12 11 8 8 7 12 16 16 18 19 18 14 8 3 2 4 7 12 21 2 6 12 14 9 7 8 9 10 28
16 15 15 14 15 15 15 16 15 13 12 12 11 12 12 12 11 10 13 10 10 11 14 14 15 20 19 16 15 10 4 9 9 12 9 5 6 10 18 15 12 12 16 17 22
16 17 17 16 15 15 14 14 15 14 14 13 12 11 12 12 9 13 12 14 12 11 14 17 17 18 20 19 16 13 8 0 4 15 7 11 8 10 15 18 15 16 13 18 21
17 16 15 17 17 16 15 14 13 13 13 14 13 11 12 11 7 12 14 16 15 15 17 20 20 23 21 20 15 13 7 4 9 21 4 7 10 13 19 16 14 11 6 12 21
21 20 19 17 17 17 16 15 13 12 13 13 13 12 11 12 12 7 11 16 17 17 15 18 19 20 22 18 13 11 4 7 18 12 12 11 5 11 15 19 15 13 15 12 21
23 23 22 21 19 17 17 17 15 13 12 13 12 12 11 12 11 13 9 12 17 17 15 17 16 11 14 14 9 5 11 14 16 16 12 5 3 13 11 18 12 19 16 20 25
23 23 22 21 20 19 18 17 16 14 13 13 13 12 11 9 9 10 11 13 13 16 15 10 15 19 13 7 6 14 20 16 11 18 15 10 11 11 11 18 15 19 15 30 33
22 23 23 22 20 17 17 16 15 15 14 14 13 12 9 7 10 12 9 12 15 16 16 16 21 17 16 11 14 15 16 14 7 10 16 10 6 11 7 10 14 14 15 23 35
19 18 19 21 21 17 14 14 14 14 13 14 13 11 7 11 8 7 7 11 16 15 19 25 23 22 19 14 16 15 13 11 13 13 12 13 11 13 8 10 8 11 14 23 35
19 18 16 15 16 15 14 12 12 13 13 13 12 8 5 5 4 2 5 12 15 15 27 30 25 24 23 17 18 16 14 14 12 12 13 20 23 17 14 16 13 12 8 23 31
20 19 16 14 13 10 9 10 12 13 15 14 12 12 11 1 3 4 7 13 15 22 32 31 27 29 22 20 17 16 18 20 17 10 16 23 31 25 19 20 9 16 12 17 32
19 19 17 13 10 7 9 12 11 12 15 17 17 20 17 12 9 3 5 16 17 23 28 25 25 23 18 21 19 18 17 19 19 11 16 15 36 29 23 15 18 9 15 16 26
19 17 15 11 6 4 7 7 5 10 12 15 21 21 14 13 11 9 3 13 10 17 22 21 14 12 19 16 16 17 18 16 20 18 20 8 22 26 27 21 26 17 19 22 25
18 16 12 8 2 8 9 8 3 4 6 4 18 17 16 12 7 9 13 15 15 11 15 16 12 15 13 21 19 23 16 21 23 20 14 8 5 30 28 27 27 19 15 23 31
17 14 10 3 8 10 10 11 4 7 1 9 17 13 11 13 8 14 12 11 18 16 17 16 12 11 19 21 17 21 13 18 20 19 16 9 7 8 29 33 31 31 23 11 28
15 11 6 2 9 11 6 6 9 4 2 9 11 10 14 19 10 5 4 9 17 21 23 19 21 15 11 18 18 18 20 19 24 20 6 6 6 9 25 32 35 34 28 21 25
12 8 3 3 2 2 6 9 4 1 8 12 10 6 10 18 11 4 2 5 2 10 19 21 21 20 15 17 18 21 20 6 5 3 5 7 7 10 9 18 31 25 26 21 27
12 10 5 4 4 7 8 11 8 8 15 12 7 9 6 13 12 7 3 2 6 9 9 7 9 17 14 13 13 11 20 13 6 2 3 13 5 9 10 14 16 18 27 31 27
17 19 20 6 8 11 14 16 16 12 13 11 11 6 6 10 11 9 4 2 5 4 6 6 8 14 10 10 15 12 12 13 21 7 2 5 11 6 10 10 27 24 27 33 28
15 18 18 13 12 13 17 22 15 14 6 6 10 7 9 9 10 6 5 12 8 5 2 2 9 14 10 7 16 16 15 7 7 4 4 4 8 15 26 23 20 30 30 30 35
15 20 19 17 13 13 13 7 8 8 5 3 1 4 6 6 8 12 9 4 6 7 4 4 8 14 7 5 12 2 3 7 6 2 5 3 2 12 14 17 18 16 27 34 41
14 17 12 14 14 11 8 6 2 3 8 8 5 5 8 2 5 6 7 10 12 7 4 3 4 20 23 17 15 5 12 11 3 4 5 5 6 13 17 18 11 8 19 31 43
10 10 6 2 13 13 7 5 4 2 3 3 2 4 2 2 4 8 7 5 8 9 3 5 2 10 24 16 9 4 6 13 7 3 4 4 4 14 8 9 16 15 13 23 42
6 4 4 2 5 5 2 5 3 4 6 4 2 5 5 7 6 4 4 1 3 2 3 5 11 9 4 7 14 20 16 13 13 5 15 2 4 5 16 14 7 16 10 20 35
7 6 4 4 6 2 3 1 7 5 5 7 3 6 1 6 10 9 8 8 2 5 4 6 9 15 17 18 20 23 26 23 16 12 7 12 11 12 13 9 8 8 7 2 31
9 12 8 6 6 5 4 6 9 7 3 4 6 5 3 3 5 12 14 13 12 11 8 6 8 13 16 22 24 28 33 34 30 23 15 15 14 6 15 14 6 9 17 4 2
11 15 12 12 8 8 11 8 9 10 4 6 8 6 4 4 7 10 13 15 16 15 9 8 8 11 10 13 21 26 26 28 31 20 19 19 18 20 17 13 13 10 18 21 5

GFSSW_700_spd_063.txt.gz
Wind_Speed
13 13 14 14 14 13 12 12 12 12 13 12 11 12 12 12 11 10 9 10 8 14 17 17 19 21 17 14 12 9 3 6 7 14 11 7 9 14 14 12 10 12 11 21 29
15 15 14 14 15 15 14 13 12 12 12 13 12 12 13 12 11 11 13 11 10 13 16 15 19 21 19 19 15 9 4 9 9 12 13 2 6 5 12 16 16 14 16 23 25
17 17 16 16 15 14 15 15 13 11 12 12 12 13 12 12 11 12 13 14 12 12 15 20 21 21 22 22 17 12 9 2 5 14 12 7 3 4 11 16 11 8 9 16 26
21 20 19 18 18 17 15 14 15 13 12 12 12 12 12 10 6 11 13 15 16 15 16 22 22 24 23 20 16 13 11 2 7 11 10 5 11 6 11 13 10 10 7 8 20
23 23 23 22 21 19 18 17 15 15 14 13 13 12 10 10 11 7 11 16 17 16 14 18 20 20 24 18 16 16 9 1 6 10 2 8 5 7 7 13 13 12 10 8 12
23 23 23 23 22 21 20 19 17 16 15 16 13 12 11 9 10 13 9 14 17 17 16 15 15 13 20 21 20 7 4 8 12 8 6 7 8 3 13 15 13 12 13 10 8
19 20 21 22 23 22 21 21 19 17 17 16 15 13 10 10 10 14 17 12 14 17 15 12 16 18 23 20 16 10 8 8 8 5 9 13 9 4 7 10 14 11 17 14 13
17 17 18 19 20 20 20 20 19 18 16 16 15 13 10 12 12 12 13 15 15 18 18 15 18 21 22 14 11 9 10 7 4 3 8 15 10 6 3 7 8 12 17 16 19
16 16 16 17 18 16 19 19 18 17 17 16 15 13 10 11 9 8 10 13 17 18 21 23 23 22 18 14 13 9 8 7 3 5 8 11 10 11 2 9 7 14 16 17 20
17 17 16 16 15 12 16 18 17 16 17 16 15 11 10 8 7 7 10 16 17 19 25 29 30 26 23 18 11 7 11 10 5 9 6 17 16 18 11 14 5 9 17 18 20
19 17 16 15 13 9 12 12 14 16 18 17 14 14 16 15 12 4 6 16 17 19 29 33 32 32 24 20 16 14 15 17 14 6 14 9 17 24 20 15 12 12 16 17 21
19 17 15 14 10 6 8 10 13 14 17 17 15 20 20 17 13 9 12 15 19 17 26 30 33 25 23 23 18 16 17 18 10 2 9 14 20 18 26 22 15 14 19 16 25
19 16 12 11 8 6 10 14 14 15 14 14 20 23 19 14 15 11 7 16 14 20 24 24 17 24 24 18 20 19 20 14 10 10 14 12 12 13 24 25 23 21 17 18 24
18 14 9 8 7 8 13 15 15 11 7 6 19 24 18 15 14 12 11 14 14 9 23 21 18 17 18 21 18 19 18 12 10 11 7 8 4 11 27 26 27 26 20 19 15
16 10 7 6 8 10 8 9 7 6 1 3 15 19 13 15 10 12 12 14 12 10 16 13 18 20 14 17 16 22 11 11 13 14 13 9 6 5 21 27 30 28 15 22 23
12 6 3 5 7 6 5 3 2 1 1 5 14 16 17 13 12 16 12 11 13 17 15 18 12 10 12 13 14 11 10 15 18 16 6 10 10 6 16 16 24 32 26 19 29
11 6 3 2 0 2 3 10 4 4 2 5 10 13 13 18 14 9 8 4 2 10 20 20 21 18 13 12 12 13 15 3 1 3 5 11 4 4 10 7 6 15 24 24 18
15 11 6 5 6 9 4 9 10 6 12 6 10 11 12 17 11 7 7 9 6 3 5 6 8 17 12 14 15 13 16 10 5 5 5 10 7 2 6 8 13 12 14 22 26
12 10 10 12 14 9 15 23 13 10 13 10 13 11 11 14 13 11 13 12 7 3 2 5 6 10 5 8 15 13 10 14 14 4 2 4 3 7 4 4 6 11 17 23 28
10 10 13 16 15 13 8 17 9 10 8 8 11 9 15 11 15 9 6 6 7 7 4 2 1 4 1 4 7 14 9 8 9 6 4 2 7 12 9 11 12 9 18 21 22
13 18 14 12 10 11 12 11 6 8 7 4 6 6 9 10 11 9 6 5 5 6 5 2 2 1 4 8 13 4 4 4 5 4 6 4 6 6 11 13 10 12 12 24 23
3 9 10 6 4 8 7 7 3 2 5 3 2 1 3 5 6 6 6 4 2 2 3 2 3 5 6 3 6 7 15 9 4 2 4 7 4 5 7 8 12 9 5 9 21
5 5 3 3 3 5 9 4 5 6 5 5 2 0 1 4 4 10 4 2 7 6 1 2 4 4 8 12 8 6 12 11 7 4 5 2 7 8 7 6 12 13 5 6 15
4 3 4 5 3 1 1 6 3 3 2 3 3 3 7 7 5 8 7 3 3 6 5 5 2 2 3 1 8 10 12 8 12 7 6 10 8 5 6 6 8 11 9 5 13
3 5 7 7 7 1 3 3 3 2 2 1 2 2 5 8 8 8 7 5 9 9 10 5 5 5 4 7 11 15 16 15 10 6 6 5 7 3 4 4 7 10 4 7 15
8 8 9 10 9 4 2 7 6 4 1 2 3 3 1 4 8 8 12 9 8 6 6 6 3 7 10 14 16 20 19 19 16 12 19 19 13 8 4 5 8 9 6 9 7
14 12 9 13 10 7 10 9 6 6 5 4 5 2 0 3 6 7 9 8 8 8 5 3 2 5 5 14 19 14 1 1 3 3 12 17 21 17 16 13 14 13 11 7 10

GFSSW_700_spd_066.txt.gz
Wind_Speed
15 14 14 14 14 13 13 12 11 9 8 9 10 9 10 10 10 10 10 11 9 15 17 19 19 19 17 14 11 8 6 9 12 16 13 7 8 16 15 13 10 6 3 24 30
17 17 16 16 15 15 15 13 12 12 10 9 9 9 9 10 10 11 12 12 11 13 16 15 17 20 19 17 14 10 8 8 11 14 15 5 5 10 13 14 15 11 13 27 27
20 20 20 19 18 18 17 15 14 13 13 11 9 9 9 9 10 12 13 13 13 12 18 19 21 21 22 20 17 12 9 4 10 12 12 9 4 1 9 12 13 12 10 24 22
22 21 21 22 22 20 20 18 16 15 15 12 11 9 8 7 6 10 13 14 17 15 17 21 21 22 22 21 16 12 10 3 5 10 12 10 8 6 7 9 6 8 4 14 22
22 23 23 22 23 22 22 21 18 17 16 15 12 10 9 7 10 7 9 14 17 15 14 17 20 21 22 21 17 14 10 4 2 7 10 4 7 2 5 11 13 14 13 12 21
21 21 21 22 22 22 23 23 21 18 16 15 15 11 10 9 9 11 8 12 17 16 16 14 16 16 20 20 19 10 13 9 6 1 4 4 5 2 7 11 12 11 10 14 20
17 17 17 19 19 20 22 22 21 21 19 16 14 13 10 11 10 16 16 10 15 17 15 13 16 19 20 19 19 11 10 9 4 2 3 4 5 4 6 12 6 10 10 15 19
17 16 16 16 17 18 20 20 21 20 20 18 15 13 12 10 11 13 16 14 13 19 21 17 18 18 21 22 19 13 9 8 2 2 5 7 3 4 4 8 11 11 11 18 20
18 17 17 16 15 16 18 18 20 19 18 18 17 13 11 11 11 13 13 14 16 19 23 23 22 22 24 21 17 11 5 8 4 5 4 5 1 2 2 4 7 12 14 16 20
21 19 18 16 15 15 16 15 16 18 18 15 15 11 12 13 13 12 15 19 17 21 25 26 27 28 27 23 14 9 9 8 2 7 5 5 4 11 4 6 2 6 10 13 20
22 20 17 15 13 13 13 12 13 17 17 16 11 15 16 20 17 13 14 20 19 19 28 30 31 33 30 21 18 11 10 11 10 1 6 7 7 7 11 16 11 9 13 13 15
23 20 18 14 11 10 12 12 13 14 13 16 16 17 20 22 18 15 15 22 21 16 24 28 32 27 20 15 14 15 15 16 11 6 5 9 8 7 12 15 16 14 11 15 17
23 19 16 13 10 9 11 10 11 11 12 11 15 20 22 22 15 14 16 16 17 16 21 25 19 24 20 15 16 18 17 14 10 6 5 5 7 8 10 18 22 20 12 17 19
22 16 12 10 8 8 9 9 10 8 6 4 13 23 21 19 17 15 16 14 12 16 16 12 11 26 22 21 19 21 19 12 9 4 3 8 4 8 6 20 22 22 20 20 19
17 12 7 6 7 5 3 4 4 2 2 2 10 22 18 16 16 14 14 16 12 13 19 14 21 20 24 22 21 15 10 10 8 7 7 5 2 4 6 17 22 21 19 19 18
14 9 5 2 2 2 1 1 1 0 2 3 9 23 18 12 11 18 15 14 11 11 9 14 13 20 17 15 16 12 9 5 7 6 3 9 6 4 7 8 11 19 22 19 20
14 8 7 7 4 1 3 7 4 4 3 6 11 17 17 13 11 15 12 13 11 13 16 14 14 11 9 10 12 13 13 3 2 3 5 10 9 3 7 11 15 15 20 25 21
14 8 8 9 11 8 8 7 10 8 11 6 9 16 18 15 14 12 12 12 6 7 13 17 8 15 11 13 12 14 15 7 5 5 6 15 7 6 2 2 4 7 8 19 30
10 7 12 11 11 13 11 18 9 10 14 12 13 15 13 11 12 12 13 12 9 7 4 7 7 14 13 11 14 14 15 17 5 3 4 6 4 11 8 6 3 1 7 12 22
4 12 11 12 9 4 3 17 10 9 10 5 9 10 14 13 14 10 6 7 10 8 7 6 9 10 10 13 13 14 16 10 10 4 3 3 6 6 3 7 7 4 3 13 19
6 5 10 10 5 4 9 11 8 8 8 6 11 11 10 10 12 10 8 9 7 8 8 6 4 5 9 8 6 13 11 8 9 4 7 4 2 5 8 8 6 7 7 5 19
4 6 7 3 5 0 5 7 6 6 5 4 6 8 6 6 7 7 9 7 8 6 4 5 7 9 16 16 15 10 10 12 9 6 5 7 5 2 3 5 6 8 7 7 11
5 3 4 4 2 4 5 6 7 4 3 1 3 3 4 3 2 7 8 7 5 5 6 4 6 9 8 4 5 8 11 7 9 12 5 5 8 6 3 2 4 4 7 5 10
6 6 5 6 5 4 4 7 7 5 3 3 1 1 3 3 6 7 8 6 4 2 4 3 5 5 8 6 5 3 2 5 5 3 9 10 14 8 5 3 4 5 3 4 5
9 9 10 11 9 7 5 4 4 3 2 2 1 2 3 3 6 8 8 7 7 7 7 5 5 5 8 8 7 6 8 7 5 1 2 5 4 6 5 4 1 2 5 4 4
15 12 12 12 12 8 5 7 6 4 2 3 1 1 1 5 7 6 9 8 8 5 4 5 8 8 7 7 7 7 10 11 14 12 12 11 10 8 8 3 1 4 2 3 2
13 13 11 13 13 9 12 11 10 5 5 5 5 3 3 1 4 7 7 8 9 8 6 6 8 9 6 7 3 5 7 10 11 15 17 16 18 18 16 17 12 10 8 5 4

GFSSW_700_spd_069.txt.gz
Wind_Speed
16 15 14 14 13 12 11 10 9 8 8 8 8 8 8 9 9 9 10 10 8 14 15 17 19 18 14 14 12 10 9 12 14 15 12 11 16 16 14 9 9 8 9 20 33
18 18 18 17 16 15 14 12 11 10 9 8 8 9 9 9 10 11 11 12 10 10 15 14 16 18 17 15 15 11 12 11 14 15 13 9 12 15 14 13 7 8 16 30 31
19 19 19 19 19 18 17 15 13 11 10 9 9 9 9 9 10 12 12 13 13 11 17 17 19 19 19 17 16 11 11 10 11 11 11 9 6 6 11 11 10 8 15 32 27
21 21 21 21 21 20 20 18 16 14 12 11 9 9 9 9 7 11 14 15 16 15 17 20 21 21 20 19 17 12 11 7 5 6 7 7 2 3 8 9 12 12 12 23 21
20 20 21 21 20 21 21 21 19 17 14 12 10 9 9 9 11 8 13 16 17 16 14 15 18 20 21 21 17 12 10 5 2 2 3 4 6 1 9 13 11 12 14 20 20
15 16 17 18 18 18 19 19 20 18 17 15 12 9 8 10 11 12 12 16 17 17 15 15 15 17 21 20 19 16 13 8 3 0 2 2 6 5 7 14 11 13 13 15 18
16 15 15 15 15 18 18 17 19 18 18 17 14 11 10 12 12 14 14 18 20 19 15 14 17 18 18 20 21 12 11 11 4 3 2 3 2 2 7 12 11 12 15 17 20
17 17 17 15 15 16 15 15 16 17 17 16 15 12 13 13 14 15 16 15 20 23 22 18 18 20 18 22 18 14 9 8 6 4 7 7 4 3 2 10 7 12 17 19 22
19 18 17 16 15 16 14 13 13 14 14 14 14 12 13 14 16 16 17 16 16 23 25 24 22 23 19 21 14 15 9 12 6 6 7 7 4 2 3 7 8 11 16 20 23
21 20 18 16 14 15 13 12 11 9 12 12 13 12 13 19 21 18 17 19 18 21 26 26 26 26 23 24 18 13 10 13 8 9 7 7 3 4 4 8 8 10 16 21 24
21 21 20 18 14 14 12 10 8 7 9 12 7 15 17 21 22 20 19 21 20 21 28 30 29 32 27 26 11 12 15 11 10 9 5 4 2 3 9 10 10 11 14 21 22
22 22 21 17 13 13 11 8 6 7 6 11 14 15 21 24 22 21 25 23 22 23 26 28 31 28 24 21 20 11 11 12 10 5 4 4 5 6 8 10 15 8 5 17 23
23 21 17 12 10 9 8 7 6 6 5 7 12 18 22 25 22 21 20 19 19 21 25 26 18 25 23 21 17 14 12 12 7 8 7 5 7 5 7 13 19 18 11 13 19
21 20 15 9 7 5 5 4 4 4 2 1 11 19 22 24 19 16 18 16 17 16 16 16 16 26 25 18 17 12 15 10 9 6 7 2 2 3 4 12 20 20 17 13 14
20 15 10 7 4 2 2 1 1 1 1 1 6 22 22 21 19 19 20 15 11 15 19 10 21 24 24 19 18 10 5 10 8 6 3 5 4 3 3 6 19 20 18 18 14
18 12 7 3 2 2 4 3 2 0 2 2 8 22 22 13 20 20 22 16 11 11 16 9 17 15 21 21 16 13 10 6 7 5 7 8 7 2 3 3 7 17 19 19 19
18 11 6 4 2 2 5 7 3 3 2 5 10 20 20 16 18 24 20 18 14 13 15 17 17 17 16 16 18 19 15 7 7 6 7 12 8 4 3 5 5 9 16 18 20
15 8 7 8 7 10 9 7 5 7 7 8 13 18 17 17 18 20 18 14 16 13 15 15 12 17 16 17 15 21 21 8 7 8 11 13 9 7 5 2 5 2 13 22 23
9 7 6 6 6 7 7 12 5 9 7 7 16 18 15 15 15 17 14 12 10 13 7 15 5 15 15 14 17 19 21 17 4 6 12 8 6 11 6 4 3 2 8 14 21
6 6 6 5 7 3 4 15 10 10 8 6 6 10 15 15 15 14 9 12 11 11 9 10 9 12 16 16 17 15 19 16 11 7 9 4 5 2 4 8 7 5 5 10 15
7 5 6 5 4 5 7 12 11 9 7 5 7 9 15 14 14 12 9 10 11 10 10 10 8 7 12 9 14 13 18 13 16 4 6 7 5 1 3 2 5 3 4 6 13
7 2 2 2 3 3 8 9 6 5 6 4 7 8 8 10 10 9 13 8 12 11 8 5 8 8 13 14 13 13 15 16 15 8 5 4 6 3 2 2 2 1 2 7 8
9 5 3 3 2 6 7 7 5 5 5 5 4 5 5 6 6 11 13 12 11 10 9 8 7 9 5 4 6 7 9 12 11 15 9 9 8 10 6 3 0 1 2 2 7
9 8 8 7 6 6 5 6 5 5 6 2 4 4 5 5 5 8 11 10 9 9 9 7 9 4 4 6 8 6 5 5 8 5 9 5 15 16 12 7 4 3 4 2 3
12 14 15 12 9 8 7 6 6 3 4 2 3 3 4 6 7 9 10 10 9 9 8 7 7 7 8 8 7 9 8 4 2 8 3 14 13 17 13 9 5 3 2 3 0
10 13 14 14 13 11 7 8 6 4 3 4 2 3 2 6 7 10 9 9 9 7 8 9 8 10 10 10 10 13 14 13 10 8 9 11 11 13 12 11 8 3 2 3 5
11 12 11 12 11 8 10 10 8 4 5 5 4 4 2 3 4 6 8 9 8 8 8 8 9 9 4 9 6 8 15 13 12 12 13 10 15 14 13 13 12 9 6 5 6

GFSSW_700_spd_072.txt.gz
Wind_Speed
16 16 15 15 14 13 11 10 9 9 8 8 9 9 9 10 10 11 12 11 9 14 16 17 18 17 14 11 10 9 6 10 12 11 12 17 13 13 15 13 10 10 12 23 32
17 17 17 17 17 17 15 13 11 10 9 8 8 9 9 10 12 13 14 12 10 11 14 15 16 16 15 12 11 8 6 9 10 10 12 12 11 8 11 12 9 13 19 26 32
18 18 18 18 17 17 18 17 15 13 11 10 9 8 9 10 11 15 15 15 13 12 17 17 19 18 14 12 11 6 7 9 9 10 11 13 13 8 10 10 6 6 22 31 31
17 17 17 17 18 18 17 17 18 16 14 11 9 8 9 10 6 15 17 17 17 15 18 20 20 20 14 13 13 8 8 6 5 6 7 5 7 12 9 8 8 7 24 30 30
14 14 14 14 15 15 16 17 17 18 17 14 11 10 9 11 14 10 18 19 21 18 16 19 19 17 15 15 13 11 7 4 2 2 2 4 5 5 11 11 10 14 26 32 29
13 13 12 13 13 13 13 13 15 16 17 17 13 12 11 13 13 13 16 20 21 20 18 19 18 16 16 14 13 11 9 5 2 2 2 6 6 7 13 16 13 15 22 27 25
14 14 13 12 11 12 12 11 11 13 15 17 15 13 13 17 16 16 14 21 22 21 18 20 21 18 13 12 15 8 8 6 5 4 4 7 5 6 10 16 13 16 20 22 22
15 14 14 13 12 10 10 10 10 9 12 15 15 13 15 16 17 17 18 21 24 24 23 21 22 15 13 16 15 10 11 12 7 6 7 7 6 5 11 14 14 16 20 22 22
17 16 15 14 13 12 9 8 7 7 8 12 13 13 15 16 18 19 20 18 24 25 25 24 22 15 16 14 14 17 16 15 7 8 9 7 7 3 8 14 10 14 21 24 25
18 18 17 16 13 10 9 6 4 3 7 10 12 11 12 18 20 21 24 23 20 24 25 24 16 16 17 21 23 21 16 17 10 10 9 8 6 4 3 9 12 14 19 23 27
19 19 19 17 13 9 6 3 2 1 5 11 12 15 13 21 22 21 21 23 21 22 19 24 19 23 22 20 11 19 19 16 11 11 9 8 7 6 5 8 11 16 20 24 25
20 19 17 12 9 5 3 1 1 3 2 9 10 16 17 25 25 22 20 17 20 20 19 21 25 19 18 19 16 16 18 15 11 9 9 7 7 6 8 12 12 12 14 22 23
20 19 15 9 5 3 1 2 4 4 4 5 11 16 15 23 19 26 24 14 17 19 22 20 15 20 21 20 18 17 19 17 9 10 8 7 10 5 7 12 16 15 12 20 24
20 17 13 8 2 1 0 1 3 5 5 0 5 15 19 19 13 18 21 14 14 18 17 18 15 22 21 21 20 18 17 15 14 11 15 12 10 10 6 12 16 16 16 17 23
20 17 12 6 3 1 1 4 7 8 5 1 4 16 15 20 17 19 18 14 13 14 17 16 22 20 23 21 19 12 15 15 14 15 8 11 12 10 7 6 10 18 21 18 20
17 13 10 5 1 1 2 5 7 3 5 2 6 17 19 16 13 20 21 14 12 13 15 10 16 17 22 20 18 12 13 12 12 16 15 15 18 10 6 3 4 11 18 19 20
14 10 8 6 4 1 4 10 3 3 1 4 7 16 18 16 13 21 21 16 14 15 18 11 14 18 21 20 18 17 18 14 12 12 11 21 14 8 5 3 3 11 21 21 21
10 9 8 7 8 12 10 5 3 3 3 2 8 17 16 16 14 19 17 15 12 10 19 18 17 18 18 22 21 23 24 13 11 12 16 13 13 7 5 3 3 6 14 19 22
10 11 8 10 8 8 6 6 4 3 3 2 12 15 13 11 13 16 13 9 10 17 9 20 11 13 14 16 16 24 27 19 9 5 19 17 8 10 6 4 5 4 11 14 19
8 7 4 6 9 7 4 8 4 8 8 7 13 9 13 11 14 13 9 8 8 17 17 10 8 13 15 19 20 13 21 18 15 12 14 16 20 9 3 8 9 8 10 13 14
5 3 2 2 4 5 6 6 5 7 6 4 6 12 10 9 10 8 6 8 12 14 13 10 9 10 16 12 15 21 15 18 21 12 14 9 9 3 4 12 10 11 9 10 19
6 1 2 2 3 3 5 5 7 14 10 4 5 10 15 9 9 6 9 11 11 12 10 10 6 13 11 14 18 17 12 19 20 16 14 10 9 6 7 7 11 11 10 9 12
6 3 2 2 1 4 4 3 6 5 11 11 5 7 13 14 7 10 14 12 14 11 10 10 6 12 10 7 10 10 9 12 15 10 24 14 12 10 9 6 6 8 8 8 10
10 3 10 7 6 6 6 6 4 6 7 7 8 8 7 7 8 12 14 17 15 12 9 9 8 2 2 6 11 8 6 4 12 21 14 13 19 14 11 10 9 8 7 7 6
9 12 11 5 6 7 5 5 4 2 5 5 5 8 7 5 6 7 9 12 14 15 12 7 6 6 5 6 6 7 5 2 6 11 11 16 17 14 12 15 12 10 10 8 6
7 10 11 11 10 9 7 6 6 4 4 4 5 5 8 8 7 8 8 7 7 14 13 13 7 8 5 8 5 6 6 6 5 5 8 15 16 11 15 14 14 12 9 9 9
7 8 10 9 8 5 6 5 4 4 5 4 4 5 4 7 9 8 13 12 12 8 6 6 9 10 13 7 6 12 15 10 11 10 11 14 14 18 16 17 14 12 11 10 9

GFSSW_700_spd_075.txt.gz
Wind_Speed
16 16 16 16 16 15 14 12 12 12 11 9 9 10 10 11 13 14 14 12 10 15 15 17 17 15 12 7 4 3 5 10 9 9 20 19 17 14 14 11 9 7 10 24 29
16 17 17 17 16 17 17 16 14 13 12 11 10 10 11 11 13 15 15 12 11 15 16 16 15 13 13 9 7 2 9 11 10 11 16 17 16 14 11 14 8 10 20 26 30
16 16 16 17 17 17 17 16 17 16 14 12 11 10 10 11 10 16 15 15 13 15 17 16 14 15 11 10 9 6 7 8 11 10 8 12 13 10 15 9 10 14 25 29 29
10 10 11 13 14 15 17 17 17 18 17 14 12 11 10 11 4 16 17 17 16 17 21 18 17 16 13 12 10 6 7 6 8 9 9 6 7 8 11 12 11 16 23 30 29
9 9 10 10 9 10 13 14 16 18 18 17 15 13 11 12 11 10 18 19 20 18 21 19 18 16 14 13 11 7 8 5 6 5 5 8 10 8 11 13 9 17 25 29 27
11 11 10 10 10 9 8 10 12 15 18 19 17 15 14 11 21 15 16 20 20 19 19 18 16 15 15 15 14 12 9 5 4 5 4 6 8 11 10 12 10 20 28 29 27
12 11 12 10 10 10 9 9 9 11 15 18 19 17 16 15 18 16 14 19 20 19 18 17 14 16 10 14 17 10 13 8 6 7 6 9 9 7 14 15 13 22 29 27 25
13 12 11 10 10 9 9 9 9 9 12 16 17 17 11 22 17 16 16 20 22 21 16 17 17 16 12 14 16 13 14 16 12 10 8 11 8 14 16 16 16 23 26 26 25
15 14 13 11 9 9 8 8 8 7 10 14 15 16 11 16 18 19 18 19 23 18 17 22 18 16 15 17 17 18 19 17 14 11 9 14 15 16 17 19 20 24 25 24 24
17 17 15 13 10 9 8 6 4 4 8 10 12 13 17 18 19 20 19 19 19 19 19 20 14 18 19 21 26 23 22 21 13 13 12 13 13 15 17 17 15 22 28 25 24
18 17 16 15 10 6 6 4 2 4 8 11 6 5 5 16 20 20 21 20 18 16 17 18 19 24 21 22 22 19 22 18 12 14 14 14 13 16 15 15 19 18 24 24 25
19 17 16 13 8 3 5 5 9 12 3 12 11 12 13 17 18 18 21 20 20 19 20 17 25 19 17 18 20 19 23 19 14 11 12 9 7 10 16 15 12 17 19 24 25
18 16 14 10 4 2 5 5 9 8 4 9 12 14 14 18 16 21 23 17 19 19 22 19 15 19 19 19 19 20 21 21 17 15 16 11 14 13 15 14 18 12 17 16 27
18 15 12 8 4 3 2 5 6 8 5 8 10 13 15 15 17 20 22 17 17 19 19 21 17 21 21 22 20 22 20 17 16 19 19 19 11 20 21 17 21 19 16 21 25
17 14 11 7 3 4 6 5 10 11 6 5 8 10 13 19 15 23 21 18 14 17 20 20 19 19 22 22 21 16 18 16 17 20 16 16 15 16 20 22 17 18 20 19 16
13 12 11 9 7 1 4 7 8 6 3 4 7 12 18 21 13 18 21 18 12 16 18 17 16 19 22 21 21 10 14 16 17 20 22 15 24 13 15 19 18 16 19 22 21
10 10 12 11 1 2 9 6 6 6 4 5 9 15 18 19 15 18 23 21 16 19 19 20 14 21 20 23 22 18 20 17 14 15 13 24 23 11 7 10 10 10 18 19 25
9 8 11 10 9 10 7 4 11 4 6 2 8 14 20 19 15 18 22 21 19 17 16 23 18 23 22 27 23 25 27 22 12 13 17 20 16 14 11 11 10 6 14 21 23
5 9 11 7 8 5 4 4 7 2 2 1 9 17 16 12 13 21 21 18 16 13 8 21 16 22 20 21 24 25 31 29 19 19 21 20 14 15 11 9 9 17 13 17 21
6 3 5 5 6 6 4 8 4 3 3 2 11 9 12 18 17 19 16 10 7 10 5 4 13 19 18 13 19 18 26 30 21 17 15 23 24 16 15 7 11 12 23 26 30
11 2 11 3 7 7 5 5 4 3 4 4 5 9 7 10 12 18 11 5 10 10 11 5 13 16 15 23 20 19 16 31 21 26 14 10 13 15 15 12 15 15 16 23 29
5 5 13 3 2 1 3 2 4 3 2 5 4 4 10 4 9 7 10 3 11 7 9 10 10 13 19 15 17 13 23 24 24 26 24 13 12 9 11 18 16 15 15 18 22
2 4 6 3 4 0 3 3 5 3 3 4 3 7 8 9 3 13 2 8 10 6 8 7 13 9 9 11 19 17 17 17 25 25 21 23 16 13 11 16 20 15 15 16 22
6 1 8 7 5 4 4 2 1 3 1 4 4 4 9 12 9 8 12 8 10 6 9 16 7 5 7 3 22 25 18 19 17 20 19 18 27 20 11 14 15 14 12 14 13
5 4 6 2 5 5 4 3 3 1 3 2 2 6 7 8 13 11 10 9 16 14 7 9 15 17 6 3 3 17 17 16 22 21 17 20 21 20 18 15 13 12 10 10 9
4 4 8 6 7 6 5 5 3 2 3 3 4 2 6 7 5 11 10 10 10 9 8 10 7 10 15 11 3 7 10 8 12 13 13 17 20 17 15 15 12 11 12 13 10
5 7 8 5 5 1 2 2 2 3 5 4 4 4 6 7 5 7 8 8 9 8 10 10 13 12 19 16 10 16 14 12 11 11 10 17 21 16 14 13 11 9 15 16 14

GFSSW_700_spd_078.txt.gz
Wind_Speed
14 15 16 16 16 16 15 14 13 11 11 10 10 10 11 12 13 14 13 11 10 14 15 17 16 12 8 6 2 6 5 11 7 9 20 25 19 20 13 19 18 7 18 29 31
13 13 14 15 16 16 16 16 16 14 12 11 11 11 11 12 13 14 14 11 11 15 17 17 13 12 10 9 10 8 11 13 10 10 24 22 21 15 14 18 9 15 25 29 29
9 10 11 12 14 16 17 17 16 17 15 13 12 11 10 11 11 16 14 13 12 14 18 15 13 11 11 9 11 8 7 13 12 15 17 19 20 17 14 12 10 26 27 30 27
10 10 10 10 11 12 15 16 18 17 18 16 14 12 10 9 3 15 15 15 15 16 21 16 14 14 12 13 12 3 6 9 10 6 9 12 14 14 10 14 16 14 27 31 27
11 11 11 11 11 11 11 13 15 18 18 19 17 14 13 12 12 6 16 18 18 16 20 18 16 16 13 14 12 5 3 7 7 4 4 6 12 12 12 16 16 21 28 29 26
12 12 11 11 11 10 10 11 12 15 18 19 19 17 15 13 21 11 12 18 18 16 19 17 15 16 10 9 12 13 16 8 6 11 8 10 10 11 17 17 18 23 27 28 25
12 13 12 10 11 10 9 10 10 11 15 19 20 20 19 15 22 15 14 17 18 18 15 16 12 15 13 11 14 8 11 8 9 10 9 13 13 10 19 18 20 22 28 27 25
14 12 12 10 10 10 10 10 10 9 11 15 18 19 18 20 20 16 16 16 20 20 13 14 14 16 15 10 14 16 14 19 16 14 12 10 10 19 15 20 25 28 29 28 26
15 14 13 11 11 10 10 9 9 7 7 12 16 16 11 22 17 13 14 15 20 20 16 13 16 15 15 15 15 20 19 20 13 14 15 16 9 13 21 20 26 29 31 29 27
16 14 12 12 10 9 9 7 4 4 6 10 13 12 15 17 15 15 14 16 18 17 15 17 15 15 18 20 24 23 23 19 24 18 19 21 20 19 22 21 26 30 30 27 26
17 16 13 10 8 7 6 3 4 13 4 12 4 12 5 10 16 16 18 18 17 20 20 18 16 22 21 22 20 20 19 19 18 20 19 15 8 5 17 19 28 33 33 31 30
17 15 12 10 7 3 5 8 7 7 6 13 6 7 4 17 18 17 19 20 22 22 19 14 23 18 18 18 22 23 24 21 19 12 19 16 5 18 20 20 22 29 32 33 28
18 15 11 9 5 1 6 2 10 4 6 10 13 15 13 16 16 20 22 19 20 21 22 23 13 20 19 19 20 22 22 18 19 16 19 7 17 21 25 21 17 19 25 25 25
17 15 12 7 3 6 9 6 4 5 5 14 12 14 17 14 15 18 20 20 15 20 20 21 17 17 21 22 20 22 21 18 20 24 18 18 17 27 25 26 26 19 24 27 25
14 12 9 7 5 9 8 4 6 0 6 8 10 7 14 19 13 21 20 20 13 16 21 22 21 16 23 21 20 21 19 16 10 21 15 21 13 23 24 30 28 22 19 27 28
11 9 11 7 11 9 7 6 4 5 3 7 8 12 16 18 15 19 20 20 14 15 19 19 17 19 20 19 18 22 11 20 11 19 17 23 23 16 30 25 23 18 19 24 23
10 10 13 11 6 5 4 3 6 7 4 3 10 11 18 18 17 21 20 22 20 14 20 19 20 22 16 19 21 22 16 14 12 14 10 22 22 11 12 17 24 21 22 21 22
8 9 10 11 12 7 5 5 8 7 10 7 3 10 18 18 20 19 18 21 20 18 17 20 22 19 21 25 24 27 25 18 16 13 16 23 21 17 12 19 17 12 15 20 23
4 12 14 12 9 6 6 8 2 9 6 3 4 13 16 19 17 15 19 20 18 16 13 15 27 25 24 24 26 25 30 27 25 25 23 16 12 18 19 24 28 24 19 28 30
7 4 3 2 2 5 9 10 2 4 5 4 8 8 13 14 10 12 17 14 3 6 9 3 13 20 24 23 24 14 26 27 30 10 18 17 27 21 18 15 26 30 30 33 35
10 8 6 5 2 11 8 4 6 7 4 8 3 9 10 6 5 4 13 4 5 3 4 6 6 8 20 22 23 15 21 17 25 28 17 6 9 18 19 11 24 28 23 30 33
8 9 10 2 8 4 2 5 5 7 5 4 4 1 3 2 3 7 6 2 6 6 7 7 7 12 19 17 22 19 20 19 27 29 28 16 5 6 12 17 18 24 23 24 26
8 3 8 3 5 4 2 2 1 3 3 3 3 5 3 2 1 9 12 8 2 1 7 6 11 11 10 16 14 21 20 20 23 32 31 9 16 16 24 20 18 19 19 19 20
7 2 6 7 5 5 2 3 3 4 3 1 0 1 8 5 5 2 8 3 4 2 7 9 13 4 3 12 13 24 23 21 18 21 22 7 28 17 19 21 17 17 16 18 18
6 3 2 5 5 5 4 3 2 3 2 1 4 4 7 6 8 8 7 8 3 7 4 6 11 8 8 11 13 12 28 21 17 19 14 25 19 16 15 18 17 16 14 14 17
2 1 4 4 5 3 7 3 2 1 3 2 1 4 6 4 13 13 5 6 7 8 6 6 12 10 13 12 10 12 10 13 19 19 16 12 22 19 13 15 15 14 13 13 12
2 6 4 6 4 2 4 1 1 1 3 1 1 1 3 5 6 9 2 4 7 5 7 10 8 7 13 16 12 13 3 6 7 9 14 18 24 19 17 15 11 12 13 13 12

GFSSW_700_spd_081.txt.gz
Wind_Speed
14 14 14 14 14 14 14 14 13 12 11 9 9 9 10 12 14 13 10 11 12 18 16 17 16 13 15 16 8 16 5 4 9 13 30 34 33 20 25 24 20 13 20 32 30
11 12 13 14 15 16 15 14 14 14 13 12 10 9 10 12 13 11 14 11 12 16 18 18 17 16 12 13 14 10 5 5 1 6 27 34 25 13 20 19 14 21 28 36 28
11 11 11 11 13 15 16 16 16 15 16 14 12 10 10 11 12 12 13 13 12 15 18 18 16 9 12 8 7 11 12 5 12 12 22 28 19 12 24 15 13 22 35 40 29
11 11 12 12 11 11 13 15 17 17 17 17 15 13 11 10 10 13 14 15 14 17 21 25 18 13 11 9 10 6 2 13 5 11 18 20 19 17 14 18 16 10 31 36 29
12 13 11 12 13 12 11 11 13 17 18 18 18 16 14 13 15 5 12 17 16 16 21 24 22 14 12 10 15 6 5 10 8 8 11 13 13 11 14 16 27 13 34 32 28
13 12 13 12 12 12 12 11 10 12 17 18 19 19 17 13 17 15 8 16 17 14 19 23 22 14 8 9 22 8 9 10 16 5 8 12 12 14 14 20 18 19 36 31 30
15 14 12 12 12 11 12 12 11 10 12 15 18 20 20 15 20 15 11 14 17 16 18 21 19 13 11 8 15 6 9 15 17 10 11 10 12 15 18 23 23 19 34 30 27
15 15 13 12 11 11 11 12 11 10 10 12 16 19 18 21 20 17 14 13 18 18 17 21 17 12 16 13 10 15 12 10 15 25 15 8 10 11 21 21 27 22 34 29 29
13 13 13 11 10 10 11 9 9 8 8 9 14 18 15 21 21 17 13 15 18 20 19 15 12 14 19 14 11 15 18 19 14 24 16 13 8 22 22 18 21 25 34 31 30
15 13 11 9 8 8 7 5 2 5 5 6 9 8 14 14 17 16 14 15 21 23 21 16 18 19 21 16 18 17 21 20 18 15 19 23 11 12 15 22 22 27 34 33 29
14 13 12 9 6 6 2 7 3 7 3 3 6 9 4 5 10 15 15 13 11 17 17 18 22 25 28 20 19 19 18 17 11 19 23 19 5 11 18 26 29 31 33 35 34
17 14 10 8 5 2 7 6 2 7 11 12 7 12 5 9 13 18 20 23 23 23 18 16 23 17 14 14 18 20 21 18 18 20 7 14 16 14 22 30 32 35 36 33 33
18 16 11 7 5 6 4 6 7 9 15 5 13 12 3 14 17 19 25 19 21 21 22 24 7 17 20 18 21 22 22 19 25 23 13 6 12 14 21 27 33 31 36 35 34
17 15 12 7 3 12 9 10 13 8 10 5 8 14 14 15 16 14 19 20 18 20 19 19 18 16 18 23 20 23 18 18 23 23 21 22 11 22 27 30 25 31 34 37 37
14 13 10 4 5 7 5 5 10 5 3 11 7 4 17 15 11 16 18 24 17 11 20 23 19 20 21 21 19 22 19 16 19 18 22 29 11 30 29 27 25 26 21 31 36
12 10 11 6 9 12 12 7 7 4 5 8 7 12 15 16 17 17 17 21 14 13 18 19 17 16 17 19 17 16 20 20 18 15 14 25 35 19 39 33 28 26 21 22 32
9 9 13 11 10 15 14 12 8 4 5 5 7 8 14 13 14 21 18 18 19 11 16 20 21 20 19 18 18 23 14 9 5 5 4 24 16 10 25 33 27 18 15 28 32
9 9 10 14 17 16 16 13 6 10 8 11 11 13 14 16 16 27 16 16 18 19 14 16 15 19 19 22 18 26 19 14 4 3 10 22 9 11 13 30 20 15 16 26 23
5 13 8 8 15 15 9 12 2 1 9 15 17 8 14 18 17 22 16 15 15 15 19 8 20 18 22 18 20 22 25 25 18 21 13 10 22 25 22 28 28 29 29 29 33
7 4 10 11 6 8 9 5 1 6 10 12 13 9 8 11 16 20 16 4 13 3 9 2 16 17 13 20 24 27 19 22 19 2 3 13 19 16 25 30 29 26 27 30 30
7 8 6 6 6 12 9 7 2 7 2 7 14 10 4 4 13 10 9 5 7 6 5 1 4 10 17 28 27 19 16 15 9 7 6 4 5 11 27 26 24 29 30 32 31
2 6 8 7 5 12 2 4 4 5 8 5 6 11 5 11 5 4 11 10 3 5 1 4 5 9 8 9 22 14 9 22 13 8 3 6 6 8 17 21 19 26 27 31 29
6 5 11 7 7 3 3 3 3 1 5 7 5 2 9 2 3 6 8 5 11 2 2 3 0 6 5 8 11 14 19 14 16 15 14 14 8 17 19 17 14 18 22 19 19
5 6 6 5 3 8 4 3 3 10 2 2 4 6 2 2 5 5 6 3 5 1 6 6 1 6 9 6 10 10 11 18 18 17 6 15 19 22 23 24 22 18 23 19 16
10 6 2 7 3 7 5 5 3 5 8 9 6 6 1 2 6 2 5 1 5 8 6 3 4 8 1 11 10 18 17 20 20 17 0 20 19 26 25 21 21 17 17 14 13
6 7 4 8 7 1 7 7 4 2 5 7 4 6 4 4 9 3 2 11 6 2 1 3 6 5 16 10 8 18 13 14 21 9 6 18 17 13 13 13 14 13 12 11 11
5 11 5 2 11 1 7 2 2 3 4 2 3 7 3 10 8 8 4 6 7 4 4 2 5 3 4 7 14 13 10 12 13 8 15 15 17 16 10 13 15 16 14 12 12

GFSSW_700_spd_084.txt.gz
Wind_Speed
11 13 13 14 14 15 15 14 14 13 12 11 10 10 11 12 13 12 9 11 12 19 18 19 16 17 14 8 8 9 5 3 3 12 34 28 30 31 23 19 15 12 12 26 24
9 10 10 11 13 15 16 16 16 16 15 13 12 11 11 12 12 10 15 13 14 16 19 20 19 18 13 8 6 1 7 5 7 21 41 32 28 32 27 24 19 14 24 21 21
10 10 10 10 9 10 13 16 17 17 17 16 15 13 12 11 10 13 13 13 14 15 20 22 23 16 13 10 13 7 12 12 12 23 32 28 17 30 22 22 18 20 30 23 21
12 11 11 12 11 10 10 11 14 16 18 18 18 16 13 11 7 13 15 15 14 16 24 28 25 23 17 7 7 6 4 10 15 23 28 23 14 16 15 12 12 17 24 24 17
12 13 13 13 12 12 11 10 10 13 16 18 19 19 16 13 12 7 15 16 16 15 23 25 25 24 19 8 7 4 7 6 14 17 23 18 10 16 14 17 20 25 25 27 18
11 10 12 13 12 12 12 11 10 10 13 15 18 20 19 14 17 16 10 16 16 15 21 24 24 19 17 8 7 4 3 11 17 18 17 14 14 10 19 13 25 32 22 21 24
13 12 9 10 11 10 11 11 10 10 10 13 16 19 20 15 18 19 14 17 19 15 17 19 22 19 12 8 12 13 12 13 16 18 17 14 15 13 11 19 24 37 28 25 14
12 12 12 10 8 9 9 10 9 8 10 11 13 17 17 18 21 14 17 15 20 20 18 24 20 18 15 13 6 12 13 17 14 23 16 11 14 24 23 26 25 33 34 27 21
13 12 11 11 8 7 7 7 6 6 7 9 9 11 16 24 20 13 12 14 19 21 24 26 24 21 17 15 12 11 18 16 7 20 18 12 13 9 29 28 22 33 33 32 32
12 11 11 10 9 6 5 2 2 1 2 4 4 5 7 14 15 15 13 15 21 24 28 33 25 25 24 18 17 14 18 13 10 20 19 15 11 3 18 29 28 32 34 33 29
12 11 9 9 7 4 6 3 2 4 4 4 7 11 10 11 13 17 13 17 24 31 30 32 26 31 30 24 20 13 10 6 10 21 17 16 11 5 11 31 28 27 36 33 34
14 13 9 8 5 1 8 2 6 9 7 7 9 14 14 14 7 16 23 21 29 31 26 23 27 27 23 23 21 15 12 7 11 17 14 18 14 9 15 22 30 29 38 35 35
14 13 11 5 3 6 6 3 7 8 11 2 11 16 13 11 11 20 23 17 19 23 21 20 15 13 21 26 21 16 13 9 13 17 14 11 11 19 21 23 25 33 35 34 36
13 11 8 3 7 6 5 4 10 6 8 2 6 14 13 8 11 17 24 22 24 22 17 20 16 13 19 24 20 18 12 12 16 19 16 13 7 19 21 28 26 32 37 35 38
10 10 8 5 3 5 6 4 8 4 4 3 5 11 15 15 12 12 23 23 14 19 21 17 14 18 19 21 17 22 13 16 17 25 20 20 4 14 21 30 29 31 35 38 35
7 9 9 7 7 12 12 9 7 4 4 7 6 5 12 19 19 14 13 24 18 15 20 20 16 14 17 16 17 17 14 12 15 26 11 15 17 11 31 34 31 29 33 32 32
5 9 16 15 16 15 15 10 8 6 3 12 6 2 9 13 17 10 22 16 21 10 14 16 23 19 18 19 16 22 16 5 5 6 6 21 17 25 28 28 29 25 18 23 29
4 8 13 14 10 8 12 9 9 4 3 19 21 9 17 15 11 13 21 12 20 15 12 4 12 17 11 19 17 19 15 6 5 4 8 9 8 9 29 29 28 27 18 23 29
8 7 5 9 12 14 14 14 9 9 9 20 16 10 11 16 12 15 23 12 18 15 11 4 5 13 16 13 16 17 15 17 10 14 7 9 9 13 24 30 31 34 33 22 27
10 8 10 8 11 14 13 9 8 9 9 10 18 9 5 2 4 24 22 10 11 5 9 5 8 17 14 15 20 21 11 7 11 2 3 5 7 7 21 33 38 38 35 27 29
7 5 7 5 4 11 5 7 4 6 9 8 12 10 8 8 10 8 8 11 12 11 10 5 4 10 9 11 18 23 18 11 3 3 6 5 1 10 22 30 35 34 28 26 26
6 7 3 2 2 7 5 5 2 5 4 4 4 7 12 10 6 4 8 9 10 6 4 2 2 6 7 5 15 21 6 11 16 6 2 7 6 8 21 25 25 25 22 24 22
5 9 9 5 5 4 4 1 2 6 1 11 9 7 4 5 4 8 6 5 8 9 6 2 5 2 2 8 11 6 1 1 2 4 13 8 8 17 15 21 18 20 21 23 22
8 8 11 4 3 5 4 7 4 7 1 2 6 5 4 9 9 7 10 3 5 5 7 6 2 5 5 4 10 15 8 6 5 5 5 8 11 16 18 18 18 21 14 16 18
10 8 5 8 1 6 3 3 2 4 3 4 8 6 3 6 11 9 5 6 5 6 2 4 5 3 21 4 10 12 18 9 14 9 9 13 15 15 20 21 22 20 16 13 17
8 8 9 7 2 2 3 2 3 1 3 7 2 3 1 10 7 8 9 9 9 5 8 5 3 3 2 24 11 16 16 10 8 10 11 10 19 19 19 18 19 19 19 20 16
9 8 7 2 7 4 4 2 3 3 3 2 4 4 2 1 10 6 10 9 7 4 4 3 2 2 4 6 22 6 14 13 4 10 16 23 19 21 17 16 15 15 15 15 17

GFSSW_700_spd_087.txt.gz
Wind_Speed
10 9 10 11 13 15 16 17 16 16 14 13 12 11 11 12 12 11 9 12 14 18 19 19 16 15 13 8 7 6 4 2 6 17 34 26 25 21 15 17 14 13 19 26 29
9 9 9 9 10 11 13 15 17 18 17 16 14 13 12 11 11 10 15 13 13 16 18 19 17 18 13 6 4 7 4 4 2 17 34 24 23 21 21 17 16 15 27 26 25
10 10 10 10 10 10 11 12 14 17 18 18 17 15 13 11 11 13 13 14 13 15 22 23 21 15 13 12 13 10 8 7 5 22 32 26 16 23 20 15 10 23 28 26 25
12 12 12 12 12 11 10 11 12 13 17 18 19 17 15 12 8 13 15 15 15 17 25 27 27 20 16 13 11 12 8 6 14 31 28 22 16 19 13 16 9 12 19 24 19
10 11 12 12 13 13 12 10 11 12 13 17 19 19 17 14 12 12 16 17 16 16 24 27 26 19 14 17 10 6 6 7 21 28 21 14 16 12 11 15 12 17 24 18 20
11 10 11 12 12 12 11 11 10 11 11 12 18 19 19 16 17 13 18 19 18 16 23 26 22 17 11 9 4 5 8 9 21 23 19 14 13 15 12 18 18 19 23 21 19
12 11 11 10 11 11 11 10 10 9 9 10 14 19 19 19 19 20 13 20 21 17 20 23 24 22 14 10 2 6 5 7 18 27 17 15 13 12 19 19 18 23 23 23 20
13 13 13 12 11 11 10 10 9 8 8 8 10 16 16 23 21 16 17 16 22 22 24 25 25 21 16 9 6 5 9 14 15 21 15 16 14 10 21 24 23 24 22 20 22
10 11 12 13 10 9 8 8 8 6 6 6 7 12 14 21 16 15 17 17 23 23 30 30 28 23 16 14 10 11 16 10 11 14 18 14 15 9 16 26 26 26 24 24 14
9 9 11 12 10 6 5 5 6 5 3 4 7 8 11 18 17 16 15 18 26 28 32 31 27 25 21 16 14 13 11 9 11 18 19 17 10 14 19 27 31 28 25 24 19
11 9 8 8 7 3 2 2 2 5 6 7 8 14 12 15 20 15 16 20 28 31 37 32 28 30 27 22 13 11 7 3 8 6 25 17 11 12 22 27 28 35 32 28 24
12 10 7 6 3 3 4 5 3 10 7 8 8 14 15 17 23 20 21 25 31 34 35 32 32 31 24 22 19 13 5 2 9 13 19 15 10 13 17 26 29 36 35 33 27
11 10 8 3 1 5 5 3 4 9 10 1 5 14 15 14 14 24 24 21 30 34 32 31 22 29 28 23 21 16 8 7 3 12 12 10 15 15 23 22 27 32 36 35 30
10 10 7 2 4 3 5 2 8 5 3 3 6 12 9 10 11 23 24 21 23 29 28 25 24 17 22 25 24 21 11 6 6 15 16 18 7 23 25 23 28 30 39 40 36
9 8 4 3 1 3 2 3 2 4 3 3 6 4 8 9 11 23 19 18 10 22 23 17 19 18 17 25 24 23 14 7 11 16 15 20 6 6 22 25 28 30 36 41 40
6 6 5 8 10 9 7 5 3 1 5 9 4 4 12 11 13 16 22 18 14 17 19 21 15 13 15 18 19 18 11 11 14 23 8 21 20 8 18 19 25 27 32 30 37
2 9 11 14 8 6 5 5 3 3 6 13 9 6 8 18 16 11 21 27 19 12 15 20 21 17 17 14 13 16 14 3 1 4 6 20 17 16 11 16 21 25 27 32 36
3 9 8 7 5 5 7 5 5 3 11 14 13 2 14 12 18 11 18 17 14 12 5 5 7 19 18 17 12 14 16 9 6 5 6 8 10 13 14 17 22 26 27 27 30
6 7 4 9 13 11 12 17 7 2 8 14 9 9 9 13 10 13 16 18 13 19 9 7 4 13 13 14 12 17 14 16 5 4 4 6 8 14 17 19 24 28 29 31 31
10 11 7 5 9 10 9 11 6 6 8 8 10 10 6 11 11 15 18 12 8 13 19 10 7 9 13 13 13 14 11 11 8 4 3 1 5 9 18 21 26 29 31 31 29
7 6 5 7 6 5 8 9 7 4 5 6 8 6 7 9 10 15 11 9 12 8 11 11 6 4 8 6 11 12 15 7 6 4 6 4 5 16 13 24 26 31 33 34 30
8 6 5 2 1 7 4 5 4 4 3 1 3 2 7 9 9 10 7 6 11 9 2 4 3 2 5 1 9 11 9 13 12 5 4 4 7 15 17 21 29 33 31 26 23
10 7 7 4 3 6 5 2 1 5 0 3 3 3 8 5 7 16 5 5 4 12 5 2 2 3 10 11 12 9 5 7 10 14 12 8 4 17 21 21 21 21 20 21 18
7 9 9 6 4 6 7 3 3 1 3 4 3 4 2 5 10 12 8 5 3 6 5 4 5 2 10 15 14 13 8 2 4 7 11 13 12 17 16 16 17 18 18 16 21
12 13 8 10 6 1 1 1 4 1 1 1 8 5 6 7 13 8 6 6 5 6 6 4 6 9 13 7 15 16 15 2 6 6 7 10 13 16 13 15 20 21 20 17 13
9 12 9 7 4 5 4 5 5 3 4 4 4 5 5 8 8 11 14 9 6 9 8 11 6 9 10 24 11 10 15 8 6 11 10 8 14 14 16 19 20 23 23 18 15
11 10 9 3 4 5 2 4 4 4 6 3 3 5 7 7 11 10 8 9 9 7 8 9 9 7 4 9 24 19 11 15 8 8 11 15 14 13 17 15 15 15 18 20 21

GFSSW_700_spd_090.txt.gz
Wind_Speed
8 8 8 8 9 11 13 15 16 16 15 14 13 13 12 12 12 10 9 13 13 17 18 17 16 15 10 6 6 3 3 2 5 22 29 20 21 18 13 16 17 19 21 24 27
9 9 9 9 9 9 10 13 15 16 16 16 15 14 13 12 12 11 14 12 13 17 18 17 17 17 13 9 3 5 4 2 7 17 28 21 23 22 23 21 21 15 25 26 24
11 11 11 10 10 10 10 11 11 15 16 17 17 15 14 13 12 14 14 13 13 16 21 21 18 18 11 13 9 8 5 2 10 22 22 23 22 22 19 19 10 15 24 24 23
12 13 13 12 12 12 11 10 11 11 15 17 17 17 15 13 9 14 15 15 16 17 22 23 23 21 16 15 12 9 7 2 13 28 27 15 16 18 14 15 10 12 19 23 20
14 14 14 13 13 12 12 12 11 11 11 15 17 17 17 15 14 13 17 18 18 17 21 23 23 18 20 13 12 8 5 5 18 31 23 13 18 13 18 15 18 22 22 21 21
14 15 14 14 13 13 12 11 11 10 10 11 16 18 18 17 16 13 18 19 18 16 22 24 23 14 17 13 12 7 6 9 20 26 20 11 22 21 14 17 22 26 22 20 18
15 15 16 15 14 13 12 11 10 9 9 10 12 17 18 18 19 15 17 21 22 20 22 25 23 15 13 9 10 9 6 11 23 20 17 13 20 16 15 17 25 28 19 21 17
14 15 15 15 14 13 11 10 9 9 8 9 10 13 17 21 19 18 13 17 23 24 26 26 25 18 15 10 7 11 9 13 19 21 14 15 12 15 13 21 27 29 25 23 21
12 13 14 15 13 11 9 8 7 7 7 7 9 11 13 19 20 17 20 16 23 25 28 31 27 24 17 13 9 13 12 15 13 18 10 15 7 10 15 18 26 28 25 24 19
11 12 13 14 12 8 6 6 6 6 5 4 7 8 11 19 21 18 17 20 24 27 29 33 28 26 20 18 12 10 13 12 12 12 16 17 11 8 19 17 23 25 23 21 17
13 13 11 10 9 5 4 5 4 6 6 8 6 12 15 20 23 21 18 20 25 27 31 34 31 31 27 19 5 7 12 10 10 9 14 18 12 10 15 21 25 26 24 19 14
13 13 11 8 6 3 6 6 9 10 4 7 4 10 10 16 23 23 22 22 27 29 32 32 33 29 24 18 14 12 11 5 7 10 20 10 15 15 15 26 26 24 26 25 20
13 12 11 5 2 2 5 9 12 13 5 6 2 11 8 8 21 22 21 22 25 28 33 33 27 27 22 20 18 14 9 9 6 14 14 8 3 17 21 28 27 30 26 24 23
13 12 8 3 0 3 5 5 9 9 4 10 9 6 6 8 11 19 20 18 25 29 32 25 13 24 24 20 20 18 11 6 4 12 9 10 8 18 24 26 32 33 36 29 25
11 10 5 2 3 3 5 4 4 6 4 6 6 5 5 7 4 15 21 17 19 27 29 23 24 13 23 27 21 20 11 5 4 8 11 16 7 9 24 26 29 29 34 35 32
8 6 4 8 7 5 1 3 3 3 4 5 6 2 4 6 8 15 22 16 10 18 27 22 14 18 17 21 23 21 11 9 10 8 5 16 17 7 14 18 24 27 33 34 31
3 6 11 10 6 3 4 3 2 2 2 7 3 2 11 8 8 18 18 18 12 17 22 24 22 15 15 15 16 18 13 4 2 4 6 12 16 13 3 8 18 24 31 35 31
3 7 8 7 4 4 3 2 1 8 12 13 5 4 14 14 11 8 18 19 20 8 15 12 10 21 15 19 12 17 18 6 5 5 5 6 10 7 19 20 8 20 27 28 31
5 8 8 10 9 7 9 8 3 5 8 12 5 4 10 11 18 11 12 18 19 16 8 10 8 15 10 16 16 12 21 19 3 4 4 6 8 11 13 12 12 15 21 23 28
8 8 8 5 7 6 6 7 6 5 7 8 9 6 3 10 11 15 10 16 13 17 18 4 4 10 15 12 16 12 13 13 10 4 2 3 7 12 13 17 17 18 21 24 24
9 7 6 4 3 5 5 7 6 4 6 5 6 4 9 8 7 14 7 8 9 7 14 16 7 4 13 9 14 17 18 12 14 5 7 4 6 18 13 11 17 22 22 24 24
9 6 7 1 2 3 3 2 2 3 4 1 3 1 5 12 6 10 13 10 11 12 9 12 7 4 14 14 14 15 18 13 12 6 6 3 4 16 17 13 15 20 21 22 22
9 9 8 3 2 4 4 5 4 7 6 2 2 3 2 11 8 17 12 10 12 9 7 5 5 9 11 12 13 9 10 14 14 11 9 8 4 15 16 17 18 18 18 19 19
9 9 8 7 5 7 6 7 6 6 5 4 4 4 0 3 6 12 13 8 11 5 12 8 3 5 12 18 16 14 7 7 10 10 15 15 9 12 17 16 15 14 15 15 17
10 12 10 7 6 4 3 4 8 4 5 2 5 4 2 3 6 10 10 7 8 7 8 8 16 22 22 18 17 18 13 3 7 4 8 14 17 15 14 18 16 15 16 15 15
12 14 10 12 6 4 4 7 8 6 5 5 6 4 3 4 5 7 9 9 6 8 9 11 18 14 13 14 5 8 13 8 4 8 10 4 13 18 22 19 16 16 17 18 18
12 11 10 9 5 3 6 6 2 4 2 4 4 4 4 5 9 7 10 7 8 8 9 9 15 16 8 13 16 14 5 12 13 2 9 10 11 16 19 19 20 20 19 18 18

GFSSW_700_spd_093.txt.gz
Wind_Speed
9 9 9 9 9 9 11 13 14 14 14 14 14 14 13 12 12 10 10 14 13 15 16 15 14 12 11 4 5 4 2 6 8 18 23 28 25 21 19 14 14 13 16 24 24
9 9 10 10 10 9 9 10 12 15 15 15 15 14 14 12 12 12 15 14 14 14 16 14 14 15 13 7 3 4 5 4 7 20 26 29 21 21 20 16 16 19 24 25 21
10 11 11 11 11 11 10 9 10 11 15 16 16 15 14 13 12 15 15 14 14 15 18 18 17 15 10 8 5 4 3 5 12 21 22 25 20 20 17 16 11 16 29 24 20
13 12 12 12 11 11 11 11 10 10 11 15 17 16 15 13 9 15 17 17 17 18 20 20 20 18 14 12 8 5 5 7 16 25 18 22 20 18 15 11 13 15 22 20 20
15 14 14 14 14 13 12 11 10 10 10 12 15 17 17 15 15 12 18 18 18 18 19 20 20 17 17 16 10 5 7 9 20 27 18 21 19 18 17 15 20 20 22 21 19
14 15 15 14 13 13 12 11 10 9 10 10 12 16 17 16 16 13 17 20 18 18 20 21 19 17 17 11 12 8 8 14 25 27 19 15 22 19 16 20 21 23 23 21 19
14 15 15 15 14 13 12 11 9 9 9 10 10 13 17 17 18 17 15 19 19 19 19 20 20 17 15 11 14 14 12 18 26 26 22 13 17 20 17 22 26 26 22 22 18
14 14 15 16 15 14 11 9 9 7 7 8 10 10 15 19 18 18 14 19 24 23 22 23 22 16 15 10 11 14 11 16 21 22 19 16 18 14 18 23 31 26 23 22 22
13 14 13 13 14 12 9 7 6 6 5 5 8 8 11 19 20 21 17 17 21 24 24 26 23 20 16 14 12 14 12 13 22 18 9 13 8 18 14 21 30 29 26 25 23
13 13 12 11 11 10 8 7 6 4 3 4 5 5 10 20 22 21 22 18 20 24 25 28 27 25 20 18 12 18 13 14 13 21 16 14 8 7 11 25 32 31 29 26 24
12 12 12 10 8 7 8 7 8 6 5 4 4 8 13 20 24 22 20 20 20 23 27 31 29 28 25 18 8 11 14 15 12 11 17 12 8 5 14 27 32 32 30 25 21
12 13 12 9 5 5 8 10 10 9 3 4 0 5 12 18 24 23 21 18 23 26 25 29 27 28 22 16 10 12 13 11 12 11 13 15 9 7 10 20 28 30 28 26 25
13 12 12 7 4 4 7 9 11 11 8 9 5 9 5 9 19 24 21 16 18 25 27 25 20 25 21 22 16 14 12 11 10 14 11 17 17 17 14 17 26 28 26 24 23
12 12 10 4 2 4 6 7 7 9 7 10 11 7 6 5 12 18 19 14 17 22 24 19 14 27 20 23 18 13 12 10 4 14 7 9 5 18 15 18 26 29 28 30 28
10 10 5 4 4 4 6 5 5 5 2 4 7 7 5 4 4 13 15 13 16 18 24 15 27 22 22 18 19 10 12 9 7 12 12 16 14 11 14 25 22 30 30 28 26
6 5 5 9 8 6 6 6 5 2 4 3 5 3 4 5 6 11 19 14 10 8 20 17 16 18 15 20 20 13 13 11 11 8 5 15 10 14 21 21 23 28 31 30 32
2 6 11 9 6 5 6 5 4 4 2 5 1 6 6 6 3 7 21 17 8 14 18 17 17 17 16 14 18 20 16 5 7 6 4 10 12 10 9 11 16 27 27 26 28
4 9 8 7 4 4 4 1 3 7 6 5 3 2 11 10 9 12 16 14 10 11 13 18 15 20 18 18 14 23 22 9 8 6 13 8 12 8 19 18 3 16 24 25 27
8 11 10 8 6 5 6 5 3 3 6 7 0 1 8 15 12 10 17 17 15 11 6 13 12 15 21 21 20 22 25 19 4 8 10 8 9 13 11 8 11 12 19 22 25
11 9 9 6 5 4 6 7 5 3 5 7 5 2 5 15 14 16 8 18 19 18 13 5 8 10 24 17 24 14 23 20 13 8 10 7 6 9 14 13 13 12 15 21 20
12 10 8 5 5 6 5 7 5 4 6 3 7 3 4 10 12 16 4 11 15 14 18 15 4 8 21 15 21 21 15 19 19 11 11 7 9 19 18 8 17 16 16 19 19
9 8 8 5 5 4 4 4 4 5 4 4 6 7 3 7 9 14 10 8 11 12 18 16 9 3 11 15 21 23 20 19 19 10 9 8 6 20 20 19 10 16 17 19 19
10 7 8 5 3 3 1 2 4 5 6 4 3 5 4 6 4 13 13 13 9 11 13 15 8 9 8 12 16 17 21 21 15 18 15 13 7 9 17 18 14 12 17 18 19
11 11 8 6 4 5 6 7 4 7 6 5 5 5 3 4 7 8 12 10 16 5 10 7 6 8 10 8 10 11 13 18 16 11 11 11 10 12 12 13 14 13 15 16 17
15 13 10 7 6 6 4 5 7 6 5 4 4 3 2 3 8 14 12 10 6 13 6 13 3 18 23 18 11 10 13 15 15 13 11 12 13 11 9 12 12 12 13 14 16
15 15 13 9 7 3 3 5 8 7 5 4 4 2 1 3 5 11 10 9 5 11 11 14 13 17 17 15 13 9 6 7 11 12 13 12 18 18 19 17 15 14 13 14 15
13 13 12 9 8 5 4 7 6 2 3 5 4 2 2 5 4 7 6 5 9 6 8 15 23 15 7 7 5 3 4 4 4 6 10 8 13 21 21 24 22 19 17 17 17

GFSSW_700_spd_096.txt.gz
Wind_Speed
8 8 7 7 7 7 8 11 13 14 15 14 14 13 13 13 13 12 13 15 13 15 14 13 12 11 10 8 5 6 1 9 10 16 20 23 19 18 16 12 10 11 10 23 21
10 9 9 9 9 8 8 8 10 13 15 16 15 14 13 13 13 15 16 15 14 15 15 13 11 12 12 7 4 5 3 6 8 15 19 22 19 22 18 14 13 14 18 24 19
10 10 9 8 9 9 9 9 9 10 12 15 16 16 14 13 12 16 17 16 14 15 18 17 14 12 11 6 4 3 2 3 7 16 23 23 18 19 15 11 11 18 25 23 19
12 11 11 10 10 9 8 9 9 10 11 13 16 17 16 14 8 17 18 17 17 18 19 19 17 15 14 7 7 1 2 6 13 19 24 20 17 16 14 12 15 15 22 20 18
14 13 12 11 10 10 9 9 10 10 11 12 13 16 17 16 19 11 17 18 19 19 19 20 17 15 11 14 9 3 1 9 19 20 21 20 15 18 15 13 18 22 26 20 19
13 14 14 12 11 9 8 8 8 9 10 11 11 14 17 17 18 16 16 19 19 18 18 20 16 15 14 16 13 5 7 16 22 21 15 19 18 16 15 18 23 25 25 20 18
11 12 12 13 12 9 7 6 6 7 7 9 10 11 16 21 19 18 15 19 20 19 17 21 18 13 13 15 11 14 16 20 21 20 19 20 17 13 18 23 25 25 23 20 19
11 11 10 10 11 12 8 5 4 4 5 6 8 9 14 20 20 18 15 20 21 21 22 21 19 11 7 10 14 14 16 21 22 22 19 19 20 22 22 24 26 25 22 21 20
10 11 11 11 11 10 9 7 4 2 2 4 5 6 10 19 19 20 15 18 21 22 21 23 21 12 12 12 11 18 14 15 20 18 18 12 17 19 22 28 25 23 22 21 28
10 11 11 11 10 9 8 7 5 3 3 3 1 5 8 13 22 22 19 19 20 21 20 21 21 13 13 16 14 13 12 17 18 23 21 15 12 19 22 33 25 23 23 22 25
11 10 11 10 8 7 7 6 9 7 3 2 3 9 12 17 21 22 21 16 20 18 16 20 18 23 18 15 8 8 8 10 10 14 14 19 7 8 15 29 29 24 24 23 22
10 9 9 8 5 4 7 9 8 7 6 4 3 8 9 16 18 21 21 15 19 18 17 18 23 20 15 12 8 12 14 11 10 15 13 16 13 10 23 24 32 29 26 23 24
9 9 8 5 2 4 5 6 8 12 10 7 3 5 6 10 13 20 19 12 16 18 21 20 18 18 16 14 11 10 12 12 14 16 11 14 11 9 8 27 31 28 26 24 24
8 7 5 2 1 4 6 7 7 10 4 5 5 3 4 6 8 17 16 11 12 18 17 18 16 20 19 18 14 11 9 8 12 13 7 13 4 21 9 8 32 31 29 30 25
5 5 2 3 5 8 7 7 6 4 0 2 3 6 7 4 7 15 17 11 11 14 18 15 21 19 21 19 17 3 9 8 10 9 13 13 4 13 13 9 17 29 28 26 25
3 2 5 8 7 6 6 5 5 0 5 2 2 1 3 4 8 13 16 12 11 12 18 8 16 16 19 17 17 7 10 8 10 10 8 12 7 12 11 15 11 24 28 28 28
2 5 9 7 6 5 4 5 1 5 3 2 1 3 5 5 6 12 17 15 11 14 18 14 14 16 19 19 16 15 16 10 8 8 3 14 10 7 16 14 19 22 27 30 27
7 10 8 6 5 5 6 4 2 2 2 1 3 2 8 6 6 10 15 18 15 15 17 19 20 20 19 22 19 24 22 13 8 11 8 10 8 7 14 11 11 21 24 30 31
10 10 8 6 4 5 6 1 2 1 2 4 3 4 5 10 7 9 14 17 14 13 11 19 17 18 15 21 17 21 27 22 13 6 14 16 10 8 13 20 15 9 20 23 27
14 11 8 5 5 3 3 3 2 1 4 4 4 2 5 10 11 12 11 14 16 14 10 9 17 15 21 16 21 15 23 25 19 12 12 9 13 11 16 14 10 15 14 20 25
16 8 8 5 5 3 1 1 2 2 3 3 4 3 3 7 10 12 9 4 14 15 12 8 12 15 18 24 21 23 17 28 26 26 12 12 16 15 11 14 14 13 15 19 26
14 6 9 7 3 4 2 2 1 3 4 4 4 3 2 3 9 9 11 4 14 11 16 14 11 13 22 15 19 24 23 24 24 23 22 19 2 15 19 20 13 12 18 20 22
13 8 10 6 4 4 2 1 2 3 6 3 3 2 6 3 3 7 7 14 9 9 11 17 11 12 12 13 18 20 23 22 22 24 25 21 12 8 16 23 20 15 19 22 25
13 6 9 7 7 4 3 3 4 6 5 3 3 2 1 2 9 7 7 7 11 5 11 15 10 15 17 22 20 18 18 22 21 22 18 21 14 6 6 15 16 15 16 22 24
15 11 11 7 4 3 2 4 4 6 4 2 3 3 3 3 5 6 7 2 17 4 3 7 6 12 6 10 12 14 17 20 22 21 16 12 17 4 9 10 9 10 13 16 18
18 13 12 8 5 3 2 4 4 5 2 3 4 2 3 4 2 8 6 12 6 8 6 5 6 9 9 9 9 10 9 12 14 14 15 12 8 15 15 11 8 9 12 14 15
17 15 11 11 7 4 4 4 3 1 1 5 5 4 3 4 5 8 12 8 9 10 9 9 14 10 13 8 8 10 8 8 7 6 10 14 12 18 21 20 18 16 15 15 16

GFSSW_700_spd_099.txt.gz
Wind_Speed
8 7 6 6 5 6 7 8 11 13 14 14 14 14 13 13 13 13 13 15 13 13 12 11 10 10 8 6 5 5 3 11 14 20 18 21 19 14 17 11 9 10 12 21 21
9 9 8 8 9 8 8 8 9 10 13 15 15 15 14 13 13 15 16 14 13 13 13 11 9 9 10 5 3 7 2 9 7 16 20 23 18 18 11 14 9 14 22 19 20
9 9 9 9 9 10 9 10 10 11 11 14 15 16 15 13 12 18 16 15 14 14 15 13 10 10 9 6 7 5 1 4 8 11 19 21 18 14 15 12 15 20 24 18 20
9 8 9 9 9 9 10 10 11 11 11 11 14 17 16 14 4 20 17 16 15 16 18 15 13 13 7 9 9 7 2 5 9 20 20 20 17 16 12 12 16 18 21 19 21
9 9 9 9 9 9 9 9 9 10 12 11 12 15 17 16 13 10 18 17 17 17 18 17 14 12 11 8 8 7 3 9 14 23 19 19 16 17 11 16 18 23 23 21 19
10 11 10 10 10 9 7 9 9 9 10 11 12 13 17 14 27 17 14 18 17 17 16 17 13 12 9 9 9 7 3 11 20 23 23 17 18 15 12 19 21 25 22 19 18
9 10 10 10 10 10 8 6 7 7 8 9 10 10 14 12 21 19 15 17 18 15 14 16 12 14 6 10 11 8 9 17 19 18 25 22 17 13 15 22 25 25 21 19 18
9 9 10 9 9 9 8 5 3 4 5 7 8 9 9 23 18 19 18 17 19 15 13 13 18 13 8 15 9 12 18 22 20 19 27 20 18 15 19 23 25 23 21 20 18
8 8 8 8 7 6 6 6 4 4 4 4 5 5 5 12 17 18 17 15 19 17 17 18 13 15 14 10 13 14 15 20 21 17 30 21 21 22 20 21 22 22 21 19 18
8 8 7 7 6 4 5 5 7 5 3 2 1 3 5 4 12 17 15 15 16 14 15 15 13 15 18 19 21 14 14 23 23 21 19 24 14 22 27 31 22 21 20 20 20
8 7 7 7 4 3 3 3 12 10 2 5 3 4 4 8 14 15 16 15 15 14 15 17 19 22 19 18 17 10 20 13 24 31 24 13 15 19 25 35 29 23 22 21 21
8 8 7 5 3 2 3 7 2 1 3 6 5 9 8 6 10 14 16 13 15 18 17 15 24 19 17 18 17 13 15 26 26 21 18 19 13 13 25 31 35 29 22 22 22
7 7 6 3 1 1 1 3 6 7 3 4 1 1 6 8 11 16 17 14 14 18 20 18 16 20 21 16 16 17 17 16 14 25 19 21 12 13 14 27 35 31 26 25 24
7 5 4 1 1 4 4 5 6 1 4 4 2 0 3 8 9 14 17 13 13 17 19 20 16 20 17 20 15 15 14 13 15 17 15 12 9 18 13 26 38 29 32 28 27
5 3 2 1 4 7 5 6 6 3 2 3 2 2 6 8 7 14 18 14 13 14 19 19 18 19 21 20 16 4 3 8 17 16 18 15 7 10 14 26 20 33 30 28 31
3 2 3 5 6 8 8 5 3 6 2 2 1 1 4 6 6 9 18 15 9 15 18 17 17 18 19 18 17 11 7 7 7 9 6 15 13 14 18 19 20 36 34 34 28
3 4 7 6 6 5 6 4 7 3 2 2 0 2 6 6 8 10 18 19 15 16 19 20 12 19 17 20 18 18 15 10 9 4 5 17 8 7 16 18 7 26 30 25 34
5 7 7 6 6 5 6 3 8 3 3 2 2 2 8 6 9 10 14 19 19 16 16 21 17 21 18 23 19 22 22 13 7 6 9 17 7 17 22 9 15 15 14 22 27
8 8 7 4 5 5 1 15 5 2 3 5 6 8 9 7 6 12 15 17 19 15 20 20 22 19 19 19 20 20 27 20 10 8 6 8 6 15 17 17 18 21 25 30 31
11 7 5 6 6 5 4 5 2 2 5 5 10 5 8 9 9 11 15 15 17 15 17 11 17 19 21 18 21 20 20 25 22 14 8 9 8 8 20 17 18 14 25 26 27
13 6 11 4 7 3 9 2 1 4 4 4 6 7 9 7 10 10 11 4 10 8 15 8 16 20 17 23 24 24 16 26 26 24 14 6 6 11 14 17 15 16 15 21 25
12 6 10 5 4 3 2 2 4 4 5 5 6 7 6 9 7 7 5 15 4 11 14 21 9 21 23 21 23 21 25 20 25 25 24 17 5 2 8 15 17 14 19 27 30
11 7 12 8 8 8 4 4 2 3 5 5 6 7 6 9 4 7 5 6 3 8 9 13 21 20 13 21 20 23 23 27 23 24 24 20 10 15 10 14 17 14 14 24 26
9 8 6 10 6 3 4 5 4 6 4 3 8 7 7 8 8 9 9 4 8 6 14 11 17 24 16 11 24 25 23 26 25 26 25 20 20 20 17 12 11 13 17 17 24
12 8 8 8 8 6 5 5 4 4 5 5 5 6 7 5 9 10 5 3 8 11 4 12 17 19 14 20 23 22 26 18 23 23 17 9 10 15 14 8 4 7 12 14 20
9 5 12 5 6 5 4 4 4 4 3 3 6 5 5 7 4 11 5 8 4 14 5 8 11 13 15 7 10 18 20 23 22 22 24 7 11 3 16 8 4 5 8 11 15
16 14 10 10 7 6 5 4 4 3 3 3 5 5 4 4 4 5 5 3 6 7 15 8 12 12 21 14 11 13 16 15 17 17 15 10 13 4 6 4 7 8 9 11 13

GFSSW_700_spd_102.txt.gz
Wind_Speed
7 7 7 7 7 8 8 8 9 12 13 14 13 14 13 13 13 13 13 14 10 10 11 11 9 7 9 4 3 5 2 14 21 23 22 22 20 15 15 18 7 10 16 14 25
8 8 8 8 8 8 9 10 9 10 12 14 14 15 14 13 13 13 15 12 11 11 12 12 9 8 9 7 5 8 8 17 16 19 26 22 18 19 14 17 13 16 21 20 20
9 9 9 9 9 9 9 10 11 11 11 12 14 15 15 13 11 17 13 13 11 12 13 13 7 7 11 11 8 11 8 12 16 23 23 22 21 12 18 12 15 21 25 25 20
8 8 9 9 9 10 10 10 10 12 13 12 12 15 15 12 2 16 13 14 13 14 15 17 11 13 10 10 8 11 7 7 5 18 24 23 20 18 12 14 21 22 21 22 22
8 9 9 9 9 9 9 10 10 11 12 12 12 13 15 14 10 13 13 16 15 15 15 16 12 12 13 10 8 9 8 4 14 21 24 19 18 17 13 18 20 25 21 20 20
9 9 9 10 10 9 9 8 9 10 10 11 11 12 14 16 18 24 8 15 16 15 14 15 12 11 11 10 10 5 7 7 8 25 24 19 18 16 17 23 20 25 21 20 18
9 9 9 9 9 9 8 8 7 8 9 10 10 11 13 18 24 24 17 11 16 16 12 14 13 11 7 11 8 7 6 16 16 23 19 23 17 14 16 18 23 23 21 20 18
9 9 9 9 8 8 8 9 8 8 8 8 8 9 9 18 22 22 18 13 15 15 12 10 15 14 15 9 8 7 11 19 26 21 27 31 21 16 20 23 25 23 21 20 19
8 7 8 8 8 7 8 8 8 9 8 6 6 5 3 14 15 16 15 11 12 12 11 11 16 16 12 17 9 14 11 16 18 17 32 20 21 22 22 21 24 24 22 20 19
8 8 8 7 7 6 5 6 10 14 9 6 7 2 5 8 7 11 16 13 14 13 15 17 13 16 18 21 17 10 11 18 23 32 32 25 25 21 24 23 21 26 21 21 20
9 9 8 7 6 5 4 5 16 12 5 7 7 4 8 6 10 10 11 14 13 14 16 16 16 21 19 19 22 22 14 16 15 11 22 23 29 36 33 34 27 24 22 23 21
8 8 7 7 5 4 2 9 9 7 8 6 9 12 9 6 6 11 14 14 16 17 16 16 22 18 17 18 20 21 10 12 23 30 3 27 23 25 32 35 30 26 30 20 23
7 7 6 5 4 4 5 5 5 6 6 4 6 4 8 9 9 12 15 15 13 15 18 22 15 18 19 20 10 14 19 8 17 17 14 24 15 18 28 37 34 35 33 34 28
6 5 5 4 2 9 11 5 6 9 6 3 0 3 3 7 8 13 16 15 12 15 17 20 17 17 20 19 13 9 9 4 13 8 19 17 8 18 19 27 37 35 33 31 29
6 5 3 2 3 7 3 5 6 7 4 1 2 7 3 7 4 11 14 17 14 14 16 20 19 19 17 19 16 8 10 7 4 6 13 18 8 22 22 25 34 45 41 32 23
5 4 1 2 7 7 4 7 5 4 4 1 2 1 3 8 5 10 12 17 12 12 17 19 15 17 19 16 15 8 13 15 8 10 14 23 19 18 33 30 27 44 42 37 28
5 3 4 6 7 5 5 4 5 7 1 5 3 4 6 8 9 9 12 17 17 13 18 17 20 16 12 16 15 14 16 6 3 6 6 18 15 10 18 17 27 47 44 38 33
5 4 6 7 9 9 3 4 8 7 6 5 3 6 5 5 10 7 11 18 18 16 16 17 20 16 17 19 19 18 16 8 1 6 3 12 10 16 9 9 23 29 40 36 34
5 6 6 7 6 7 2 7 9 9 7 9 8 11 8 7 7 8 11 14 17 18 21 15 18 18 17 17 19 17 22 20 17 6 11 12 17 19 20 15 25 26 13 21 30
7 9 1 2 6 6 5 14 8 4 8 8 12 7 6 12 9 9 12 12 14 18 18 16 14 18 17 16 17 20 14 20 11 5 6 1 1 12 20 14 22 23 21 17 22
8 5 6 6 8 7 9 5 4 5 9 6 10 12 12 5 13 15 2 6 7 9 6 17 14 17 18 20 18 19 18 14 25 23 6 4 7 5 27 16 16 16 20 18 19
16 6 11 6 9 10 9 6 6 5 8 10 10 8 11 9 8 12 3 7 4 3 10 10 13 9 15 15 16 19 19 18 17 22 20 14 13 23 12 15 17 16 15 25 15
13 8 9 9 12 9 7 7 3 5 7 10 9 9 11 11 7 7 6 9 6 1 8 7 12 13 16 15 17 20 20 21 18 18 22 15 11 11 12 21 24 27 26 26 28
11 7 9 12 12 11 8 7 5 4 6 8 8 9 8 9 6 9 15 9 6 7 10 12 14 18 19 7 13 19 22 17 21 22 19 20 24 19 21 23 23 24 19 23 26
13 4 8 7 12 9 7 5 4 7 4 9 6 7 11 9 12 21 9 5 4 9 8 12 17 17 20 11 18 14 20 20 20 24 15 9 18 17 17 23 22 22 22 22 26
14 9 7 6 7 6 8 9 6 6 5 4 8 9 9 9 7 16 6 9 5 6 9 12 14 14 18 14 16 22 19 21 23 21 20 10 7 14 21 18 17 16 18 18 21
15 15 7 7 7 8 8 3 4 6 6 6 6 6 7 2 3 8 5 5 4 5 12 7 6 7 14 6 12 19 8 4 20 17 17 18 9 7 17 11 2 7 8 8 11

GFSSW_700_spd_105.txt.gz
Wind_Speed
7 7 7 7 7 7 8 8 8 9 11 13 13 13 13 13 12 11 10 10 7 9 12 11 10 9 13 4 7 10 14 15 19 23 21 21 25 10 7 23 12 8 13 22 15
8 8 8 8 8 8 9 9 9 10 10 11 14 14 14 14 14 11 13 9 8 10 12 11 10 11 9 9 10 11 1 22 24 22 25 22 18 17 19 23 20 12 14 21 19
9 8 8 8 8 9 9 9 10 10 11 11 11 14 15 13 13 13 12 11 10 11 13 13 13 4 3 8 10 12 15 10 33 28 20 27 22 21 17 20 16 20 19 23 21
8 9 9 9 9 9 9 9 10 10 10 11 11 12 14 14 9 11 13 14 12 11 13 16 16 13 12 10 11 11 11 6 19 29 25 31 17 17 17 19 20 15 19 25 15
7 8 8 8 9 9 9 9 9 10 10 11 11 11 11 13 14 14 7 13 13 13 14 16 16 11 14 11 11 11 9 9 22 35 28 20 19 19 16 22 25 16 29 19 15
8 8 8 8 9 10 10 10 9 9 9 10 10 11 11 12 16 21 11 10 14 13 14 17 15 11 7 9 16 14 5 12 15 33 29 26 24 23 23 25 22 16 28 27 15
8 8 8 9 9 9 10 10 10 10 9 9 10 10 11 10 17 20 13 9 12 14 13 15 15 10 7 8 15 9 3 10 4 26 24 29 26 21 25 24 19 22 28 26 14
7 7 7 8 9 9 8 9 10 10 10 9 8 8 8 13 19 21 18 13 10 14 15 11 12 14 14 10 9 9 12 8 10 24 29 20 23 18 24 26 25 26 26 25 22
7 7 7 8 9 8 8 8 10 14 11 9 8 6 3 7 11 13 16 11 9 13 14 11 9 15 13 14 16 14 11 10 10 20 10 20 25 22 25 23 22 24 25 26 21
7 7 7 7 7 5 5 7 10 13 9 7 8 5 12 12 9 6 11 10 7 7 11 7 16 19 18 16 19 19 11 5 6 8 24 17 30 29 28 23 23 24 24 29 22
8 8 7 6 6 5 4 4 10 8 12 6 4 1 8 10 11 7 9 17 12 13 15 17 16 16 17 12 14 23 15 8 18 13 9 14 34 36 34 33 30 26 27 27 22
8 7 7 5 5 4 4 7 5 9 8 1 4 8 13 4 7 7 9 12 15 14 13 12 18 13 11 15 10 15 7 3 15 20 11 8 35 37 35 35 34 32 30 25 22
8 7 5 4 3 4 7 10 10 15 14 4 4 12 9 10 10 7 12 14 12 13 14 16 15 7 14 18 14 12 9 2 4 5 6 28 21 36 35 35 35 41 34 32 31
8 6 4 2 4 9 10 15 15 11 9 3 0 3 8 9 5 10 13 14 14 13 9 16 14 18 18 20 19 11 11 10 5 4 5 9 4 34 39 40 32 37 35 32 26
8 5 3 1 7 5 8 6 4 8 4 2 2 13 2 3 6 7 14 16 17 13 10 16 14 15 16 22 19 12 4 2 7 5 13 8 10 17 27 39 42 40 37 39 38
8 5 2 4 9 10 7 7 8 5 5 4 5 2 4 6 3 9 6 9 12 14 12 18 18 16 16 8 16 15 14 9 9 10 7 14 13 14 33 27 37 45 40 40 40
7 4 3 9 12 10 8 13 5 6 1 6 6 6 6 5 6 11 7 12 13 7 9 9 14 13 14 5 14 8 13 6 1 0 5 4 14 19 20 27 30 33 48 46 42
6 5 6 8 9 6 6 5 5 7 11 10 7 8 7 3 2 11 8 9 13 16 20 17 15 15 10 14 15 16 21 12 6 4 2 1 5 9 11 13 24 27 47 44 38
5 6 10 10 7 4 3 3 5 16 12 10 11 9 4 10 10 5 7 11 12 13 19 10 13 10 19 18 21 18 18 14 8 7 7 0 4 7 8 4 13 26 50 43 37
5 7 9 11 8 4 2 6 10 3 10 6 12 14 7 8 13 12 7 5 13 11 18 18 19 11 6 14 20 20 13 17 8 4 3 8 3 7 12 9 15 29 43 39 36
5 7 7 5 1 6 10 8 8 7 9 7 11 14 7 5 3 12 9 5 7 4 4 6 12 19 13 17 16 20 14 14 13 13 6 5 9 6 10 17 18 20 29 21 30
13 12 4 6 9 10 9 13 11 8 7 6 9 9 11 4 6 9 5 7 5 7 7 5 5 12 12 9 15 16 18 18 17 6 12 11 10 17 4 14 18 16 21 24 16
15 11 16 9 15 13 8 9 11 10 9 10 9 9 11 6 2 8 10 3 10 13 12 7 2 8 7 2 7 12 19 17 20 20 22 4 10 12 14 14 16 20 18 19 24
17 5 8 14 12 14 13 12 14 5 5 5 12 7 5 5 10 13 9 14 11 6 12 10 12 9 9 13 10 19 15 19 16 22 22 20 16 29 25 25 20 21 22 22 22
20 12 6 9 12 10 11 13 6 5 2 6 9 8 10 7 2 5 12 7 1 4 11 10 11 15 12 10 10 12 13 14 21 16 17 5 19 24 23 24 27 19 19 19 17
21 14 13 11 5 9 19 9 11 6 6 4 8 7 11 4 4 10 6 5 11 9 7 4 12 12 13 10 8 10 11 17 14 19 5 15 19 16 21 23 18 17 21 20 20
27 19 8 7 3 8 9 10 5 7 8 9 9 6 8 5 8 9 4 5 3 9 4 7 8 6 2 11 9 6 7 13 8 6 11 21 14 21 20 17 18 22 18 27 28

GFSSW_700_spd_108.txt.gz
Wind_Speed
6 5 5 5 5 6 6 7 7 7 8 11 12 12 12 12 11 9 8 8 8 9 12 11 11 16 13 9 6 3 15 12 18 19 23 21 19 13 6 10 6 6 7 19 20
7 6 6 7 7 6 6 7 8 8 8 9 10 12 12 11 11 9 12 8 9 10 11 11 12 13 8 7 5 9 17 18 20 24 23 23 19 25 17 14 12 14 17 19 17
6 7 7 7 7 7 6 6 7 8 9 10 10 10 11 12 10 11 11 10 10 11 13 16 17 17 12 2 9 10 11 10 32 25 26 21 23 27 20 21 15 12 17 18 14
6 6 7 7 7 8 8 8 8 8 8 9 10 10 9 10 5 9 12 11 11 12 14 17 20 19 10 8 9 13 11 8 30 24 25 22 26 20 20 19 12 7 12 14 11
6 6 7 7 7 8 9 9 9 8 8 8 8 8 8 8 12 12 8 12 12 12 14 16 18 13 9 3 9 13 14 6 35 32 27 27 27 21 18 17 17 14 16 15 14
6 6 7 7 8 9 9 9 9 8 7 7 7 7 7 7 14 16 13 7 12 14 14 16 16 14 10 7 12 17 18 9 22 35 33 28 21 26 29 19 23 15 13 17 18
6 6 6 7 7 8 8 9 9 9 8 7 6 5 4 9 13 17 10 11 9 12 14 14 18 17 9 7 10 11 14 3 13 33 40 21 23 26 21 27 23 15 18 20 19
6 6 6 7 7 6 6 7 9 9 8 8 6 4 2 5 11 15 10 9 7 10 13 16 18 17 13 7 6 10 9 6 33 27 29 19 32 27 23 25 21 24 23 23 17
7 7 6 6 5 4 5 6 7 9 8 10 8 8 9 8 6 10 12 6 10 12 14 19 16 16 12 8 12 8 11 6 16 31 14 24 35 33 29 25 23 30 30 25 24
7 7 6 5 4 3 4 6 7 4 7 8 5 6 8 4 11 9 7 11 14 13 20 18 12 12 15 12 15 7 11 4 7 3 20 22 28 37 34 23 17 31 30 29 28
8 8 7 5 3 2 2 5 7 9 7 11 11 2 4 5 9 8 8 15 11 13 18 11 12 17 18 21 15 13 13 9 8 6 12 5 17 40 34 31 32 29 26 31 30
9 8 6 4 2 2 4 11 15 14 6 11 14 9 9 4 4 7 9 16 13 15 14 10 17 13 10 14 13 17 11 4 4 7 4 14 22 29 39 36 35 34 32 29 30
9 7 5 2 1 6 10 12 12 12 7 7 8 6 6 8 10 7 11 14 11 14 13 12 9 6 8 8 14 8 6 1 3 5 4 7 14 17 35 39 37 36 33 34 33
10 7 4 2 6 8 9 8 5 6 6 6 8 7 10 7 10 6 6 8 15 11 9 12 8 12 9 15 19 11 4 5 8 4 3 14 7 35 27 39 42 41 41 39 31
10 7 4 3 9 8 6 6 5 5 3 2 5 10 10 8 5 4 3 4 15 13 6 16 14 11 13 14 19 16 10 2 1 2 6 13 3 2 34 44 41 43 41 38 35
10 7 4 7 11 7 9 6 5 4 3 3 6 2 4 7 4 8 3 4 15 13 12 17 14 16 13 13 17 23 16 9 8 2 1 6 4 6 30 39 42 42 38 39 37
9 6 5 8 9 10 8 6 6 3 6 11 8 11 8 7 1 5 4 3 8 7 3 7 10 8 6 17 19 20 13 6 2 2 4 7 5 6 8 28 39 39 43 40 42
8 6 7 11 10 12 7 2 4 10 13 11 7 14 2 13 6 12 7 9 7 12 11 8 7 5 9 13 17 20 10 10 7 4 3 3 4 7 7 17 25 34 45 45 40
5 5 11 12 12 13 5 3 3 11 9 18 13 14 10 14 4 3 11 10 4 6 8 6 7 10 1 15 16 19 19 12 10 7 4 2 9 10 13 10 16 31 52 47 46
4 6 12 12 11 11 7 3 4 7 11 9 9 11 8 9 9 7 6 9 4 3 9 19 24 8 8 7 20 16 10 9 6 5 3 4 4 13 16 13 12 22 34 42 47
6 12 9 8 11 10 5 3 5 5 7 8 7 9 14 3 2 6 4 9 9 8 9 3 15 20 11 6 17 21 19 13 11 5 6 5 8 8 7 11 9 8 23 35 50
13 17 14 5 6 6 1 5 2 5 4 6 11 11 13 3 3 3 3 4 11 10 10 8 4 6 11 10 17 20 20 15 14 5 8 7 8 5 6 1 10 6 11 22 42
16 17 13 14 8 7 3 3 10 13 13 11 9 6 6 3 1 5 12 10 12 14 9 12 6 6 8 6 7 7 1 8 14 11 11 6 6 9 11 13 18 14 19 28 32
18 15 17 19 11 9 10 10 11 13 10 2 7 7 5 7 9 8 14 13 14 6 17 8 5 2 4 11 13 11 12 14 9 12 12 12 11 22 20 18 19 21 23 28 27
23 15 18 13 20 16 19 15 11 7 7 3 3 2 7 7 5 8 16 7 6 6 5 7 8 6 11 10 11 7 12 13 9 9 12 15 5 22 24 21 18 16 20 20 24
23 24 15 14 11 13 12 9 8 7 10 3 3 5 7 4 5 8 14 5 4 2 4 3 5 5 7 17 9 4 8 9 4 4 5 8 9 14 26 23 18 15 17 19 19
24 25 20 20 16 3 4 11 15 13 1 5 5 5 1 2 3 4 2 4 3 8 5 5 4 4 4 9 12 2 8 14 5 5 7 13 15 14 21 23 15 19 17 16 17

GFSSW_700_spd_111.txt.gz
Wind_Speed
6 5 5 5 5 6 7 7 7 7 7 7 9 10 9 10 9 8 9 8 9 8 9 11 11 13 11 8 9 9 12 11 22 24 19 16 13 9 5 5 9 4 11 16 17
5 5 6 6 5 5 6 6 7 8 8 7 7 8 9 9 9 10 9 9 10 11 8 13 13 12 9 7 6 1 17 13 22 20 20 17 15 11 12 9 10 6 12 18 16
6 6 6 6 6 6 6 6 6 7 7 8 8 6 7 8 8 10 10 10 10 13 12 17 15 13 12 8 5 2 8 16 18 20 23 21 18 14 14 13 5 5 11 16 15
5 5 5 5 6 7 7 6 6 6 5 7 8 7 5 6 5 8 10 11 11 12 14 17 16 15 11 7 4 9 10 13 13 25 26 27 21 23 17 6 4 1 4 12 15
5 4 5 5 6 6 6 6 6 6 5 5 6 6 6 5 12 8 9 12 13 13 14 17 16 16 11 5 8 11 13 15 20 33 24 23 27 21 22 11 11 10 10 11 17
7 6 6 6 6 6 6 6 7 7 6 4 3 4 5 8 13 14 8 8 12 14 13 16 18 16 12 6 9 13 17 15 30 30 25 24 21 28 29 16 18 14 12 12 15
6 7 7 7 6 6 6 7 7 7 5 4 2 1 5 10 11 10 10 10 11 16 13 17 19 16 15 6 2 8 12 14 15 32 30 26 24 17 24 24 19 17 16 13 12
7 7 7 6 6 5 5 7 8 7 6 6 5 4 7 2 1 4 9 7 9 16 17 23 20 18 16 11 3 8 12 8 8 31 39 24 26 24 24 27 23 19 21 14 10
7 7 7 5 5 4 4 6 8 7 7 6 6 9 8 8 8 7 4 11 11 16 18 23 23 18 18 14 9 9 8 6 11 9 24 23 24 21 25 27 24 22 24 19 14
7 7 6 4 3 2 4 7 8 8 9 7 5 6 4 6 6 10 5 13 16 19 20 21 20 18 21 19 10 1 4 6 5 13 10 15 20 26 27 29 24 25 27 23 20
7 8 6 3 2 1 2 5 5 9 16 15 13 8 3 2 5 7 6 20 18 23 24 19 20 24 24 17 12 10 10 4 9 7 12 17 28 29 39 33 28 31 32 30 26
8 8 6 3 1 2 6 3 10 10 11 9 8 6 5 3 4 3 8 11 14 20 20 18 23 19 17 11 11 11 11 3 4 6 6 9 32 20 36 39 38 35 34 29 27
9 8 6 3 3 7 6 3 7 9 10 12 13 11 9 10 7 6 10 13 10 12 19 19 9 9 9 10 8 9 7 2 4 7 6 9 29 32 23 41 40 40 37 31 30
8 8 6 4 6 8 7 5 2 5 3 11 11 9 9 8 11 7 8 16 12 12 12 12 10 7 8 10 8 11 6 5 3 8 4 12 6 20 14 40 43 42 37 35 31
8 8 5 6 9 10 7 4 5 3 3 3 7 6 8 7 7 8 4 7 14 9 9 9 8 5 10 11 12 15 13 6 4 2 2 9 5 13 16 28 44 43 40 40 35
9 8 6 8 9 6 9 5 2 1 2 2 6 6 4 2 3 3 2 2 4 10 13 14 9 11 10 9 14 20 16 13 8 3 2 6 12 9 25 42 39 45 43 42 40
10 7 8 9 9 13 10 5 4 2 2 10 12 7 3 7 3 4 0 3 3 6 12 9 7 7 7 10 13 23 23 5 1 2 3 8 8 17 14 26 34 52 46 45 42
9 7 8 10 13 16 9 5 2 4 9 12 8 7 4 9 3 3 5 5 8 9 11 5 3 9 8 13 16 27 25 7 6 4 4 6 7 8 6 8 41 51 43 40 43
6 6 10 11 14 15 10 5 3 5 8 11 3 9 10 5 2 8 9 7 3 4 7 4 4 9 3 11 13 28 21 9 6 6 3 5 10 15 13 9 32 28 34 39 42
5 7 10 12 15 17 11 6 4 7 5 5 7 8 7 6 3 5 4 5 3 3 4 6 13 13 2 6 19 21 19 9 6 5 3 6 11 3 15 17 17 21 31 33 39
5 10 12 13 15 17 12 7 6 5 3 2 4 4 7 4 1 3 2 3 6 8 6 6 7 13 9 6 9 26 16 8 7 3 6 3 9 3 16 11 12 11 19 37 41
10 15 12 11 13 16 12 8 4 3 5 3 2 10 4 3 4 3 2 3 8 11 14 10 4 7 8 4 11 18 10 20 12 7 5 3 11 5 9 10 13 5 9 27 37
16 15 16 14 11 14 11 11 7 3 5 6 5 7 2 3 4 3 9 13 12 10 10 12 6 7 6 4 12 6 5 5 13 8 9 6 10 10 10 11 11 5 10 19 34
20 17 18 19 13 10 8 12 8 8 9 8 5 4 3 3 5 4 9 15 15 11 10 15 9 6 2 7 7 6 4 2 8 12 10 11 10 7 14 12 13 12 13 15 13
21 19 25 19 20 21 15 13 9 7 7 11 9 8 6 6 6 2 10 9 2 4 7 15 14 7 7 6 6 5 6 3 0 10 11 15 11 8 14 15 14 14 16 15 20
21 23 23 16 19 19 19 18 16 11 14 15 11 10 9 12 8 0 4 6 3 3 5 7 19 11 8 15 6 10 5 5 5 2 7 12 10 8 11 17 15 15 16 16 19
20 25 26 23 19 13 8 11 15 13 14 11 9 9 12 8 6 4 5 3 2 1 3 2 3 21 9 6 14 13 7 4 5 8 5 8 6 6 13 14 13 14 13 18 19

GFSSW_700_spd_114.txt.gz
Wind_Speed
7 6 6 6 6 6 6 6 6 6 6 6 7 8 9 10 9 9 10 9 10 10 11 10 9 8 8 6 3 5 9 12 23 21 17 15 13 11 5 2 8 4 9 10 15
7 7 7 7 7 6 6 6 6 7 7 6 5 6 8 8 9 10 8 9 10 11 12 12 11 10 9 7 6 4 6 11 19 19 19 19 14 6 10 5 5 6 10 12 14
6 6 6 7 7 7 7 6 5 5 6 6 7 6 6 8 9 10 11 10 11 11 12 13 13 12 10 7 5 1 2 11 19 19 17 19 16 10 7 7 3 7 6 14 16
6 7 7 7 7 7 7 7 5 4 4 5 6 7 6 6 7 11 12 12 12 11 12 13 13 13 11 7 3 2 2 3 14 22 16 17 18 17 10 4 6 4 1 8 12
5 5 6 6 6 6 6 6 6 5 3 3 4 5 7 9 11 8 11 13 13 12 13 15 14 12 11 7 5 6 6 10 16 11 21 18 18 17 13 10 6 5 6 9 16
7 7 7 6 6 5 5 5 6 5 4 2 2 5 7 10 12 9 7 10 12 14 14 15 16 14 12 1 4 5 6 10 14 19 25 23 21 18 17 15 12 8 8 13 15
7 7 7 6 5 5 5 6 6 5 4 3 1 3 6 7 6 8 10 7 10 16 17 17 17 18 12 4 1 2 4 6 7 24 25 20 25 22 20 19 17 12 11 16 15
7 7 7 7 6 5 5 5 6 6 7 6 4 4 7 7 6 8 9 10 10 15 17 20 22 19 14 8 4 1 4 6 5 22 25 23 21 21 26 26 19 18 16 16 17
7 7 7 7 5 4 4 5 4 6 5 5 6 7 6 6 5 3 9 11 11 13 16 20 22 20 16 13 8 3 2 4 4 9 26 32 19 20 22 28 23 23 18 18 17
8 9 8 6 5 3 4 5 7 12 8 6 4 4 4 4 3 3 9 14 13 15 17 22 23 19 20 15 8 3 1 3 2 5 8 6 29 19 20 30 30 26 21 19 16
7 8 8 7 4 3 4 5 13 13 13 12 8 4 3 2 1 4 9 15 17 18 17 20 24 24 16 12 10 8 6 4 5 7 4 13 13 24 19 29 36 30 26 22 16
7 9 8 6 4 4 1 6 14 15 11 11 8 7 5 4 0 2 11 14 17 19 18 19 22 20 14 6 8 10 8 5 2 2 5 4 8 20 26 31 37 36 32 26 23
8 9 7 5 5 3 3 8 11 13 14 13 11 13 10 10 4 5 9 12 11 15 19 16 7 15 14 10 11 11 7 5 5 8 6 6 13 11 27 32 38 38 37 30 27
9 8 7 5 5 3 3 7 6 6 5 9 6 7 9 10 9 9 6 10 9 9 12 12 18 7 8 10 10 9 11 8 7 7 4 9 3 20 24 31 33 39 38 38 30
10 8 8 6 6 7 6 3 4 1 3 3 5 5 5 5 6 3 4 9 9 5 11 10 9 5 7 10 10 10 13 10 7 10 7 11 6 9 27 27 26 46 45 39 33
11 8 9 7 7 10 8 4 3 1 2 2 7 3 2 6 5 4 4 3 4 6 8 10 9 10 8 6 10 11 13 12 9 7 5 7 13 10 20 16 25 52 49 42 36
13 9 9 7 9 11 11 6 2 1 2 6 7 2 7 5 1 4 2 4 2 2 7 10 10 9 11 11 11 16 18 3 1 2 5 5 10 14 10 10 14 49 50 47 39
13 9 8 9 12 15 12 7 2 5 6 5 6 7 3 3 1 1 3 1 4 8 10 7 5 11 10 13 11 20 24 8 6 4 3 5 9 5 11 17 20 45 48 50 44
11 7 8 10 15 18 13 7 5 5 7 7 4 8 6 6 1 5 5 3 6 5 6 3 4 9 5 7 10 22 27 23 4 3 2 6 12 19 14 15 20 38 52 49 45
9 7 8 13 18 18 14 8 7 6 5 5 4 4 3 2 2 3 6 6 4 4 3 4 10 7 11 12 16 14 19 11 11 4 4 7 11 16 10 18 10 29 44 47 48
8 8 11 17 19 19 15 10 9 8 7 4 3 2 3 4 3 3 4 5 3 4 4 9 7 8 7 7 11 19 18 15 9 5 6 2 7 7 8 8 12 15 12 25 36
9 12 15 16 17 20 18 12 11 6 3 5 6 2 6 5 9 4 3 1 5 9 9 8 10 8 5 5 12 14 20 21 15 7 6 5 10 6 9 11 8 12 14 17 26
13 16 18 19 17 18 18 13 10 9 6 3 6 1 6 4 3 4 7 9 11 12 9 9 5 7 2 7 1 11 15 21 21 25 14 5 9 18 1 9 14 15 14 17 21
16 16 20 20 17 16 16 13 12 7 6 8 9 4 4 4 7 6 9 11 16 15 14 11 12 10 4 4 1 4 2 7 18 17 17 10 14 12 7 10 8 12 10 11 16
18 18 23 20 21 19 16 11 14 8 4 13 13 10 7 9 9 10 8 11 7 5 11 12 13 13 11 6 6 7 3 1 8 12 10 16 17 15 11 7 8 10 9 8 7
18 22 24 22 18 20 16 14 13 12 11 16 18 13 10 12 13 8 6 5 4 2 6 8 11 14 10 12 10 9 12 12 6 5 4 10 14 13 8 9 10 11 9 11 18
16 20 25 26 20 20 19 15 12 14 12 15 17 13 11 5 8 9 7 6 5 4 1 3 9 10 14 12 10 15 15 12 8 7 6 6 9 6 3 7 9 9 8 9 15

GFSSW_700_spd_117.txt.gz
Wind_Speed
7 6 6 6 5 5 4 4 5 5 5 5 6 8 9 10 9 9 10 10 10 11 11 8 6 5 6 6 3 1 7 12 14 16 15 13 11 10 6 3 6 6 9 11 15
7 7 7 7 7 6 5 4 4 5 6 6 6 6 8 9 10 11 10 10 10 11 11 10 8 8 7 4 4 5 7 13 17 17 15 15 10 7 7 6 4 5 12 14 9
6 7 7 7 7 7 6 5 4 4 4 6 7 6 5 8 10 13 12 11 11 12 11 12 11 10 8 5 3 6 4 9 15 9 14 15 13 10 7 4 4 4 11 11 11
7 7 7 7 7 6 6 6 5 4 3 4 6 7 7 7 9 12 13 13 13 12 12 13 13 13 9 5 3 2 4 3 13 11 18 17 16 13 10 4 3 7 7 7 11
6 6 6 6 6 6 5 5 5 4 3 3 5 7 8 9 10 8 12 13 13 13 14 14 15 12 9 6 2 1 3 4 5 12 17 18 14 15 13 8 3 5 8 9 14
7 7 7 6 6 5 5 5 4 4 3 3 3 5 8 9 9 7 9 11 14 16 15 15 15 14 10 3 2 1 3 8 9 6 27 20 17 15 15 12 8 4 8 10 17
6 7 8 7 6 5 4 4 4 3 3 3 1 3 7 7 9 9 7 7 11 15 16 17 17 17 13 7 2 1 2 6 7 3 25 18 18 16 12 14 12 9 9 15 15
6 7 8 8 6 5 4 4 3 3 4 4 4 5 7 10 10 10 10 10 9 13 15 16 19 17 12 9 5 5 2 3 4 6 24 19 17 15 15 16 15 14 12 16 17
6 7 8 8 7 5 4 5 3 3 3 5 8 7 8 9 9 9 11 9 11 10 16 16 19 19 17 11 6 4 3 4 3 5 21 25 17 18 21 21 19 16 15 20 20
7 8 8 8 7 5 4 3 7 6 5 7 4 4 5 4 4 6 12 13 10 11 16 18 22 21 18 10 8 4 2 1 4 4 15 23 30 24 23 23 26 21 20 22 19
8 8 8 8 6 4 4 12 10 9 9 7 4 4 3 2 1 2 10 13 12 12 17 20 22 17 14 10 9 6 3 4 4 6 4 9 10 26 23 26 31 32 29 24 18
8 8 8 7 5 2 6 13 13 12 10 9 10 10 8 4 1 3 9 11 11 13 14 17 17 18 13 6 9 11 9 7 7 9 4 8 11 15 35 25 31 37 34 28 22
9 8 7 6 4 1 7 13 10 15 13 10 12 12 10 10 3 2 9 8 6 10 13 13 10 17 12 9 9 12 12 9 9 8 7 8 10 13 26 24 24 34 33 31 28
9 8 6 5 4 4 9 13 8 8 7 7 5 5 7 6 7 8 3 9 6 7 9 7 10 6 10 14 13 12 11 11 10 6 3 8 5 21 19 28 38 37 33 34 33
9 9 7 5 6 7 9 8 8 4 2 3 3 4 4 4 5 5 6 6 6 3 10 7 11 10 8 12 12 12 11 14 10 10 9 11 7 12 23 28 34 36 36 39 34
10 8 7 6 8 10 10 8 8 3 1 3 1 3 1 1 2 2 3 4 5 6 5 10 8 8 8 11 12 12 12 13 12 9 6 9 13 10 28 22 16 34 37 38 36
12 8 8 7 10 13 11 9 4 3 6 3 1 6 5 3 4 4 5 6 3 3 3 6 10 10 10 12 12 16 12 4 6 5 6 5 8 19 11 18 19 29 43 41 38
13 9 8 9 11 15 15 11 4 7 7 5 5 12 4 3 1 4 7 5 2 3 5 3 5 10 10 16 13 18 16 9 7 4 1 6 10 8 10 12 10 18 33 40 38
12 9 8 10 14 18 18 12 6 11 11 10 6 8 6 4 4 4 7 4 5 3 5 3 4 3 11 7 11 12 19 18 4 5 5 7 14 20 19 18 19 18 24 38 36
11 8 9 13 17 22 20 12 9 11 11 9 7 5 1 1 4 5 6 5 5 3 3 2 7 4 10 9 10 13 9 9 13 4 5 6 8 9 12 9 15 24 28 40 39
10 9 11 15 20 24 22 14 13 13 13 9 8 5 2 2 4 5 7 7 4 2 2 4 5 3 6 8 10 16 14 15 10 8 5 4 4 11 12 4 5 14 27 39 51
11 12 14 20 23 24 24 16 15 11 13 11 9 3 1 4 7 5 3 3 4 5 8 6 7 11 9 8 11 11 12 17 17 15 7 6 12 10 16 6 5 8 15 8 31
13 16 16 22 23 22 24 18 15 13 11 12 12 7 1 5 3 7 10 9 8 9 9 8 5 10 8 8 2 5 12 17 21 20 15 11 13 15 16 6 9 8 10 8 15
14 15 19 24 24 20 22 20 16 13 13 12 14 11 5 3 3 4 6 9 13 16 17 15 15 15 14 7 6 2 4 7 12 15 18 18 22 17 17 9 7 16 17 16 23
15 16 20 22 25 22 19 17 17 13 11 13 17 15 9 7 7 11 12 10 12 9 8 12 12 13 12 7 8 6 0 10 9 13 10 11 20 20 15 8 10 10 11 14 14
13 19 20 24 20 23 21 20 17 16 14 12 18 15 13 11 9 11 11 8 6 6 5 9 9 10 15 13 13 13 13 7 9 9 7 14 17 14 6 10 11 12 11 10 11
12 17 20 23 22 19 21 16 14 15 17 15 16 18 15 10 11 10 10 9 7 8 4 6 8 8 10 10 12 11 20 11 12 8 15 7 12 12 7 6 11 13 14 15 13

GFSSW_700_spd_120.txt.gz
Wind_Speed
7 6 6 6 5 4 3 3 5 5 5 5 7 9 9 10 10 11 11 11 11 10 10 6 3 3 5 3 3 2 4 9 8 11 8 11 7 7 4 6 7 8 8 9 8
7 7 7 6 6 5 4 4 3 5 6 7 6 6 8 9 11 12 12 12 12 10 11 10 6 5 4 2 1 2 3 9 15 16 14 12 8 5 6 8 7 2 10 13 10
6 6 7 6 6 6 5 5 4 3 4 6 7 7 6 9 10 13 13 13 12 12 11 12 10 8 5 4 1 2 5 3 11 12 13 15 10 7 7 5 2 4 10 9 8
6 6 6 5 5 5 5 5 5 4 4 4 6 8 8 9 5 12 13 13 13 12 11 13 12 9 6 4 2 3 8 3 6 12 7 18 8 9 10 3 4 8 8 9 13
6 5 5 5 5 5 5 5 5 4 4 3 4 7 9 9 12 7 13 14 14 13 12 13 13 10 7 5 3 2 2 1 2 10 7 19 13 8 11 7 5 6 10 12 15
6 7 7 6 6 5 5 5 4 4 4 2 2 5 8 8 9 6 10 13 15 14 13 15 12 12 7 4 4 4 1 2 5 7 14 19 12 12 12 10 7 4 9 11 15
6 7 7 7 6 5 4 4 4 3 3 2 2 6 9 11 10 9 9 12 14 15 13 15 17 14 10 3 4 2 1 3 7 5 17 20 14 13 13 13 9 7 10 13 16
7 7 8 8 7 5 4 4 3 2 3 2 3 6 9 10 12 11 10 10 12 15 14 14 18 14 9 9 3 4 3 3 8 3 18 19 11 16 14 14 12 12 12 17 17
7 7 9 9 7 5 3 3 1 1 3 6 8 7 5 7 8 10 11 11 10 12 15 14 17 12 11 8 7 5 4 3 3 1 13 19 15 20 17 14 16 15 15 18 18
7 7 8 9 6 4 2 2 3 3 5 6 4 6 6 5 5 7 11 11 10 10 13 15 14 12 12 12 11 6 6 2 2 3 9 17 14 17 20 19 19 16 18 19 20
9 8 8 7 5 2 5 9 8 7 7 4 5 7 6 3 3 4 8 10 8 10 9 13 13 17 13 13 8 7 5 4 3 6 5 11 16 22 22 20 22 22 24 21 20
10 9 7 6 3 2 9 10 8 7 8 9 10 8 6 3 1 2 7 7 7 8 10 10 15 14 12 10 11 9 8 6 7 10 7 8 12 15 23 24 24 27 30 24 22
10 9 7 5 2 5 12 11 9 14 10 9 11 11 6 7 3 4 8 6 7 8 10 10 10 12 12 11 11 12 12 8 8 9 9 7 14 18 18 30 34 32 30 31 25
10 9 7 5 4 8 14 13 14 13 5 4 4 3 5 6 3 4 9 7 5 7 9 9 8 9 13 13 13 13 11 12 9 6 7 6 8 9 17 17 35 35 38 33 32
10 9 8 6 7 9 14 18 11 10 4 5 4 5 3 4 2 3 5 5 6 6 9 7 11 8 9 11 12 12 9 10 11 10 10 11 9 12 16 21 32 37 36 36 38
12 10 9 9 9 11 15 15 12 4 3 6 6 4 2 2 2 2 4 5 7 5 6 7 9 11 10 9 10 11 7 6 7 7 14 15 11 14 15 18 28 38 42 33 36
13 11 11 11 11 14 16 12 8 11 6 8 6 7 5 5 4 4 4 4 2 5 7 7 11 10 11 10 10 13 12 12 9 10 12 2 9 20 12 14 18 21 39 32 35
14 11 12 11 13 16 18 11 10 8 11 10 7 11 6 6 4 6 6 6 3 3 3 7 12 13 11 15 11 16 17 16 6 9 7 1 8 6 9 8 16 22 20 28 33
14 12 11 11 14 19 21 16 12 10 11 10 9 10 6 6 4 5 7 5 4 5 7 5 7 5 10 12 13 14 16 16 17 13 11 13 12 16 8 11 16 23 28 30 38
13 11 12 13 17 22 19 18 12 14 12 11 10 8 7 6 7 6 7 6 5 4 6 3 8 5 7 9 9 14 4 11 15 8 13 13 8 5 12 12 9 20 25 26 29
12 11 12 15 19 25 22 17 14 16 16 10 10 7 6 4 7 7 5 5 6 4 3 3 6 5 4 14 13 12 15 14 14 15 10 8 2 7 17 18 6 3 16 18 25
12 9 14 18 22 20 21 17 17 15 19 11 9 8 6 4 6 7 6 6 8 3 4 5 7 12 13 6 11 14 17 16 18 20 21 20 17 7 14 17 4 4 8 14 27
14 15 15 21 18 19 20 18 16 17 17 15 12 10 6 2 3 6 7 11 11 7 7 6 12 13 16 15 14 11 13 14 14 14 8 22 10 3 9 20 6 2 4 6 37
12 9 18 24 24 20 20 21 17 21 17 16 15 12 9 6 3 4 4 7 10 9 13 13 16 19 21 10 8 8 7 7 12 17 18 24 24 10 10 22 20 15 12 7 8
11 14 17 17 24 18 18 18 23 18 18 17 16 17 14 9 7 6 6 7 9 11 9 7 15 14 16 16 13 13 3 4 8 10 12 19 13 12 13 12 22 13 16 16 14
11 15 19 21 21 23 19 20 22 21 16 19 19 18 16 14 9 5 8 9 9 8 6 6 10 10 15 15 16 16 12 16 4 4 6 9 14 19 11 10 17 15 10 12 15
12 12 17 16 15 16 23 22 20 20 18 18 16 16 19 15 12 10 7 7 9 8 8 7 9 10 16 12 18 23 24 21 16 7 4 6 11 17 10 9 12 15 14 14 14